[[{"header":{"parameterUnit":"m.s-1","parameterCategory":1,"la1":30.6,"la2":28.766,"lo1":-90.7593,"lo2":-88.6598,"dy":0.0162,"dx":0.0183,"nx":116,"ny":114,"refTime":"2023-08-17T06:00:00:Z","depth":0,"parameterNumber":2,"parameterNumberName":"U-component_of_WINDS"},"data":[0.0,0.0,0.0,0.0,0.0,0.0,0.0,0.0,0.0,0.0,0.0,0.0,0.0,0.0,0.0,0.0,0.0,0.0,0.0,0.0,0.0,0.0,0.0,0.0,0.0,0.0,0.0,0.0,0.0,0.0,0.0,0.0,0.0,0.0,0.0,0.0,0.0,0.0,0.0,0.0,0.0,0.0,0.0,0.0,0.0,0.0,0.0,0.0,0.0,0.0,0.0,0.0,0.0,0.0,0.0,0.0,0.0,0.0,0.0,0.0,0.0,0.0,0.0,0.0,0.0,0.0,0.0,0.0,0.0,0.0,0.0,0.0,0.0,0.0,0.0,0.0,0.0,0.0,0.0,0.0,0.0,0.0,0.0,0.0,0.0,0.0,0.0,0.0,0.0,0.0,0.0,0.0,0.0,0.0,0.0,0.0,0.0,0.0,0.0,0.0,0.0,0.0,0.0,0.0,0.0,0.0,0.0,0.0,0.0,0.0,0.0,0.0,0.0,0.0,0.0,0.0,0.0,0.0,0.0,0.0,0.0,0.0,0.0,0.0,0.0,0.0,0.0,0.0,0.0,0.0,0.0,0.0,0.0,0.0,0.0,0.0,0.0,0.0,0.0,0.0,0.0,0.0,0.0,0.0,0.0,0.0,0.0,0.0,0.0,0.0,0.0,0.0,0.0,0.0,0.0,0.0,0.0,0.0,0.0,0.0,0.0,0.0,0.0,0.0,0.0,0.0,0.0,0.0,0.0,0.0,0.0,0.0,0.0,0.0,0.0,0.0,0.0,0.0,0.0,0.0,0.0,0.0,0.0,0.0,0.0,0.0,0.0,0.0,0.0,0.0,0.0,0.0,0.0,0.0,0.0,0.0,0.0,0.0,0.0,0.0,0.0,0.0,0.0,0.0,0.0,0.0,0.0,0.0,0.0,0.0,0.0,0.0,0.0,0.0,0.0,0.0,0.0,0.0,0.0,0.0,0.0,0.0,0.0,0.0,0.0,0.0,0.0,0.0,0.0,0.0,0.0,0.0,0.0,0.0,0.0,0.0,0.0,0.0,0.0,0.0,0.0,0.0,0.0,0.0,0.0,0.0,0.0,0.0,0.0,0.0,0.0,0.0,0.0,0.0,0.0,0.0,0.0,0.0,0.0,0.0,0.0,0.0,0.0,0.0,0.0,0.0,0.0,0.0,0.0,0.0,0.0,0.0,0.0,0.0,0.0,0.0,0.0,0.0,0.0,0.0,0.0,0.0,0.0,0.0,0.0,0.0,0.0,0.0,0.0,0.0,0.0,0.0,0.0,0.0,0.0,0.0,0.0,0.0,0.0,0.0,0.0,0.0,0.0,0.0,0.0,0.0,0.0,0.0,0.0,0.0,0.0,0.0,0.0,0.0,0.0,0.0,0.0,0.0,0.0,0.0,0.0,0.0,0.0,0.0,0.0,0.0,0.0,0.0,0.0,0.0,0.0,0.0,0.0,0.0,0.0,0.0,0.0,0.0,0.0,0.0,0.0,0.0,0.0,0.0,0.0,0.0,0.0,0.0,0.0,0.0,0.0,0.0,0.0,0.0,0.0,0.0,0.0,0.0,0.0,0.0,0.0,0.0,0.0,0.0,0.0,0.0,0.0,0.0,0.0,0.0,0.0,0.0,0.0,0.0,0.0,0.0,0.0,0.0,0.0,0.0,0.0,0.0,0.0,0.0,0.0,0.0,0.0,0.0,0.0,0.0,0.0,0.0,0.0,0.0,0.0,0.0,0.0,0.0,0.0,0.0,0.0,0.0,0.0,0.0,0.0,0.0,0.0,0.0,0.0,0.0,0.0,0.0,0.0,0.0,0.0,0.0,0.0,0.0,0.0,0.0,0.0,0.0,0.0,0.0,0.0,0.0,0.0,0.0,0.0,0.0,0.0,0.0,0.0,0.0,0.0,0.0,0.0,0.0,0.0,0.0,0.0,0.0,0.0,0.0,0.0,0.0,0.0,0.0,0.0,0.0,0.0,0.0,0.0,0.0,0.0,0.0,0.0,0.0,0.0,0.0,0.0,0.0,0.0,0.0,0.0,0.0,0.0,0.0,0.0,0.0,0.0,0.0,0.0,0.0,0.0,0.0,0.0,0.0,0.0,0.0,0.0,0.0,0.0,0.0,0.0,0.0,0.0,0.0,0.0,0.0,0.0,0.0,0.0,0.0,0.0,0.0,0.0,0.0,0.0,0.0,0.0,0.0,0.0,0.0,0.0,0.0,0.0,0.0,0.0,0.0,0.0,0.0,0.0,0.0,0.0,0.0,0.0,0.0,0.0,0.0,0.0,0.0,0.0,0.0,0.0,0.0,0.0,0.0,0.0,0.0,0.0,0.0,0.0,0.0,0.0,0.0,0.0,0.0,0.0,0.0,0.0,0.0,0.0,0.0,0.0,0.0,0.0,0.0,0.0,0.0,0.0,0.0,0.0,0.0,0.0,0.0,0.0,0.0,0.0,0.0,0.0,0.0,0.0,0.0,0.0,0.0,0.0,0.0,0.0,0.0,0.0,0.0,0.0,0.0,0.0,0.0,0.0,0.0,0.0,0.0,0.0,0.0,0.0,0.0,0.0,0.0,0.0,0.0,0.0,0.0,0.0,0.0,0.0,0.0,0.0,0.0,0.0,0.0,0.0,0.0,0.0,0.0,0.0,0.0,0.0,0.0,0.0,0.0,0.0,0.0,0.0,0.0,0.0,0.0,0.0,0.0,0.0,0.0,0.0,0.0,0.0,0.0,0.0,0.0,0.0,0.0,0.0,0.0,0.0,0.0,0.0,0.0,0.0,0.0,0.0,0.0,0.0,0.0,0.0,0.0,0.0,0.0,0.0,0.0,0.0,0.0,0.0,0.0,0.0,0.0,0.0,0.0,0.0,0.0,0.0,0.0,0.0,0.0,0.0,0.0,0.0,0.0,0.0,0.0,0.0,0.0,0.0,0.0,0.0,0.0,0.0,0.0,0.0,0.0,0.0,0.0,0.0,0.0,0.0,0.0,0.0,0.0,0.0,0.0,0.0,0.0,0.0,0.0,0.0,0.0,0.0,0.0,0.0,0.0,0.0,0.0,0.0,0.0,0.0,0.0,0.0,0.0,0.0,0.0,0.0,0.0,0.0,0.0,0.0,0.0,0.0,0.0,0.0,0.0,0.0,0.0,0.0,0.0,0.0,0.0,0.0,0.0,0.0,0.0,0.0,0.0,0.0,0.0,0.0,0.0,0.0,0.0,0.0,0.0,0.0,0.0,0.0,0.0,0.0,0.0,0.0,0.0,0.0,0.0,0.0,0.0,0.0,0.0,0.0,0.0,0.0,0.0,0.0,0.0,0.0,0.0,0.0,0.0,0.0,0.0,0.0,0.0,0.0,0.0,0.0,0.0,0.0,0.0,0.0,0.0,0.0,0.0,0.0,0.0,0.0,0.0,0.0,0.0,0.0,0.0,0.0,0.0,0.0,0.0,0.0,0.0,0.0,0.0,0.0,0.0,0.0,0.0,0.0,0.0,0.0,0.0,0.0,0.0,0.0,0.0,0.0,0.0,0.0,0.0,0.0,0.0,0.0,0.0,0.0,0.0,0.0,0.0,0.0,0.0,0.0,0.0,0.0,0.0,0.0,0.0,0.0,0.0,0.0,0.0,0.0,0.0,0.0,0.0,0.0,0.0,0.0,0.0,0.0,0.0,0.0,0.0,0.0,0.0,0.0,0.0,0.0,0.0,0.0,0.0,0.0,0.0,0.0,0.0,0.0,0.0,0.0,0.0,0.0,0.0,0.0,0.0,0.0,0.0,0.0,0.0,0.0,0.0,0.0,0.0,0.0,0.0,0.0,0.0,0.0,0.0,0.0,0.0,0.0,0.0,0.0,0.0,0.0,0.0,0.0,0.0,0.0,0.0,0.0,0.0,0.0,0.0,0.0,0.0,0.0,0.0,0.0,0.0,0.0,0.0,0.0,0.0,0.0,0.0,0.0,0.0,0.0,0.0,0.0,0.0,0.0,0.0,0.0,0.0,0.0,0.0,0.0,0.0,0.0,0.0,0.0,0.0,0.0,0.0,0.0,0.0,0.0,0.0,0.0,0.0,0.0,0.0,0.0,0.0,0.0,0.0,0.0,0.0,0.0,0.0,0.0,0.0,0.0,0.0,0.0,0.0,0.0,0.0,0.0,0.0,0.0,0.0,0.0,0.0,0.0,0.0,0.0,0.0,0.0,0.0,0.0,0.0,0.0,0.0,0.0,0.0,0.0,0.0,0.0,0.0,0.0,0.0,0.0,0.0,0.0,0.0,0.0,0.0,0.0,0.0,0.0,0.0,0.0,0.0,0.0,0.0,0.0,0.0,0.0,0.0,0.0,0.0,0.0,0.0,0.0,0.0,0.0,0.0,0.0,0.0,0.0,0.0,0.0,0.0,0.0,0.0,0.0,0.0,0.0,0.0,0.0,0.0,0.0,0.0,0.0,0.0,0.0,0.0,0.0,0.0,0.0,0.0,0.0,0.0,0.0,0.0,0.0,0.0,0.0,0.0,0.0,0.0,0.0,0.0,0.0,0.0,0.0,0.0,0.0,0.0,0.0,0.0,0.0,0.0,0.0,0.0,0.0,0.0,0.0,0.0,0.0,0.0,0.0,0.0,0.0,0.0,0.0,0.0,0.0,0.0,0.0,0.0,0.0,0.0,0.0,0.0,0.0,0.0,0.0,0.0,0.0,0.0,0.0,0.0,0.0,0.0,0.0,0.0,0.0,0.0,0.0,0.0,0.0,0.0,0.0,0.0,0.0,0.0,0.0,0.0,0.0,0.0,0.0,0.0,0.0,0.0,0.0,0.0,0.0,0.0,0.0,0.0,0.0,0.0,0.0,0.0,0.0,0.0,0.0,0.0,0.0,0.0,0.0,0.0,0.0,0.0,0.0,0.0,0.0,0.0,0.0,0.0,0.0,0.0,0.0,0.0,0.0,0.0,0.0,0.0,0.0,0.0,0.0,0.0,0.0,0.0,0.0,0.0,0.0,0.0,0.0,0.0,0.0,0.0,0.0,0.0,0.0,0.0,0.0,0.0,0.0,0.0,0.0,0.0,0.0,0.0,0.0,0.0,0.0,0.0,0.0,0.0,0.0,0.0,0.0,0.0,0.0,0.0,0.0,0.0,0.0,0.0,0.0,0.0,0.0,0.0,0.0,0.0,0.0,0.0,0.0,0.0,0.0,0.0,0.0,0.0,0.0,0.0,0.0,0.0,0.0,0.0,0.0,0.0,0.0,0.0,0.0,0.0,0.0,0.0,0.0,0.0,0.0,0.0,0.0,0.0,0.0,0.0,0.0,0.0,0.0,0.0,0.0,0.0,0.0,0.0,0.0,0.0,0.0,0.0,0.0,0.0,0.0,0.0,0.0,0.0,0.0,0.0,0.0,0.0,0.0,0.0,0.0,0.0,0.0,0.0,0.0,0.0,0.0,0.0,0.0,0.0,0.0,0.0,0.0,0.0,0.0,0.0,0.0,0.0,0.0,0.0,0.0,0.0,0.0,0.0,0.0,0.0,0.0,0.0,0.0,0.0,0.0,0.0,0.0,0.0,0.0,0.0,0.0,0.0,0.0,0.0,0.0,0.0,0.0,0.0,0.0,0.0,0.0,0.0,0.0,0.0,0.0,0.0,0.0,0.0,0.0,0.0,0.0,0.0,0.0,0.0,0.0,0.0,0.0,0.0,0.0,0.0,0.0,0.0,0.0,0.0,0.0,0.0,0.0,0.0,0.0,0.0,0.0,0.0,0.0,0.0,0.0,0.0,0.0,0.0,0.0,0.0,0.0,0.0,0.0,0.0,0.0,0.0,0.0,0.0,0.0,0.0,0.0,0.0,0.0,0.0,0.0,0.0,0.0,0.0,0.0,0.0,0.0,0.0,0.0,0.0,0.0,0.0,0.0,0.0,0.0,0.0,0.0,0.0,0.0,0.0,0.0,0.0,0.0,0.0,0.0,0.0,0.0,0.0,0.0,0.0,0.0,0.0,0.0,0.0,0.0,0.0,0.0,0.0,0.0,0.0,0.0,0.0,0.0,0.0,0.0,0.0,0.0,0.0,0.0,0.0,0.0,0.0,0.0,0.0,-4.6835,0.0,0.0,0.0,0.0,0.0,0.0,0.0,0.0,0.0,0.0,0.0,0.0,0.0,0.0,0.0,0.0,0.0,0.0,0.0,0.0,0.0,0.0,0.0,0.0,0.0,0.0,0.0,0.0,0.0,0.0,0.0,0.0,0.0,0.0,0.0,0.0,0.0,0.0,0.0,0.0,0.0,0.0,0.0,0.0,0.0,0.0,0.0,0.0,0.0,0.0,0.0,0.0,0.0,0.0,0.0,0.0,0.0,0.0,0.0,0.0,0.0,0.0,0.0,0.0,0.0,0.0,0.0,0.0,0.0,0.0,0.0,0.0,0.0,0.0,0.0,0.0,0.0,0.0,0.0,0.0,0.0,0.0,0.0,0.0,0.0,0.0,0.0,0.0,0.0,0.0,0.0,0.0,0.0,0.0,0.0,0.0,0.0,0.0,0.0,0.0,0.0,0.0,0.0,0.0,0.0,0.0,0.0,0.0,0.0,0.0,0.0,0.0,0.0,0.0,0.0,0.0,-4.8379,0.0,0.0,0.0,0.0,0.0,0.0,0.0,0.0,0.0,0.0,0.0,0.0,0.0,0.0,0.0,0.0,0.0,0.0,0.0,0.0,0.0,0.0,0.0,0.0,0.0,0.0,0.0,0.0,0.0,0.0,0.0,0.0,0.0,0.0,0.0,0.0,0.0,0.0,0.0,0.0,0.0,0.0,0.0,0.0,0.0,0.0,0.0,0.0,0.0,0.0,0.0,0.0,0.0,0.0,0.0,0.0,0.0,0.0,0.0,0.0,0.0,0.0,0.0,0.0,0.0,0.0,0.0,0.0,0.0,0.0,0.0,0.0,0.0,0.0,0.0,0.0,0.0,0.0,0.0,0.0,0.0,0.0,0.0,0.0,0.0,0.0,0.0,0.0,0.0,0.0,0.0,0.0,0.0,0.0,0.0,0.0,0.0,0.0,0.0,0.0,0.0,0.0,0.0,0.0,0.0,0.0,0.0,0.0,-5.5354,-5.5868,-5.5886,-5.6547,-5.6418,-5.5592,-5.4399,-5.2858,-5.1114,-4.9896,0.0,0.0,0.0,0.0,0.0,0.0,0.0,0.0,0.0,0.0,0.0,0.0,0.0,0.0,0.0,0.0,0.0,0.0,0.0,0.0,0.0,0.0,0.0,0.0,0.0,0.0,0.0,0.0,0.0,0.0,0.0,0.0,0.0,0.0,0.0,0.0,0.0,0.0,-4.1762,-4.1679,-4.1378,-4.0844,-3.9671,0.0,0.0,0.0,0.0,0.0,0.0,0.0,0.0,0.0,0.0,0.0,0.0,0.0,0.0,0.0,0.0,0.0,0.0,0.0,0.0,0.0,0.0,0.0,0.0,0.0,0.0,0.0,0.0,0.0,0.0,0.0,0.0,0.0,0.0,0.0,0.0,0.0,0.0,0.0,0.0,0.0,0.0,0.0,-4.6698,-4.8355,0.0,0.0,0.0,0.0,0.0,0.0,0.0,0.0,0.0,0.0,0.0,0.0,0.0,-5.4038,-5.4858,-5.7703,-5.8896,-5.8455,-6.0658,-6.1704,-6.1704,-6.1814,-6.141,-6.0676,-6.1172,0.0,-5.2904,-5.3384,0.0,0.0,0.0,0.0,0.0,0.0,0.0,0.0,0.0,0.0,0.0,0.0,0.0,0.0,0.0,0.0,0.0,0.0,0.0,0.0,0.0,0.0,0.0,0.0,0.0,0.0,0.0,0.0,0.0,0.0,0.0,0.0,0.0,0.0,0.0,0.0,-4.0613,-4.2582,-4.3519,-4.3916,-4.3628,-4.2736,-4.1983,-4.1274,-4.0512,-3.857,0.0,0.0,0.0,0.0,0.0,0.0,0.0,0.0,0.0,0.0,0.0,0.0,0.0,0.0,0.0,0.0,0.0,0.0,0.0,0.0,0.0,0.0,0.0,0.0,0.0,0.0,0.0,0.0,0.0,0.0,0.0,0.0,0.0,0.0,0.0,0.0,0.0,0.0,0.0,-4.5832,-4.8586,-4.7394,-4.9661,-5.0363,0.0,0.0,0.0,0.0,0.0,0.0,0.0,0.0,0.0,-5.5975,-5.7187,-5.8162,-5.8951,-6.0823,-6.2053,-6.2658,-6.3704,-6.4457,-6.4861,-6.442,-6.3778,-6.3007,-6.3374,-6.0993,-5.6703,-5.5674,-5.2947,-4.9212,0.0,0.0,0.0,0.0,-4.387,-4.3518,0.0,0.0,0.0,0.0,0.0,0.0,0.0,0.0,0.0,0.0,0.0,0.0,0.0,0.0,0.0,-3.8185,0.0,0.0,0.0,0.0,0.0,0.0,0.0,0.0,0.0,0.0,0.0,0.0,-4.3359,-4.4724,-4.4943,-4.5564,-4.5186,-4.4005,-4.3718,-4.305,-4.1987,-4.0055,-3.8275,0.0,0.0,0.0,0.0,0.0,0.0,0.0,0.0,0.0,0.0,0.0,0.0,0.0,0.0,0.0,0.0,0.0,0.0,0.0,0.0,0.0,0.0,0.0,0.0,0.0,0.0,0.0,0.0,0.0,0.0,0.0,0.0,0.0,0.0,0.0,0.0,0.0,0.0,-4.8375,-5.041,-4.7453,-5.1342,-5.252,0.0,0.0,0.0,0.0,0.0,0.0,-5.524,-5.6275,-5.7758,-5.9795,-6.1043,-6.2144,-6.3135,-6.3759,-6.4677,-6.5907,-6.5907,-6.6237,-6.6769,-6.598,-6.5173,-6.4383,-6.3991,-6.2162,-5.9222,-5.7549,-5.4721,-5.1182,-4.9163,-4.7786,-4.688,-4.6295,-4.5768,-4.5592,0.0,0.0,0.0,0.0,0.0,0.0,0.0,0.0,0.0,0.0,0.0,0.0,0.0,0.0,-3.4371,-3.9358,-3.6918,-3.5245,0.0,0.0,0.0,0.0,0.0,0.0,0.0,0.0,0.0,-4.3492,-4.3548,-4.4353,-4.5838,-4.5759,-4.5423,-4.4924,-4.4597,-4.3796,-4.2445,-3.9132,-3.7685,-3.7292,0.0,0.0,0.0,0.0,0.0,0.0,0.0,0.0,0.0,0.0,0.0,0.0,0.0,0.0,0.0,0.0,0.0,0.0,0.0,0.0,0.0,0.0,0.0,0.0,0.0,0.0,0.0,0.0,0.0,0.0,0.0,0.0,0.0,0.0,0.0,0.0,0.0,0.0,0.0,-5.14,-5.5304,0.0,0.0,0.0,0.0,-5.4501,-5.5138,-5.6812,-5.9869,-6.0107,-6.163,-6.4842,-6.5026,-6.5815,-6.7357,-6.7412,-6.7485,-6.7577,-6.7577,-6.7595,-6.7595,-6.6806,-6.5999,-6.5139,-6.3784,-6.1478,-5.8783,-5.9222,-5.6849,-5.2892,-5.2008,-5.0363,-4.8483,-4.8421,-4.7803,-4.6918,0.0,0.0,0.0,0.0,0.0,0.0,0.0,0.0,0.0,0.0,0.0,0.0,0.0,-3.1769,-3.4036,-3.7529,-3.6898,-3.597,-3.5174,0.0,0.0,0.0,0.0,0.0,0.0,0.0,-4.0507,-4.2864,-4.3381,-4.3855,-4.4278,-4.4229,-4.3943,-4.3443,-4.3644,-4.3388,-4.273,-4.1215,-3.9998,-3.8826,-3.548,-3.3134,0.0,0.0,0.0,0.0,0.0,0.0,0.0,0.0,0.0,0.0,0.0,0.0,0.0,0.0,0.0,0.0,0.0,0.0,0.0,0.0,0.0,0.0,0.0,0.0,0.0,0.0,0.0,0.0,0.0,0.0,0.0,0.0,0.0,0.0,0.0,0.0,0.0,-5.3822,-5.8453,0.0,-5.5992,-5.6904,-5.795,-5.8415,-6.0551,-6.2346,-6.3503,-6.4549,-6.5632,-6.6806,-6.6843,-6.7118,-6.7687,-6.7687,-6.7687,-6.7687,-6.7173,-6.6916,-6.688,-6.5558,-6.4787,-6.4475,-6.339,-6.1547,-5.9276,-5.9078,-5.706,-5.3914,-5.316,-5.2408,-5.158,-5.0497,-4.9727,-4.9291,0.0,0.0,0.0,0.0,0.0,0.0,0.0,0.0,0.0,0.0,0.0,-2.7232,-3.0529,-3.1916,-3.3418,-3.5348,-3.5306,-3.4805,-3.3941,0.0,0.0,0.0,0.0,0.0,0.0,-3.9192,-4.08,-4.1951,-4.2798,-4.3114,-4.2956,-4.2917,-4.2776,-4.2584,-4.2796,-4.2733,-4.2407,-4.1705,-4.0817,-3.9643,-3.6672,-3.4497,-3.2774,0.0,0.0,0.0,0.0,0.0,0.0,0.0,0.0,0.0,0.0,0.0,0.0,0.0,0.0,0.0,0.0,0.0,0.0,0.0,0.0,0.0,0.0,0.0,0.0,0.0,0.0,0.0,0.0,0.0,0.0,0.0,0.0,0.0,0.0,0.0,-5.8662,-5.5664,-6.0773,-6.2915,-5.8628,-6.0437,-6.1929,-6.2016,-6.4328,-6.5815,-6.6109,-6.7118,-6.7687,-6.7687,-6.7687,-6.7687,-6.7687,-6.7687,-6.754,-6.7283,-6.6751,-6.6366,-6.6054,-6.4695,-6.409,-6.4016,-6.2676,-6.1038,-5.924,-5.8328,-5.6445,-5.4098,-5.3593,-5.3387,-5.3208,-5.1514,-5.0771,-5.0471,0.0,0.0,0.0,0.0,0.0,0.0,0.0,0.0,0.0,0.0,-2.3934,-2.6134,-2.8972,-3.0923,-3.232,-3.3073,-3.2076,-3.1528,-3.1815,-3.1299,0.0,0.0,0.0,0.0,-3.7191,-3.9751,-4.1062,-4.1053,-4.1785,-4.2076,-4.1984,-4.1847,-4.1979,-4.2338,-4.2082,-4.1796,-4.1404,-4.0238,-3.9797,-3.9569,-3.6602,-3.5021,-3.4121,0.0,0.0,0.0,0.0,0.0,0.0,0.0,0.0,0.0,0.0,0.0,0.0,0.0,0.0,0.0,0.0,0.0,0.0,0.0,0.0,0.0,0.0,0.0,0.0,0.0,0.0,0.0,0.0,0.0,0.0,0.0,0.0,0.0,-5.2178,-5.6995,-5.9552,-5.7247,-6.2407,-6.4513,-6.0277,-6.2696,-6.4777,-6.5319,-6.6127,-6.6898,-6.765,-6.7705,-6.7724,-6.7687,-6.7687,-6.7687,-6.7687,-6.7687,-6.7283,-6.6494,-6.6476,-6.6035,-6.5246,-6.442,-6.4035,-6.3925,-6.1711,-5.998,-5.8563,-5.7105,-5.527,-5.3435,-5.3391,-5.3352,-5.3158,-5.1518,-5.0729,-5.0287,0.0,0.0,0.0,0.0,0.0,0.0,0.0,0.0,0.0,0.0,-2.3073,-2.5158,-2.8494,-2.9765,-3.0729,-3.1608,-3.1721,-3.1365,-3.0369,0.0,0.0,0.0,0.0,0.0,-3.7968,-3.9414,-4.0157,-4.0154,-4.0351,-4.0079,-3.9341,-3.9315,-3.908,-3.8746,-3.915,-3.8995,-3.84,-3.8205,-3.8312,-3.8408,-3.6325,-3.5382,-3.4955,0.0,0.0,0.0,0.0,0.0,0.0,0.0,0.0,0.0,0.0,0.0,0.0,0.0,0.0,0.0,0.0,0.0,0.0,0.0,0.0,0.0,0.0,0.0,0.0,0.0,0.0,0.0,0.0,0.0,0.0,0.0,0.0,-5.2806,-5.5018,-5.9483,-6.2563,-6.2575,-6.5543,-6.7062,-6.5878,-6.65,-6.6942,-6.7008,-6.7797,-6.8072,-6.7705,-6.8238,-6.8293,-6.7705,-6.7687,-6.7687,-6.7687,-6.7687,-6.7283,-6.6494,-6.5907,-6.5209,-6.4402,-6.3558,-6.2842,-6.2273,-6.2251,-6.077,-5.8351,-5.755,-5.5925,-5.3914,-5.3558,-5.3019,-5.2433,-5.1425,-5.0549,-4.9633,0.0,0.0,0.0,0.0,0.0,0.0,0.0,0.0,0.0,0.0,-2.2046,-2.3967,-2.6356,-2.7794,-2.8821,-2.9384,-2.9859,-2.9541,-2.823,0.0,0.0,0.0,0.0,-3.6598,-3.7609,-3.8636,-3.8829,-3.8166,-3.8181,-3.7682,-3.6703,-3.6675,-3.6636,-3.6604,-3.7091,-3.6967,-3.6423,-3.6496,-3.6675,-3.6702,-3.5228,-3.4988,-3.525,-3.2242,-3.0567,-2.9839,-2.9507,-2.9115,-2.8742,-2.8424,0.0,0.0,0.0,0.0,0.0,0.0,0.0,0.0,0.0,0.0,0.0,0.0,0.0,0.0,0.0,0.0,0.0,0.0,0.0,0.0,0.0,0.0,0.0,0.0,-5.1306,-5.5152,-5.8002,-6.1342,-6.3798,-6.4706,-6.6245,-6.737,-6.7598,-6.7534,-6.7546,-6.7704,-6.8128,-6.8183,-6.7705,-6.8128,-6.8183,-6.7705,-6.7687,-6.7687,-6.7687,-6.7687,-6.7118,-6.5999,-6.5521,-6.4512,-6.3025,-6.253,-6.1869,0.0,-6.1263,-6.0035,-5.7913,-5.728,-5.5537,0.0,0.0,0.0,0.0,0.0,-4.958,-4.8822,0.0,0.0,0.0,0.0,0.0,0.0,0.0,0.0,0.0,0.0,0.0,-2.2626,-2.3514,-2.5453,-2.6709,-2.6792,-2.7145,-2.7063,0.0,0.0,0.0,-3.1881,-3.3749,-3.5209,-3.6211,-3.7298,-3.7104,-3.5603,-3.5664,-3.5234,-3.4367,-3.4296,-3.4623,-3.5268,-3.5436,-3.5296,-3.4946,-3.4834,-3.478,-3.4702,-3.3634,-3.3955,-3.4787,-3.1898,-3.0608,-3.0226,-2.9639,-2.8692,-2.7879,-2.833,0.0,0.0,0.0,0.0,0.0,0.0,0.0,0.0,0.0,0.0,0.0,0.0,0.0,0.0,0.0,0.0,0.0,0.0,0.0,0.0,0.0,0.0,0.0,0.0,-5.4068,-5.7375,-6.0444,-6.2268,-6.3713,-6.4652,-6.5561,-6.6301,-6.6846,-6.6888,-6.7119,-6.7686,-6.7687,-6.7687,-6.7687,0.0,0.0,0.0,0.0,-6.7687,-6.7687,-6.7595,-6.6788,-6.5319,-6.5209,-6.3906,-6.1594,-6.1594,-6.1117,-6.0236,-5.9601,-5.8637,-5.7406,-5.6562,-5.4504,-5.1908,-5.1244,-5.1012,-5.0755,-4.9062,-4.8374,-4.8114,0.0,0.0,0.0,0.0,0.0,0.0,0.0,0.0,0.0,-1.8957,-1.9859,-2.115,-2.3018,-2.3709,-2.4288,-2.4942,-2.5659,-2.6551,0.0,0.0,-2.917,-3.1134,-3.2766,-3.3544,-3.3393,-3.45,-3.4617,-3.3726,-3.3743,-3.367,-3.3532,-3.3466,-3.3364,-3.3244,-3.308,-3.2895,-3.2693,-3.2463,-3.2581,-3.2785,-3.214,-3.2138,-3.2503,-3.1753,-3.0498,-2.9123,-2.9412,-2.9352,-2.8998,-2.8374,-2.8711,-2.9327,-2.9021,0.0,0.0,0.0,0.0,0.0,0.0,0.0,0.0,0.0,0.0,0.0,0.0,0.0,0.0,0.0,0.0,0.0,0.0,0.0,0.0,-5.1807,-5.4535,-5.7193,-5.9751,-6.1014,-6.2469,-6.4539,-6.5561,-6.6304,-6.6871,-6.6901,-6.7119,-6.7686,-6.7687,-6.7687,-6.7687,-6.7687,-6.7687,-6.7687,-6.7687,-6.7687,-6.7687,-6.7063,-6.6256,-6.5301,0.0,0.0,-6.1594,-6.1594,-6.0805,-5.9483,-5.996,-5.9047,-5.7067,-5.5919,-5.3467,-5.0424,-5.0287,-5.0194,-5.009,-4.8836,-4.8377,-4.8114,0.0,0.0,0.0,0.0,0.0,0.0,0.0,0.0,0.0,0.0,-1.8812,-1.9814,-2.1346,-2.1911,-2.2421,-2.2939,-2.3659,0.0,0.0,-2.7247,-2.8265,-3.0107,-3.1477,-3.2137,-3.1996,-3.2953,-3.3087,-3.2355,-3.2486,-3.2355,-3.1992,-3.1968,-3.2064,-3.2297,-3.2294,-3.2289,-3.2279,-3.2092,-3.1794,-3.1398,-3.0631,-3.0116,-2.9756,-3.0168,-2.9331,-2.8008,-2.8195,-2.8035,-2.7806,-2.7985,-2.8416,-2.903,-2.9608,-3.0297,-3.1013,0.0,0.0,0.0,0.0,0.0,0.0,0.0,0.0,0.0,0.0,0.0,0.0,0.0,0.0,-4.5026,0.0,0.0,-5.1528,-5.394,-5.6273,-5.8331,-5.9974,-6.1087,-6.2189,-6.3461,-6.3981,-6.48,-6.6131,-6.6468,-6.692,-6.763,-6.7943,-6.7961,-6.7687,-6.7687,-6.7687,-6.7687,-6.7337,-6.7116,-6.7116,-6.6292,-6.5503,-6.4695,-6.3851,-6.2585,-6.0988,-6.0584,-5.974,-5.8602,-5.8584,-5.7802,-5.6346,-5.4367,-5.235,-5.0524,-5.0114,-5.0011,-4.9815,-4.8449,-4.7905,-4.7609,0.0,0.0,0.0,0.0,0.0,0.0,0.0,0.0,0.0,0.0,0.0,-1.8465,-1.9175,-1.9917,-2.0516,0.0,0.0,0.0,0.0,-2.5735,-2.6902,-2.8785,-2.9728,-3.0378,-3.0674,-3.1505,-3.1675,-3.113,-3.1407,-3.1254,-3.0693,-3.0683,-3.104,-3.1642,-3.1795,-3.1902,-3.1992,-3.1744,-3.1093,-3.0187,-2.9343,-2.8388,-2.7533,-2.8189,-2.7773,-2.6863,-2.6871,-2.6392,-2.5937,-2.7046,-2.7702,-2.8211,-2.9531,-3.046,-3.1087,-3.1315,-3.1951,0.0,0.0,0.0,0.0,0.0,0.0,0.0,0.0,0.0,-4.1887,-4.3828,-4.5423,-4.7259,-4.9805,-5.1732,-5.3647,-5.5895,-5.7698,-5.9193,-6.0228,-6.1026,-6.1653,-6.2095,-6.2431,-6.3333,-6.5207,-6.5986,-6.6795,-6.7682,-6.8136,-6.8215,-6.7869,-6.7724,-6.7687,-6.7687,-6.6914,-6.6507,-6.6522,-6.5555,-6.4751,-6.409,-6.3062,-6.1814,-6.0382,-5.9575,-5.8767,-5.796,-5.7161,-5.6207,-5.5144,-5.2963,-5.1637,-5.0824,-5.0241,-4.9907,-4.9614,-4.8065,-4.7381,-4.7028,0.0,0.0,0.0,0.0,0.0,0.0,0.0,0.0,0.0,0.0,0.0,0.0,0.0,0.0,0.0,0.0,0.0,0.0,-2.3528,-2.3724,-2.4759,-2.6906,-2.7058,-2.7403,-2.8106,-2.9064,-2.9664,-2.9817,-3.0139,-3.0452,-3.0697,-3.0641,-3.0662,-3.0728,-3.0402,-3.0259,-3.0249,-2.9554,-2.9145,-2.8884,-2.8446,-2.7953,-2.7335,-2.6611,-2.606,-2.573,-2.6208,-2.571,-2.4856,-2.5468,-2.6102,-2.6773,-2.7602,-2.8886,-3.0064,-2.9542,0.0,-3.1065,-3.0245,-3.1957,-3.4497,-3.6809,-3.837,-3.994,0.0,0.0,-4.5142,-4.6415,-4.8827,-5.0822,-5.1193,-5.2821,-5.4678,-5.6422,-5.7167,-5.8059,-5.9649,-5.9322,-5.946,-6.1001,-6.2476,-6.3705,-6.4535,-6.5974,-6.7115,-6.7809,-6.8222,-6.8388,-6.8309,-6.7943,-6.7687,-6.7687,-6.6948,-6.65,-6.6487,-6.5014,-6.4182,-6.4071,-6.2493,-6.1263,-6.0382,-5.9575,-5.8767,-5.796,-5.7152,-5.54,-5.3095,-5.2832,-5.1686,-5.0097,-5.0028,-4.9579,-4.8798,-4.7729,-4.7307,-4.7028,0.0,0.0,0.0,0.0,0.0,0.0,0.0,0.0,0.0,0.0,0.0,0.0,0.0,0.0,0.0,0.0,0.0,0.0,-2.1988,-2.2526,-2.3644,-2.5586,-2.5371,-2.5661,-2.6622,-2.7374,-2.8037,-2.8662,-2.9266,-2.9726,-3.0074,-3.0472,-3.0879,-3.1241,-3.1229,-3.1313,-3.1372,-3.0328,-2.9707,-2.9312,-2.7828,-2.708,-2.6715,-2.5416,-2.4504,-2.3892,-2.3678,-2.3542,0.0,0.0,-2.4623,-2.5781,-2.6762,-2.7954,-2.8943,-2.8388,-2.931,0.0,-3.2077,-3.376,-3.553,-3.7188,-3.9103,-4.0976,-4.2135,-4.3891,-4.569,-4.7166,-4.9312,-5.108,-5.1566,-5.3203,-5.495,0.0,-5.7427,-5.8529,-5.9234,-5.9187,-5.9163,-5.9412,-6.0903,-6.2601,-6.4289,-6.5308,-6.6201,-6.7011,-6.7481,-6.7485,-6.6967,-6.6753,-6.6571,-6.6298,-6.5543,-6.5096,-6.5096,-6.3952,-6.3117,-6.2622,-6.1465,-6.0493,-5.9685,-5.8877,-5.7813,-5.6547,-5.5757,-5.4292,-5.2546,-5.2546,-5.1467,-4.9756,-4.9756,-4.9101,-4.8075,-4.7709,-4.7129,-4.6413,0.0,0.0,0.0,0.0,0.0,0.0,0.0,0.0,0.0,0.0,0.0,0.0,0.0,0.0,0.0,0.0,0.0,0.0,0.0,-2.0785,-2.2068,-2.3518,-2.3584,0.0,-2.492,-2.5695,-2.6436,-2.7134,-2.8158,-2.8819,-2.9108,-3.0027,-3.0711,-3.119,-3.1574,-3.1713,-3.1573,-3.0473,-2.9641,-2.8914,-2.6976,-2.6016,-2.5656,-2.4204,-2.3148,-2.2336,-2.1755,-2.1706,0.0,0.0,-2.2954,-2.44,-2.5526,-2.6701,-2.761,-2.74,-2.8627,-3.0569,-3.3148,-3.5011,-3.6577,-3.8009,-4.0438,-4.2551,-4.293,-4.4429,-4.6172,-4.7694,-4.9029,-5.0196,-5.1279,-5.2942,-5.4591,-5.593,-5.7633,-5.8872,-5.9102,-5.9163,-5.8954,-5.8377,-5.9165,-6.0693,-6.3122,-6.4291,-6.528,-6.6182,-6.6606,-6.6691,-6.6286,-6.6036,-6.5765,-6.5453,-6.4555,-6.4108,-6.4112,-6.3259,-6.2401,-6.1575,-6.0786,-5.9997,-5.9189,-5.8143,-5.6785,-5.5225,-5.4638,-5.3407,-5.186,-5.186,-5.0749,-4.9099,-4.9099,-4.8394,-4.7407,-4.7407,-4.6863,-4.5969,0.0,0.0,0.0,0.0,0.0,0.0,0.0,0.0,0.0,0.0,0.0,0.0,0.0,0.0,0.0,0.0,0.0,0.0,0.0,-1.7977,-1.9532,-2.0297,-2.1377,-2.2161,-2.2486,-2.3912,-2.4735,-2.4889,-2.6536,-2.7531,-2.788,-2.9213,-2.9832,-2.9892,-3.0554,-3.0337,-2.9462,-2.8765,-2.7761,-2.6617,-2.5791,-2.4844,-2.3864,-2.284,-2.2009,-2.142,-2.118,0.0,0.0,0.0,-2.1171,-2.2227,-2.34,-2.4682,0.0,-2.6433,-2.8,-2.9978,-3.2167,-3.4553,-3.713,-3.9729,-4.2465,-4.4825,-4.5988,-4.6546,-4.7241,-4.8581,-4.846,-4.8596,-5.0322,-5.1802,-5.3582,-5.6064,-5.7522,-5.8585,-5.9373,-5.8819,-5.8338,-5.83,-5.7588,-5.8062,0.0,-6.2954,-6.4728,-6.5465,-6.5851,-6.6375,-6.7114,-6.6362,-6.5893,-6.5865,-6.4733,-6.4112,-6.4112,-6.3259,-6.2401,-6.1575,-6.0786,-5.9997,-5.9171,-5.7574,-5.5959,-5.4436,-5.4418,-5.2881,-5.0472,-5.0472,-4.9395,-4.7751,-4.7751,-4.7303,-4.6648,-4.6648,-4.6433,-4.5969,0.0,0.0,0.0,0.0,0.0,0.0,0.0,0.0,0.0,0.0,0.0,0.0,0.0,0.0,0.0,0.0,0.0,0.0,0.0,-1.5813,-1.6753,-1.7947,-1.8043,-1.845,-1.9233,-2.0175,-2.0992,-2.1642,-2.304,-2.4048,-2.4779,-2.6465,-2.7705,-2.8522,-2.945,-2.9589,-2.9008,-2.7137,-2.6083,-2.5479,-2.3319,-2.2499,-2.2455,-2.0641,-2.0112,-2.0139,0.0,0.0,0.0,-2.0233,-2.0797,-2.1626,-2.2339,-2.3139,-2.4205,-2.597,-2.8152,-3.0575,-3.3014,-3.5463,-3.7857,-4.0288,-4.1973,-4.322,-4.4122,-4.4839,-4.5552,-4.6411,-4.6124,-4.6166,-4.756,-4.8823,-5.0675,-5.3804,-5.6133,-5.8066,-5.9514,-5.9531,-5.8966,-5.7718,-5.8336,0.0,0.0,0.0,0.0,-6.446,-6.4215,-6.4432,-6.5551,-6.5309,-6.5022,-6.4706,-6.4039,-6.3724,-6.3724,-6.2572,-6.1594,-6.0786,-5.8914,-5.7593,-5.6767,-5.5702,-5.4913,-5.4344,-5.3261,-5.2304,-5.1442,-5.0889,-4.9613,-4.7996,-4.7996,-4.7105,-4.582,-4.582,-4.5696,-4.5466,0.0,0.0,0.0,0.0,0.0,0.0,0.0,0.0,0.0,0.0,0.0,0.0,0.0,0.0,0.0,0.0,0.0,0.0,0.0,0.0,-1.4124,-1.5174,-1.5097,-1.5308,-1.6019,-1.6699,-1.7307,-1.7849,-1.9403,-2.047,-2.1054,-2.2367,-2.2978,-2.2929,-2.3165,-2.2652,-2.1573,-2.0623,-2.0256,-2.022,-1.9254,-1.913,-1.9315,-1.8151,-1.797,0.0,0.0,0.0,0.0,-1.9937,-2.0395,-2.1162,-2.2032,-2.3192,-2.4576,-2.6502,-2.905,-3.1826,-3.4369,-3.6946,-3.9412,-4.1439,-4.2709,-4.3529,-4.3689,-4.3996,-4.4312,-4.4482,-4.3849,-4.3718,-4.5252,-4.6455,-4.8274,-5.1447,-5.4175,-5.6501,-5.8244,-5.8819,-5.8731,-5.7847,-5.8966,-5.9611,0.0,0.0,0.0,-6.3093,-6.3331,-6.3719,-6.4524,-6.4704,-6.4674,-6.4359,-6.3779,-6.3345,-6.3066,-6.2113,-6.0915,-5.952,-5.7685,-5.6235,-5.5133,-5.4638,-5.4087,-5.3482,-5.2435,-5.1564,-5.0793,-5.0138,-4.8874,-4.7423,-4.7232,-4.6407,-4.5423,-4.5423,-4.5146,-4.478,0.0,0.0,0.0,0.0,0.0,0.0,0.0,0.0,0.0,0.0,0.0,0.0,0.0,0.0,0.0,0.0,0.0,0.0,0.0,0.0,0.0,-1.1936,-1.2455,-1.2708,-1.2708,-1.3404,-1.373,-1.375,-1.5717,-1.6688,-1.6688,-1.7008,-1.602,-1.388,-1.2555,-1.0584,-0.8376,-0.9981,-1.0843,-1.1355,-1.3697,-1.4647,-1.4778,-1.5406,0.0,0.0,0.0,0.0,0.0,-1.9516,-2.008,-2.1034,-2.2536,-2.4641,-2.6729,-2.7951,-3.057,-3.355,-3.5972,-3.8775,-4.1346,-4.29,-4.4421,-4.5315,-4.4491,-4.395,-4.3471,-4.2883,-4.1635,-4.1283,0.0,0.0,-4.6472,-4.9246,-5.1981,-5.4343,-5.6065,-5.7088,-5.7968,0.0,0.0,0.0,0.0,0.0,0.0,-6.1564,0.0,-6.4114,-6.4248,-6.4633,-6.481,-6.4772,-6.3956,-6.3115,-6.2271,-6.1753,-6.0272,-5.7868,-5.7097,-5.5868,-5.4271,-5.4271,-5.3408,-5.194,-5.1885,-5.0744,-4.8786,-4.829,-4.7382,-4.6186,-4.5667,-4.5476,-4.5423,-4.5423,-4.4783,-4.404,0.0,0.0,0.0,0.0,0.0,0.0,0.0,0.0,0.0,0.0,0.0,0.0,0.0,0.0,0.0,0.0,0.0,0.0,0.0,0.0,0.0,0.0,0.0,0.0,0.0,0.0,0.0,0.0,0.0,-1.1199,-1.1363,-1.148,-1.1218,0.0,-0.9383,-0.7992,-0.6456,-0.5117,-0.5448,-0.6865,0.0,-0.8992,-1.1898,0.0,0.0,0.0,0.0,0.0,0.0,-1.9933,-2.1918,-2.4055,-2.4764,-2.639,-2.8296,-2.9674,-3.1706,-3.3986,-3.6237,-3.8222,-3.9986,-4.1304,-4.1933,-4.2047,-4.1451,-4.1315,-4.1008,-3.9815,-3.8918,-3.8765,0.0,0.0,0.0,-4.914,-5.3107,0.0,-5.8831,-6.0543,0.0,-6.0848,0.0,-6.2679,-6.2047,-6.2741,0.0,0.0,-6.2487,-6.3083,-6.4993,-6.5168,-6.4965,-6.4355,-6.3811,-6.2975,-6.1855,-6.0488,-5.8602,-5.6198,-5.5996,-5.4748,-5.2601,-5.2601,-5.205,-5.1077,-5.0453,-4.99,-4.934,-4.8561,-4.7662,-4.6724,-4.6584,-4.607,-4.5423,-4.5423,-4.4888,-4.4216,0.0,0.0,0.0,0.0,0.0,0.0,0.0,0.0,0.0,0.0,0.0,0.0,0.0,0.0,0.0,0.0,0.0,0.0,0.0,0.0,0.0,0.0,0.0,0.0,0.0,0.0,0.0,0.0,0.0,0.0,0.0,-0.5815,-0.4748,-0.3704,-0.0894,0.1426,0.3325,0.0,0.0,0.0,0.0,0.0,0.0,0.0,0.0,0.0,0.0,0.0,0.0,0.0,-2.5733,-2.6992,-2.7535,-2.9046,-3.0851,-3.2332,-3.4018,-3.5845,-3.7907,-3.9216,-4.0242,-4.1266,-4.1392,-4.0966,-3.9863,-3.9816,-3.9575,-3.8127,-3.7678,-3.791,-3.9116,-4.1222,-4.384,0.0,0.0,0.0,-5.768,-6.0255,-6.1925,0.0,-6.3583,0.0,-6.3683,-6.4304,-6.4632,0.0,-6.371,-6.3732,-6.4821,-6.4859,-6.4668,-6.4191,-6.3389,-6.2295,-6.0874,-5.9239,-5.7468,-5.5592,-5.5225,-5.3977,-5.1995,-5.1995,-5.1353,-5.0251,0.0,-4.937,-4.8985,-4.8276,-4.7567,-4.6863,-4.6678,-4.6119,-4.5423,-4.5423,-4.4682,-4.3735,0.0,0.0,0.0,0.0,0.0,0.0,0.0,0.0,0.0,0.0,0.0,0.0,0.0,0.0,0.0,0.0,0.0,0.0,0.0,0.0,0.0,0.0,0.0,0.0,0.0,0.0,0.0,0.0,0.0,0.0,0.0,0.0,0.0,0.0,0.0,0.0,0.0,0.0,0.0,0.0,0.0,0.0,0.0,0.0,0.0,0.0,0.0,0.0,0.0,0.0,-2.9972,-2.9807,-3.0647,-3.2106,-3.3855,-3.5457,-3.6837,-3.8264,-4.0154,-4.0881,-4.1296,-4.2041,-4.1736,-4.0866,-3.9231,-3.879,-3.8308,-3.6955,-3.6957,-3.7525,-3.8698,-4.049,-4.2505,-4.4727,0.0,-5.2269,-5.5211,-5.8378,-6.1095,-6.2945,-6.4455,-6.5319,-6.525,-6.5066,-6.5122,-6.5495,-6.5287,-6.4842,-6.421,-6.4076,-6.3923,-6.3694,-6.2439,-6.107,-5.9495,-5.7959,-5.6659,-5.5496,-5.4755,-5.35,-5.183,-5.183,-5.0949,-4.9426,-4.9426,0.0,-4.8267,-4.7856,-4.7378,-4.6863,-4.6459,-4.5955,-4.5406,-4.5303,-4.4337,-4.3099,0.0,0.0,0.0,0.0,0.0,0.0,0.0,0.0,0.0,0.0,-1.3058,-1.2073,0.0,0.0,0.0,0.0,0.0,0.0,0.0,0.0,0.0,0.0,0.0,0.0,0.0,0.0,0.0,0.0,0.0,0.0,0.0,0.0,0.0,0.0,0.0,0.0,0.0,0.0,0.0,0.0,0.0,0.0,0.0,0.0,0.0,0.0,0.0,0.0,0.0,0.0,-3.1247,-3.233,-3.3698,-3.4889,-3.6221,-3.8133,-3.8883,-3.9507,-4.15,-4.1931,-4.1927,-4.2291,-4.0945,-3.9359,-3.8799,-3.7052,0.0,-3.4684,-3.4758,-3.5271,-3.625,-3.8488,-4.1465,-4.5358,-4.8415,-5.1957,-5.6632,-5.9078,-6.1281,0.0,-6.4918,-6.5549,-6.5523,-6.5309,0.0,0.0,0.0,-6.3751,-6.4182,-6.3522,-6.249,-6.1096,-5.9828,-5.8703,-5.7725,-5.678,-5.5909,-5.5032,-5.4588,-5.3206,-5.1004,-5.1004,-5.0105,-4.8526,-4.8526,0.0,-4.8306,-4.821,-4.7692,-4.6908,-4.6817,-4.6217,-4.5354,-4.4716,-4.3923,-4.3095,0.0,0.0,0.0,0.0,0.0,0.0,0.0,0.0,-1.6409,-1.6294,-1.5793,-1.4803,-1.302,-1.2671,0.0,0.0,0.0,0.0,0.0,0.0,0.0,0.0,0.0,0.0,0.0,0.0,0.0,0.0,0.0,0.0,0.0,0.0,0.0,0.0,0.0,0.0,0.0,0.0,0.0,0.0,0.0,0.0,0.0,0.0,0.0,0.0,0.0,0.0,0.0,0.0,-3.2948,-3.3983,-3.5037,-3.6426,-3.7928,-3.9297,-4.0321,-4.1304,-4.2667,-4.2934,-4.2748,-4.2431,-4.0887,-3.918,-3.8123,-3.6368,-3.4883,-3.463,-3.4839,-3.5344,-3.6261,-3.8629,-4.1241,-4.3755,-4.7092,-5.0874,-5.5167,-5.8055,-6.0846,-6.389,-6.4643,-6.5097,-6.5565,-6.504,-6.4442,-6.3896,0.0,-6.2598,-6.3625,-6.2357,-6.0828,-5.9147,-5.8511,-5.7897,-5.7296,-5.6286,-5.5305,-5.4257,-5.3506,-5.2105,-5.0178,-5.0178,-4.9481,-4.8306,-4.8306,0.0,-4.8306,-4.8306,-4.7733,-4.6873,-4.6444,-4.5681,-4.4734,-4.3975,-4.3266,-4.2509,0.0,0.0,0.0,0.0,0.0,0.0,0.0,-1.6951,-1.7436,-1.7986,-1.8124,-1.7487,-1.5726,-1.4412,-1.3476,0.0,0.0,0.0,0.0,0.0,0.0,0.0,0.0,0.0,0.0,0.0,0.0,0.0,0.0,0.0,0.0,0.0,0.0,0.0,0.0,0.0,0.0,0.0,0.0,0.0,0.0,0.0,0.0,0.0,0.0,0.0,0.0,0.0,0.0,0.0,-3.3686,-3.4305,-3.4867,-3.683,-3.9065,-3.9926,-4.137,-4.2865,-4.3618,-4.3897,-4.3792,-4.2976,-4.1271,-3.9421,-3.7983,-3.6176,-3.492,-3.5172,-3.5328,-3.5702,-3.6593,-3.8647,-4.0656,0.0,-4.5294,-4.9118,-5.3366,-5.6434,-5.9622,-6.3282,-6.3906,0.0,-6.4726,-6.4099,0.0,-6.2903,0.0,0.0,-6.2074,-6.0671,-5.9166,-5.7676,-5.7619,-5.7395,-5.6907,-5.5686,-5.4565,-5.3554,-5.2412,-5.1048,-4.9591,-4.9591,-4.9114,-4.8306,-4.8306,0.0,0.0,-4.8049,-4.7429,-4.6471,-4.5721,-4.4947,-4.4075,-4.3232,-4.2526,-4.194,0.0,0.0,0.0,0.0,0.0,0.0,0.0,-1.7678,-1.8519,-1.8513,-1.9055,-1.9335,-1.8997,-1.7106,-1.5212,0.0,0.0,0.0,0.0,0.0,0.0,0.0,0.0,0.0,0.0,0.0,0.0,-0.3834,-0.2961,0.0,0.0,0.0,0.0,0.0,0.0,0.0,0.0,0.0,0.0,0.0,0.0,0.0,0.0,0.0,0.0,0.0,0.0,0.0,0.0,0.0,-3.1856,-3.2305,-3.2531,-3.5675,-3.9458,-4.044,-4.1965,-4.348,-4.4287,-4.4852,-4.5086,-4.4457,-4.2027,-3.9675,-3.9224,-3.6469,-3.4323,-3.5433,-3.5047,-3.4814,-3.5812,-3.6852,-3.8584,-4.1774,-4.3356,-4.6425,-5.2921,-5.4828,-5.7115,-6.1349,0.0,0.0,-6.213,-6.1988,0.0,-5.9579,0.0,0.0,-5.8577,-5.8279,-5.7695,-5.674,-5.6721,-5.6358,-5.558,-5.4335,-5.3497,-5.3136,-5.1951,-5.073,-4.9591,-4.9591,-4.9114,-4.8306,-4.8306,0.0,0.0,-4.7223,-4.646,-4.5332,-4.4832,-4.4271,-4.368,-4.2566,-4.2043,-4.1785,0.0,0.0,0.0,0.0,0.0,0.0,0.0,-1.7847,-1.8485,-1.9137,-1.9413,-1.9505,-1.9383,-1.825,-1.7005,0.0,0.0,0.0,0.0,0.0,0.0,0.0,0.0,0.0,0.0,0.0,0.0,-0.5564,-0.5132,0.0,0.0,0.0,0.0,0.0,0.0,0.614,0.0,0.0,0.0,0.0,0.0,0.0,0.0,0.0,0.0,0.0,0.0,0.0,-3.1455,-3.1651,-3.1713,-3.1787,-3.2327,-3.4661,0.0,-3.8824,-4.1172,-4.3514,-4.4362,-4.514,-4.5382,-4.4053,-4.1615,-3.9396,-3.8742,-3.628,-3.4446,-3.5549,-3.5093,-3.4804,-3.5723,-3.7031,-3.8598,-4.0482,0.0,0.0,-4.9413,-5.1208,-5.3874,-5.8733,-5.964,0.0,0.0,0.0,-5.9973,0.0,0.0,0.0,-5.6059,-5.679,-5.683,-5.5899,-5.588,-5.5479,-5.4639,-5.3907,-5.3005,-5.1903,-5.0953,-5.0008,-4.9104,-4.8917,-4.8361,-4.759,-4.759,0.0,0.0,-4.6379,-4.5897,-4.512,-4.4169,-4.3536,-4.2987,-4.1769,-4.1026,-4.0526,0.0,0.0,0.0,0.0,0.0,-1.7649,-1.7982,-1.8277,-1.8845,-1.9764,-1.9946,-2.0024,-1.9941,-1.9587,-1.9028,-1.8223,0.0,0.0,0.0,0.0,0.0,0.0,0.0,0.0,0.0,0.0,0.0,-0.8051,-0.8117,-0.7812,0.0,0.0,-0.3802,-0.2317,0.0,0.0,0.0,0.0,0.0,0.0,0.0,0.0,0.0,0.0,0.0,0.0,0.0,0.0,0.0,0.0,0.0,-3.15,0.0,0.0,0.0,0.0,-4.0018,-4.2714,-4.3345,-4.4325,-4.4832,-4.3313,-4.1175,-3.9204,-3.836,-3.6366,-3.4923,-3.5651,-3.5342,-3.5149,-3.5776,-3.7311,-3.8785,0.0,0.0,-4.4504,-4.7135,-4.8962,-5.1676,-5.6128,0.0,-5.7851,0.0,-5.9363,-5.8114,0.0,0.0,0.0,-5.4374,-5.548,-5.5922,-5.5422,-5.5154,-5.4715,-5.4104,-5.3362,-5.2342,-5.096,-5.0169,-4.9389,-4.8658,-4.8144,-4.7645,-4.7113,-4.6874,0.0,0.0,-4.5553,-4.513,-4.4415,-4.344,-4.2782,-4.2198,-4.099,-4.0181,-3.9629,0.0,0.0,0.0,0.0,0.0,0.0,0.0,-1.923,-1.9893,-2.0399,-2.097,-2.1248,-2.126,-2.1607,-2.1351,-2.0086,0.0,0.0,0.0,0.0,0.0,0.0,0.0,0.0,0.0,0.0,-1.224,-1.1556,-1.2075,-1.202,-1.1342,-1.0792,-0.9725,-0.819,0.0,0.0,0.0,0.0,0.0,0.0,0.0,0.0,0.0,0.0,0.0,0.0,0.0,0.0,0.0,0.0,0.0,0.0,0.0,0.0,0.0,0.0,-3.8607,-4.0928,-4.0929,-4.2207,-4.3339,-4.2506,-4.0898,-3.9286,-3.8479,-3.6945,-3.571,-3.5774,-3.5786,-3.581,-3.5893,-3.7315,-3.8783,-3.966,-4.1939,0.0,-4.7138,-4.8993,-5.1045,0.0,0.0,-5.5547,-5.6375,-5.5723,0.0,0.0,0.0,0.0,-5.3573,-5.422,-5.4863,-5.5365,-5.4562,-5.4104,-5.4104,-5.2461,-5.1266,-5.0592,-4.9715,-4.8967,-4.8288,-4.7498,-4.7131,0.0,0.0,0.0,0.0,-4.4727,-4.4017,-4.288,-4.2396,-4.1924,-4.1358,-4.0158,-3.9698,-3.9491,0.0,0.0,0.0,0.0,0.0,0.0,0.0,-1.9121,-1.9559,-2.0489,-2.1063,-2.1704,-2.2518,-2.2985,-2.3204,-2.3071,0.0,0.0,0.0,0.0,0.0,0.0,0.0,0.0,0.0,0.0,-1.4655,-1.4552,-1.6039,-1.7233,-1.8142,-1.6697,-1.6287,-1.6597,-1.2901,0.0,0.0,0.0,0.0,0.0,0.0,0.0,0.0,0.0,0.0,0.0,0.0,0.0,0.0,0.0,0.0,0.0,0.0,0.0,0.0,0.0,0.0,-3.8838,-3.9754,-4.045,-4.0837,-4.0582,-3.9187,-3.7793,-3.7545,-3.6582,-3.5806,-3.5909,-3.6367,-3.6597,-3.6071,-3.8336,-4.0379,-4.0649,-4.3324,0.0,0.0,0.0,0.0,-5.1205,-5.4132,-5.5972,0.0,0.0,0.0,0.0,0.0,0.0,-5.0998,-5.2219,-5.3179,-5.368,-5.3383,-5.2957,-5.2403,-5.1868,-5.1179,-5.0399,-4.9644,-4.8909,-4.8143,-4.7407,-4.6507,0.0,0.0,0.0,0.0,-4.3644,-4.3006,-4.1663,-4.174,-4.0874,-3.9518,-3.8859,-3.7748,-3.6559,0.0,0.0,0.0,0.0,0.0,0.0,0.0,-1.9571,-1.985,-2.0553,-2.1641,-2.2628,-2.3369,-2.4749,-2.558,-2.5512,0.0,0.0,0.0,0.0,0.0,0.0,0.0,0.0,0.0,-1.6872,-1.7936,-1.8214,-2.027,-2.2051,-2.3493,-2.2698,-2.2868,-2.3649,-2.0318,0.0,0.0,0.0,0.0,0.0,0.0,0.0,-2.9599,0.0,0.0,0.0,0.0,0.0,0.0,0.0,0.0,0.0,0.0,0.0,0.0,0.0,-3.5301,-3.6635,-3.8113,-3.8831,-3.9178,-3.9199,-3.8173,-3.7145,-3.7136,-3.6476,-3.5894,-3.5975,-3.6394,-3.6699,-3.6513,-3.8759,-4.073,-4.1058,-4.37,-4.5635,0.0,0.0,0.0,-5.093,0.0,0.0,0.0,0.0,0.0,0.0,0.0,0.0,-4.9429,-5.0868,-5.1537,-5.1101,-5.1622,-5.1644,-5.1147,-5.0493,-4.9835,-4.9167,-4.8729,-4.8179,-4.7448,-4.6712,-4.5752,0.0,0.0,0.0,0.0,-4.2506,-4.1708,-4.0388,-4.0635,-3.9606,-3.7919,-3.74,-3.6359,-3.5145,0.0,0.0,0.0,0.0,0.0,0.0,0.0,0.0,0.0,-2.0848,-2.271,-2.4085,-2.422,-2.6804,-2.8248,-2.7541,0.0,0.0,0.0,0.0,0.0,0.0,0.0,0.0,0.0,-2.0712,-2.182,-2.2402,-2.4567,-2.6336,-2.7697,-2.8685,-2.9331,-2.9571,-2.7549,-2.6392,-2.5857,-2.4941,-2.5608,-2.7456,-2.8459,-3.0135,0.0,0.0,0.0,0.0,0.0,0.0,0.0,0.0,0.0,0.0,0.0,0.0,0.0,0.0,0.0,0.0,0.0,-3.7308,-3.8092,-3.8185,-3.7656,-3.7123,-3.7182,-3.6576,0.0,-3.6071,-3.612,-3.6426,-3.7237,-3.8857,-4.0344,-4.1147,-4.3426,-4.5382,0.0,-4.7835,0.0,0.0,-5.3225,0.0,-5.3546,0.0,0.0,0.0,0.0,0.0,-4.8651,-4.9936,-4.9918,-4.8073,-4.9335,-5.0128,-5.0199,-4.8605,-4.7624,-4.7321,-4.7238,-4.6883,-4.6234,-4.5398,-4.4776,0.0,0.0,0.0,0.0,-4.1295,-4.0203,-3.9025,-3.9134,-3.8133,-3.6566,-3.5826,-3.5314,-3.4893,0.0,0.0,0.0,0.0,0.0,0.0,0.0,0.0,0.0,0.0,-2.4464,-2.5762,-2.7376,-2.867,-2.9735,0.0,0.0,0.0,0.0,0.0,0.0,0.0,0.0,0.0,0.0,-2.3676,-2.5007,-2.6038,-2.8207,-3.0599,-3.3162,-3.3653,-3.4593,-3.5707,-3.3194,-3.1239,-2.9851,-2.9807,-3.0202,-3.0795,-3.1481,-3.2203,0.0,0.0,0.0,0.0,-3.3431,-3.3524,0.0,0.0,0.0,0.0,0.0,0.0,0.0,0.0,-3.4321,-3.4567,-3.5171,0.0,-3.5999,-3.6327,-3.6352,-3.6438,0.0,-3.6579,-3.6169,-3.6793,-3.7457,-3.7987,-3.8174,-4.0727,-4.285,-4.306,-4.5277,-4.703,-4.7182,0.0,0.0,-5.1537,-5.2382,-5.2114,-5.02,0.0,0.0,0.0,0.0,-4.8131,-4.678,-4.7693,-4.7941,-4.7279,-4.697,-4.7318,-4.8414,-4.8009,-4.7754,-4.7671,-4.679,-4.5851,-4.4813,-4.3762,-4.2464,0.0,0.0,0.0,-3.8689,-3.9753,-3.8902,-3.7101,-3.8345,-3.7271,-3.5008,-3.4563,-3.3794,-3.2911,0.0,0.0,0.0,0.0,0.0,0.0,0.0,0.0,0.0,0.0,0.0,0.0,0.0,0.0,0.0,0.0,0.0,0.0,0.0,0.0,0.0,0.0,0.0,0.0,-2.5247,-2.6451,-2.7712,-2.9009,-3.1216,-3.3822,-3.6794,-3.7559,-3.8611,-3.9721,-3.7375,-3.5191,-3.3278,-3.377,-3.3808,-3.3552,-3.3622,0.0,0.0,0.0,0.0,0.0,-3.3854,-3.3891,0.0,-3.3634,-3.3652,-3.3807,0.0,0.0,0.0,0.0,-3.4087,-3.4354,-3.5122,-3.5594,-3.604,-3.6687,-3.6962,-3.7298,-3.82,-3.7741,-3.716,-3.7186,-3.8209,-3.9099,-3.9107,-4.1628,-4.3833,-4.4231,-4.5828,0.0,0.0,0.0,-5.0414,-5.1291,-5.1424,-5.0896,0.0,0.0,0.0,0.0,0.0,-4.7357,-4.5674,-4.6365,-4.6383,-4.5429,-4.4892,-4.5295,-4.6738,-4.5912,-4.5509,-4.5507,-4.4878,-4.418,-4.3403,-4.2679,-4.1508,0.0,0.0,0.0,-3.7533,-3.8028,-3.7239,-3.5789,-3.667,-3.5672,-3.3692,-3.3502,-3.2857,-3.202,0.0,0.0,0.0,0.0,0.0,0.0,0.0,0.0,0.0,0.0,0.0,0.0,0.0,0.0,0.0,0.0,0.0,0.0,0.0,0.0,0.0,0.0,0.0,-2.8467,-2.8716,-2.9182,-3.0203,-3.1813,-3.3864,-3.6355,-3.9245,-4.054,-4.1358,-4.1663,-4.0009,-3.8015,-3.594,-3.6615,-3.6479,-3.5775,-3.5231,0.0,0.0,0.0,0.0,0.0,0.0,0.0,0.0,-3.4068,-3.3925,-3.3807,-3.386,0.0,0.0,0.0,0.0,0.0,-3.5464,-3.6464,-3.7363,-3.8092,-3.8363,-3.8742,-3.9867,0.0,0.0,0.0,0.0,-3.9825,-3.9972,-4.1905,0.0,-4.4836,0.0,0.0,-4.8786,-4.963,-5.0321,-5.0926,-5.0344,0.0,0.0,0.0,0.0,0.0,0.0,-4.7265,-4.5102,-4.5596,-4.5189,-4.3557,-4.3267,-4.3737,-4.4939,-4.354,-4.2814,-4.2814,-4.2545,-4.2252,-4.1916,-4.1418,-4.06,0.0,0.0,0.0,-3.6872,-3.6321,-3.5587,-3.4825,-3.4935,-3.4175,-3.2952,-3.2702,-3.2276,-3.167,0.0,0.0,0.0,0.0,0.0,0.0,0.0,0.0,0.0,0.0,0.0,0.0,0.0,0.0,0.0,0.0,0.0,0.0,0.0,0.0,0.0,0.0,-3.2897,-3.1633,-3.278,-3.2081,-3.2949,-3.5507,-3.6583,-3.8305,-4.0615,-4.2083,-4.1783,-4.0052,-3.9754,-3.8574,-3.684,-3.752,-3.7591,-3.7194,-3.6329,0.0,0.0,0.0,0.0,0.0,0.0,0.0,0.0,-3.4851,-3.4552,-3.3842,-3.4074,0.0,0.0,0.0,0.0,0.0,-3.5679,-3.7572,-3.9337,-3.9096,-3.9096,-3.9572,-4.1209,-3.9898,0.0,0.0,0.0,0.0,0.0,-4.1783,-4.3056,0.0,0.0,-4.8755,0.0,0.0,-4.9872,-4.9267,0.0,0.0,0.0,0.0,0.0,0.0,0.0,-4.5325,-4.4943,-4.5074,-4.4651,-4.3539,-4.2831,-4.2452,-4.2454,-4.2787,-4.2902,-4.2776,-4.1361,-4.0538,-4.0214,-3.8712,-3.7333,0.0,0.0,-3.5309,-3.4412,-3.4981,-3.4724,-3.4045,-3.4715,-3.4467,-3.3505,-3.2325,-3.18,-3.1416,0.0,0.0,0.0,0.0,0.0,0.0,0.0,0.0,0.0,0.0,0.0,0.0,0.0,0.0,0.0,0.0,0.0,0.0,0.0,0.0,0.0,-3.756,-3.5723,-3.4925,-3.5368,-3.5294,-3.6177,-3.7986,-3.9167,-4.0571,-4.2149,-4.2495,-4.1854,-4.0395,-4.0398,-3.9702,-3.8554,-3.9229,-3.9221,-3.8685,0.0,0.0,0.0,0.0,0.0,0.0,0.0,0.0,0.0,0.0,-3.4666,-3.4457,-3.4253,0.0,0.0,0.0,0.0,0.0,-3.5427,-3.7253,-3.9239,-4.0081,-4.1121,-4.2193,-4.3098,-4.2114,0.0,0.0,0.0,0.0,0.0,0.0,-4.4191,-4.6,0.0,-4.8935,-4.9345,-4.9013,-4.8603,0.0,0.0,0.0,0.0,0.0,0.0,0.0,0.0,0.0,-4.3592,-4.3582,-4.3177,-4.2227,-4.1393,-4.0877,-4.0704,-4.051,-4.054,-4.0785,-4.0021,-3.9318,-3.869,-3.7734,-3.6672,-3.5586,0.0,-3.4382,-3.3788,-3.3733,-3.3752,-3.3844,-3.4211,-3.4009,-3.3375,-3.1956,-3.1059,-3.0304,0.0,0.0,0.0,0.0,0.0,0.0,0.0,0.0,0.0,0.0,0.0,0.0,0.0,0.0,0.0,0.0,0.0,0.0,0.0,0.0,-3.7848,-3.7859,-3.7827,-3.7629,-3.7226,-3.7772,-3.8577,-3.9561,-4.1001,-4.2257,-4.3286,-4.2812,-4.203,-4.0992,-4.122,-4.0618,-3.9527,-4.0462,-4.0403,-3.9666,0.0,0.0,0.0,0.0,0.0,0.0,0.0,0.0,0.0,0.0,0.0,0.0,0.0,0.0,0.0,-3.4434,-3.4275,-3.455,-3.5219,-3.6907,-3.8898,-4.0517,0.0,-4.3818,-4.477,-4.4084,0.0,0.0,0.0,0.0,0.0,-4.4112,0.0,-4.6781,-4.8178,-4.9055,-4.9055,-4.8224,-4.7608,0.0,0.0,0.0,0.0,0.0,0.0,0.0,0.0,0.0,-4.2178,-4.2095,-4.1694,-4.0815,-3.9976,-3.949,-3.9396,-3.8618,-3.8446,-3.884,-3.8599,-3.8108,-3.7406,-3.6996,-3.625,-3.5251,-3.4371,-3.374,-3.3261,-3.2805,-3.2963,-3.3532,-3.3532,-3.3058,-3.2223,-3.1083,-2.9964,-2.8903,0.0,0.0,0.0,0.0,0.0,0.0,0.0,0.0,0.0,0.0,0.0,0.0,0.0,0.0,0.0,0.0,0.0,0.0,0.0,0.0,-3.8029,-3.8676,-3.9117,-3.9024,-3.8395,-3.8555,-3.909,-4.0055,-4.1409,-4.2584,-4.3562,-4.3534,-4.2588,-4.0945,-4.1824,-4.0836,-3.8611,-4.0343,-4.0508,-3.9611,-3.9658,0.0,0.0,0.0,0.0,0.0,0.0,0.0,0.0,0.0,0.0,0.0,0.0,0.0,-3.5386,-3.5312,-3.5132,-3.5009,-3.5317,-3.7229,-3.9268,-3.9845,-4.0861,-4.2527,-4.5705,-4.4722,0.0,-4.6074,0.0,0.0,0.0,-4.4063,-4.4909,-4.5852,-4.8154,-4.9827,-4.9827,0.0,0.0,0.0,0.0,0.0,0.0,0.0,0.0,0.0,0.0,0.0,-4.1238,-4.1183,-4.0793,-3.9917,-3.9117,-3.8612,-3.8494,-3.8429,-3.8285,-3.8073,-3.713,-3.6654,-3.6566,-3.5728,-3.4767,-3.3734,-3.3482,-3.2801,-3.1899,-3.2378,-3.2632,-3.2706,-3.2706,-3.142,-2.9558,-2.9183,-2.839,-2.7437,0.0,0.0,0.0,0.0,0.0,0.0,0.0,0.0,0.0,0.0,0.0,0.0,0.0,0.0,0.0,0.0,0.0,0.0,0.0,0.0,-3.8127,-3.9064,-3.9364,-3.9476,-3.937,-4.0196,-4.0892,-4.1416,-4.2004,-4.2763,-4.365,-4.3069,-4.2422,-4.1777,-4.2108,-4.1419,-4.0069,-4.0749,-4.0828,-4.0464,-4.0491,-4.061,0.0,0.0,0.0,0.0,0.0,0.0,0.0,0.0,-3.4983,-3.5407,0.0,-3.5931,-3.5725,-3.4904,-3.5038,-3.533,-3.4596,-3.6882,-3.9357,-3.9056,-4.0307,0.0,0.0,-4.5227,-4.503,-4.6581,-4.6405,0.0,0.0,0.0,-4.6093,-4.5873,-4.7628,-4.906,-4.9138,0.0,0.0,0.0,0.0,0.0,0.0,0.0,0.0,0.0,0.0,0.0,-3.9507,-3.897,-3.8541,-3.8258,-3.7419,-3.6964,-3.6907,-3.5783,-3.5165,-3.5027,-3.5604,-3.5297,-3.419,-3.3815,-3.3361,-3.2808,-3.2109,-3.1778,-3.1676,-3.1286,-3.1397,-3.1843,-3.1843,-3.112,-2.9971,-2.936,-2.8649,-2.792,0.0,0.0,0.0,0.0,0.0,0.0,0.0,0.0,0.0,0.0,0.0,0.0,0.0,0.0,0.0,0.0,0.0,0.0,0.0,-3.6901,-3.7709,-3.9002,-3.9416,-3.9735,-3.9985,-4.0712,-4.1308,-4.1749,-4.1637,-4.1882,-4.2461,-4.2376,-4.2327,-4.2305,-4.2249,-4.1758,-4.096,-4.0701,-4.0598,-4.0622,-4.0918,-4.0984,0.0,0.0,0.0,0.0,0.0,0.0,0.0,0.0,-3.4693,0.0,0.0,0.0,-3.5742,-3.5346,-3.5509,-3.5697,-3.5045,-3.6793,-3.8826,-3.8915,0.0,0.0,-4.5189,-4.5707,-4.5994,-4.7741,-4.724,-4.6124,-4.4932,0.0,0.0,0.0,-4.7043,-4.7889,0.0,0.0,0.0,0.0,0.0,0.0,0.0,0.0,0.0,0.0,0.0,0.0,0.0,-3.6738,-3.644,-3.6487,-3.5623,-3.5171,-3.5171,-3.3957,-3.3171,-3.2828,-3.3867,-3.3824,-3.2823,-3.2737,-3.2483,-3.2067,-3.1241,-3.0957,-3.0991,-3.0425,-3.0515,-3.1017,-3.0805,-3.0342,-2.9639,-2.8936,-2.8399,-2.7971,0.0,0.0,0.0,0.0,0.0,0.0,0.0,0.0,0.0,0.0,0.0,0.0,0.0,0.0,0.0,0.0,0.0,0.0,-3.5949,-3.5979,-3.6694,-3.8442,-3.9402,-3.9985,-4.0204,-3.9753,-3.9937,-4.0781,-4.012,-3.9793,-3.9844,-4.1601,-4.2368,-4.2299,-4.2305,-4.1797,-4.0849,-4.0038,-3.9708,-3.979,-4.0734,-4.1025,-4.0916,0.0,0.0,0.0,0.0,0.0,0.0,0.0,-3.4821,-3.4407,0.0,0.0,0.0,-3.7014,-3.6748,-3.6113,-3.6965,-3.7152,-3.7591,-3.9603,0.0,0.0,-4.5764,-4.6109,-4.6474,-4.9952,-4.7952,-4.5586,-4.5586,-4.4893,0.0,-4.5432,-4.6407,-4.6452,0.0,0.0,0.0,0.0,0.0,0.0,0.0,0.0,0.0,0.0,0.0,0.0,0.0,-3.47,-3.4708,-3.47,-3.3851,-3.3398,-3.3398,-3.3378,-3.2915,-3.1997,-3.1923,-3.2241,-3.2858,-3.2742,-3.2248,-3.1469,-3.1051,-3.0415,-2.9626,-3.0028,-3.0191,-3.0143,-2.953,-2.8826,-2.802,-2.7496,-2.7282,-2.7299,0.0,0.0,0.0,0.0,0.0,0.0,0.0,0.0,0.0,0.0,0.0,0.0,0.0,0.0,0.0,0.0,0.0,0.0,-3.5967,-3.6549,-3.739,-3.8707,-3.9639,-4.0284,-4.0609,-4.0567,-4.0137,-3.9248,-3.9611,-4.0118,-4.075,-4.244,-4.2904,-4.2319,-4.2889,-4.2303,-4.0888,-4.0654,-4.0563,-4.0682,-4.1534,-4.1537,-4.1097,0.0,0.0,0.0,0.0,0.0,0.0,0.0,0.0,0.0,0.0,0.0,0.0,-3.6932,-3.7281,-3.7698,-3.6589,-3.7277,-3.8421,-3.8852,0.0,0.0,0.0,-4.5592,0.0,0.0,-4.6721,-4.5586,-4.5586,0.0,0.0,-4.3893,-4.3577,0.0,0.0,0.0,0.0,0.0,0.0,0.0,0.0,0.0,0.0,0.0,0.0,0.0,0.0,-3.4705,-3.4707,-3.4702,-3.3844,-3.339,-3.3398,-3.2187,-3.1421,-3.1159,-3.1605,-3.1583,-3.1133,-3.1002,-3.0811,-3.0567,-3.0312,-2.9973,-2.9584,-2.9411,-2.9365,-2.9342,-2.9156,-2.8675,-2.8067,-2.7904,-2.7612,-2.7299,0.0,0.0,0.0,0.0,0.0,0.0,0.0,0.0,0.0,0.0,0.0,0.0,0.0,0.0,0.0,0.0,0.0,0.0,0.0,0.0,-3.7526,-3.8607,-4.0119,-4.1067,-4.139,-4.1142,-4.0379,-3.9078,-3.9566,-3.9917,-4.0154,-4.2186,-4.2633,-4.1827,-4.2641,-4.242,-4.1374,-4.0713,-4.0649,-4.1046,-4.1538,-4.1737,-4.1733,0.0,0.0,0.0,0.0,0.0,0.0,0.0,0.0,0.0,-3.7517,0.0,0.0,-3.7329,-3.7685,-3.8301,-3.747,-3.7849,-3.8762,-3.9886,-4.1552,-4.3407,-4.5382,0.0,0.0,0.0,-4.5932,-4.5066,-4.5066,-4.4105,0.0,-4.2662,0.0,0.0,0.0,0.0,0.0,0.0,0.0,0.0,0.0,0.0,0.0,0.0,0.0,0.0,0.0,-3.4189,-3.4176,-3.418,-3.3672,-3.3398,-3.3408,-3.2354,-3.1669,-3.1328,-3.1699,-3.1212,-2.9989,-3.0842,-3.103,-3.0696,-3.0415,-2.9998,-2.9467,-2.913,-2.8994,-2.8994,-2.8743,-2.863,-2.8521,-2.797,-2.7762,-2.7696,0.0,0.0,0.0,0.0,0.0,0.0,0.0,0.0,0.0,0.0,0.0,0.0,0.0,0.0,0.0,0.0,0.0,0.0,0.0,0.0,-3.7383,-3.8372,-4.0761,-4.2166,-4.2428,-4.1565,-4.0774,-4.0034,-3.9878,-3.9432,-3.8751,-4.1327,-4.1968,-4.1035,-4.1919,-4.2186,-4.1859,-4.0305,-4.0138,-4.0898,-4.0968,-4.1621,-4.2442,-4.1475,0.0,0.0,0.0,0.0,0.0,0.0,0.0,0.0,-3.8452,-3.8291,-3.8322,-3.8175,-3.808,-3.818,-3.9065,-3.8646,-3.87,-4.1781,-4.2713,-4.3259,-4.4616,-4.7013,-4.8529,-4.6857,0.0,-4.4261,-4.4201,-4.2874,-4.1777,-4.17,0.0,0.0,0.0,0.0,0.0,0.0,0.0,0.0,0.0,0.0,0.0,0.0,0.0,0.0,0.0,-3.3348,-3.339,-3.3406,-3.3315,-3.328,-3.3281,-3.3202,-3.277,0.0,-3.1902,-3.0987,-2.9387,-3.1588,-3.2105,-3.1226,-3.0767,-3.0,-2.9091,-2.8942,-2.8847,-2.8727,-2.8242,-2.8433,-2.8838,-2.7666,-2.7641,-2.8109,0.0,0.0,0.0,0.0,0.0,0.0,0.0,0.0,0.0,0.0,0.0,0.0,0.0,0.0,0.0,0.0,0.0,0.0,0.0,0.0,-3.8391,-3.9364,-4.127,-4.2646,-4.3381,-4.2541,-4.2018,-4.1849,-4.0464,-3.9713,-3.9608,-4.2148,-4.2507,-4.105,-4.1902,-4.1524,-4.0208,-3.9576,-3.9576,-4.0032,-4.0671,-4.1108,-4.1415,-4.185,-4.1076,0.0,0.0,0.0,0.0,0.0,0.0,0.0,-3.936,-3.9727,-3.9997,-3.9296,-3.8587,-3.818,-3.9065,-3.8514,-3.8288,-4.0734,-4.3226,-4.5164,-4.5704,-4.5851,-4.5456,-4.3922,-4.3809,-4.3867,-4.3436,-4.2508,-4.1585,0.0,0.0,0.0,0.0,0.0,0.0,0.0,0.0,0.0,0.0,0.0,0.0,0.0,0.0,0.0,-3.2303,-3.2989,-3.34,-3.3393,-3.2743,-3.2375,-3.2382,-3.1699,-3.1268,0.0,-3.1008,-3.0419,-2.941,-3.0453,-3.0374,-2.9407,-2.8369,-2.7789,-2.7604,-2.7922,-2.7695,-2.7138,-2.7453,-2.713,-2.6569,-2.6704,-2.6695,-2.6661,0.0,0.0,0.0,0.0,0.0,0.0,0.0,0.0,0.0,0.0,0.0,0.0,0.0,0.0,0.0,0.0,0.0,0.0,0.0,0.0,0.0,-4.1495,-4.2468,-4.3375,-4.4258,-4.3415,-4.2786,-4.2396,-4.1068,-4.0427,-4.0469,-4.2593,-4.2666,-4.1046,-4.2303,-4.1699,-3.9703,-3.9917,-3.98,-3.9539,-4.0519,-4.0915,-4.0996,-4.1463,-4.0999,-4.0195,-4.074,0.0,0.0,0.0,0.0,0.0,0.0,0.0,-3.9991,-3.9049,-3.815,-3.7648,-3.8445,-3.8239,-3.8494,-4.1468,0.0,-4.4617,-4.4993,-4.4175,-4.3032,-4.1949,-4.2183,-4.2389,-4.1816,-4.1008,-4.0161,0.0,0.0,0.0,0.0,0.0,0.0,0.0,0.0,0.0,0.0,0.0,0.0,0.0,0.0,-3.2594,-3.262,-3.3087,-3.336,-3.3402,-3.2963,-3.2712,-3.2728,-3.2261,-3.1835,-3.1425,-3.1389,-3.0884,-2.9965,-2.9843,-2.9463,-2.8859,-2.813,-2.7535,-2.7114,-2.7267,-2.7046,-2.6628,-2.6768,-2.6615,-2.6302,-2.6045,-2.6045,-2.6109,0.0,0.0,0.0,0.0,0.0,0.0,0.0,0.0,0.0,0.0,0.0,0.0,0.0,0.0,0.0,0.0,0.0,0.0,0.0,0.0,0.0,0.0,-4.3378,-4.3784,-4.4663,-4.3823,-4.3066,-4.2402,-4.1523,-4.1307,-4.1774,-4.3001,-4.2724,-4.1279,-4.2665,-4.1937,-3.9742,-4.015,-3.9917,-3.9383,-4.0461,-4.0907,-4.0907,-4.0907,-4.0907,-4.0907,-4.0907,-4.0902,-4.0915,-4.0954,0.0,0.0,0.0,0.0,-3.9256,-3.8566,-3.7558,-3.688,-3.777,-3.82,-3.9152,-4.2458,-4.3121,0.0,-4.3562,-4.2456,-4.1268,-4.0742,-4.0853,-4.0862,-4.0253,-3.9414,0.0,0.0,0.0,0.0,0.0,0.0,0.0,0.0,0.0,0.0,0.0,0.0,0.0,0.0,0.0,-3.2752,-3.2809,-3.2849,-3.2888,-3.2931,-3.2947,-3.2954,-3.2946,-3.2807,-3.2352,-3.164,-3.1365,-3.069,-2.9705,-2.8848,-2.8552,-2.8662,-2.8164,-2.7481,-2.6714,-2.6637,-2.6447,-2.6213,-2.6059,-2.6153,-2.6254,-2.5412,-2.5401,-2.5703,0.0,0.0,0.0,0.0,0.0,0.0,0.0,0.0,0.0,0.0,0.0,0.0,0.0,0.0,0.0,0.0,0.0,0.0,0.0,0.0,0.0,-4.2424,-4.2463,-4.2873,-4.3749,-4.2912,-4.2453,-4.2402,-4.1476,-4.2142,-4.4289,-4.3766,-4.2992,-4.2053,-4.2277,-4.1374,-3.9625,-3.8451,-3.8587,-3.9703,-4.0567,-4.0897,-4.0907,-4.0907,-4.0907,-4.0907,-4.0907,-4.0897,-4.0906,-4.0906,-4.0945,0.0,0.0,0.0,-3.8668,-3.9236,-3.7681,-3.6099,-3.766,0.0,-4.0234,0.0,-4.2272,-4.2085,0.0,0.0,-4.0541,0.0,-4.0611,-4.0565,-3.9949,0.0,0.0,0.0,0.0,0.0,0.0,0.0,0.0,0.0,0.0,0.0,0.0,0.0,0.0,0.0,-3.1177,-3.0857,-3.0875,-3.0989,-3.1042,-3.1066,-3.1122,-3.1152,-3.1152,-3.0398,-2.9962,-2.9821,-2.8376,-2.7176,-2.6252,-2.6004,-2.6602,-2.7778,-2.6102,-2.5324,-2.5225,-2.5609,-2.5337,-2.4724,-2.5056,-2.4765,-2.4208,-2.4329,-2.4401,-2.4514,0.0,0.0,0.0,0.0,0.0,0.0,0.0,0.0,0.0,0.0,0.0,0.0,0.0,0.0,0.0,-4.0562,0.0,0.0,0.0,0.0,0.0,-4.2261,-4.23,-4.2465,-4.2806,-4.2485,-4.2056,-4.1562,-4.115,-4.2259,-4.474,-4.4344,-4.4471,-4.4952,-4.402,-4.2673,-4.1053,-4.0413,-3.9976,-3.9781,-4.0577,-4.0888,-4.0907,-4.0907,-4.0907,-4.0907,-4.0907,-4.0907,-4.0907,-4.0907,-4.0915,-4.0957,-4.1,0.0,0.0,0.0,-3.7366,-3.5899,-3.7018,-3.8454,-3.9865,0.0,-4.1003,-4.1003,-4.1167,-4.0544,-3.9832,-3.9686,-3.9751,-3.9762,-3.9642,0.0,0.0,0.0,0.0,0.0,0.0,0.0,0.0,0.0,0.0,0.0,0.0,0.0,0.0,0.0,-3.0648,-3.0451,-3.0492,-3.056,-3.06,-3.0639,-3.0706,-3.074,-3.074,-2.992,-2.9263,-2.8816,-2.7597,-2.7017,-2.701,-2.5985,-2.582,-2.631,-2.5435,-2.5,-2.4907,-2.5048,-2.4827,-2.4407,-2.4501,-2.4251,-2.3806,-2.3743,-2.3675,-2.3613,0.0,0.0,0.0,0.0,0.0,0.0,0.0,0.0,0.0,0.0,0.0,0.0,0.0,0.0,0.0,0.0,-4.1626,0.0,0.0,0.0,0.0,-4.1921,-4.1926,-4.1905,-4.1849,-4.1885,-4.1587,-4.0867,-4.0879,-4.2194,-4.4685,-4.4447,-4.5473,-4.7436,-4.599,-4.4172,-4.2216,-4.2421,-4.1674,-4.0344,-4.0519,-4.0713,-4.0888,-4.0674,-4.0713,-4.0907,-4.0907,-4.0898,-4.0878,-4.0878,-4.0849,-4.081,-4.0668,-3.9571,0.0,0.0,0.0,-3.5891,-3.6566,0.0,-3.883,-3.9406,-3.9545,-3.9585,0.0,0.0,-3.879,0.0,-3.8488,-3.855,0.0,0.0,0.0,0.0,0.0,0.0,0.0,0.0,0.0,0.0,0.0,0.0,0.0,0.0,0.0,0.0,-3.0367,-3.0425,-3.0472,-3.0482,-3.0518,-3.0564,-3.0646,-3.0574,-3.0372,-2.9377,-2.8454,-2.7639,-2.6972,-2.6988,-2.752,-2.6181,-2.5488,-2.5337,-2.5043,-2.4671,-2.4315,-2.435,-2.4279,-2.4149,-2.4192,-2.4074,-2.3858,-2.3522,-2.3312,-2.3133,0.0,0.0,0.0,0.0,0.0,0.0,0.0,0.0,0.0,0.0,0.0,0.0,-3.9707,-4.0586,-4.1073,-4.1016,-4.1033,-4.1055,-4.1,-4.0929,0.0,-4.0975,-4.0915,0.0,-4.0858,-4.0889,-4.0856,0.0,0.0,-4.2199,-4.4676,-4.3784,-4.5144,-4.8309,-4.7456,-4.5258,-4.2246,-4.3022,-4.2839,-4.1917,-4.0383,-4.0228,-4.083,-4.0053,-4.0247,-4.0907,-4.0907,-4.0858,-4.08,-4.08,-4.0732,-4.0494,-3.9801,-3.8947,-3.8074,0.0,0.0,0.0,-3.6687,-3.6969,0.0,-3.794,-3.7926,-3.7698,0.0,0.0,0.0,-3.6868,-3.6816,-3.6816,0.0,0.0,0.0,0.0,0.0,0.0,0.0,0.0,0.0,0.0,0.0,0.0,0.0,0.0,0.0,0.0,-3.0299,-3.041,-3.041,-3.0462,-3.0501,-3.051,-3.0571,-3.025,-2.9469,-2.7908,-2.6681,-2.5824,-2.5799,-2.5799,-2.5824,-2.5609,-2.5499,-2.5449,-2.4474,-2.3544,-2.2759,-2.3267,-2.3456,-2.35,-2.3989,-2.419,-2.4132,-2.3588,-2.3392,-2.3318,0.0,0.0,0.0,0.0,0.0,0.0,0.0,0.0,0.0,0.0,0.0,0.0,0.0,-4.1702,-4.1866,-4.1832,-4.1286,-4.0933,-4.0941,-4.0906,0.0,-4.1582,-4.1587,-4.1513,-4.1384,-4.1384,0.0,0.0,0.0,-4.0559,-4.2002,-4.2318,-4.3124,-4.4349,-4.5692,-4.5654,-4.4521,-4.3726,-4.2945,-4.2092,-4.0946,-4.0635,-4.0869,-4.0577,-4.0655,-4.0878,-4.0809,-4.1424,-4.2233,-4.1828,-4.1658,-4.147,-4.0513,-3.925,-3.7878,-3.6528,-3.5971,-3.5841,-3.606,0.0,0.0,-3.7095,-3.6766,-3.6438,-3.7147,-3.6835,-3.6475,-3.6677,-3.6581,-3.6186,0.0,0.0,0.0,0.0,0.0,0.0,0.0,0.0,0.0,0.0,0.0,0.0,0.0,0.0,0.0,0.0,0.0,-3.0133,-3.0196,-3.0228,-3.029,-3.0428,-3.0492,-2.9893,-2.8577,-2.8072,-2.7123,-2.5707,-2.57,-2.5702,-2.5707,-2.5642,-2.4982,-2.3875,-2.3475,-2.3697,-2.4281,-2.379,-2.3858,-2.4185,-2.3744,-2.3731,-2.3896,-2.3544,-2.3335,-2.3157,0.0,0.0,0.0,0.0,0.0,0.0,0.0,0.0,0.0,0.0,0.0,0.0,0.0,0.0,-4.2646,-4.2567,-4.2004,-4.1598,-4.1512,-4.1499,-4.1725,-4.2203,-4.2193,-4.1966,-4.1564,0.0,0.0,0.0,0.0,0.0,0.0,-4.0742,-4.1254,-4.1661,-4.3363,-4.4312,-4.4582,-4.4052,-4.3194,-4.2102,-4.0966,-4.083,-4.1296,-4.1005,-4.1257,-4.1752,-4.1618,-4.2228,-4.2982,-4.2271,-4.2002,-4.17,-4.0169,-3.8554,-3.7023,-3.5949,-3.5692,-3.5762,-3.5744,0.0,0.0,0.0,-3.5982,-3.5628,-3.6061,0.0,-3.566,-3.5581,-3.5391,0.0,0.0,0.0,0.0,0.0,0.0,0.0,0.0,0.0,0.0,0.0,0.0,0.0,0.0,0.0,0.0,0.0,0.0,0.0,-3.0037,-3.008,-3.0196,-3.0398,-3.019,-2.9407,-2.8048,-2.7902,-2.7108,-2.5664,-2.5681,-2.5702,-2.5707,-2.5701,-2.5012,-2.3835,-2.3772,-2.3852,-2.3957,-2.3116,-2.3335,-2.4189,-2.3444,-2.3474,-2.3896,-2.3522,-2.3335,-2.314,0.0,0.0,0.0,0.0,0.0,0.0,0.0,0.0,0.0,-4.0869,0.0,0.0,0.0,0.0,0.0,-4.3115,-4.3076,-4.2977,-4.2717,-4.2699,-4.2699,-4.2699,0.0,0.0,0.0,0.0,0.0,0.0,0.0,0.0,0.0,0.0,-3.9673,-4.0674,-4.0732,-4.1221,-4.2098,0.0,-4.3649,-4.2052,0.0,-4.0713,-4.2131,-4.1276,-4.1995,-4.3481,-4.3342,-4.322,-4.3003,-4.2071,-4.1683,-4.1151,-3.869,-3.6829,-3.5562,-3.5666,-3.5694,-3.5716,0.0,0.0,0.0,0.0,0.0,0.0,-3.414,0.0,-3.4528,-3.3515,-3.315,0.0,0.0,0.0,0.0,0.0,0.0,0.0,0.0,0.0,0.0,0.0,0.0,0.0,0.0,0.0,0.0,0.0,-2.9786,-2.9886,-2.9886,-3.0022,-3.0182,-3.0379,-2.9641,-2.881,-2.7951,-2.7272,-2.6498,-2.5637,-2.5681,-2.5702,-2.5707,-2.571,-2.5604,-2.5454,-2.5394,-2.3906,-2.151,-2.1128,-2.1952,-2.3371,-2.3102,-2.3492,-2.4132,-2.3588,-2.3392,-2.3341,0.0,0.0,0.0,0.0,0.0,0.0,0.0,0.0,-4.1743,0.0,0.0,0.0,-4.2963,-4.3133,-4.3167,-4.31,-4.2931,-4.2771,-4.2699,-4.2699,-4.268,-4.264,-4.2579,-4.2093,0.0,0.0,0.0,0.0,0.0,0.0,0.0,0.0,0.0,0.0,-3.9113,-3.9515,-3.9352,-4.0533,0.0,-4.2044,-4.0383,-4.1082,0.0,0.0,0.0,-4.347,-4.3247,-4.355,-4.3956,-4.3522,-4.333,-4.2775,-3.9659,-3.7578,-3.6194,-3.5709,-3.563,-3.5723,-3.5834,0.0,0.0,0.0,0.0,0.0,0.0,0.0,0.0,-3.325,-3.3018,0.0,0.0,0.0,0.0,0.0,0.0,0.0,0.0,0.0,0.0,0.0,0.0,0.0,0.0,0.0,0.0,0.0,-2.9511,-2.9589,-2.9681,-2.9851,-3.0041,-3.0182,-3.0013,-2.9562,-2.8858,-2.8178,-2.7394,-2.652,-2.5964,-2.5702,-2.5702,-2.5659,-2.5288,-2.4693,-2.4534,-2.3692,-2.2472,-2.2906,-2.3208,-2.3401,-2.331,-2.3546,-2.3896,-2.3735,-2.3473,-2.3157,0.0,0.0,0.0,0.0,0.0,0.0,0.0,0.0,-4.333,0.0,0.0,0.0,-4.4194,-4.4411,-4.4342,-4.3848,-4.3693,-4.3571,-4.346,-4.3437,-4.3434,-4.3398,-4.3374,-4.2943,-4.1977,0.0,0.0,0.0,0.0,0.0,0.0,0.0,0.0,0.0,0.0,0.0,0.0,0.0,0.0,0.0,-4.084,0.0,0.0,-4.3335,-4.3802,0.0,0.0,0.0,-4.4842,-4.4212,-4.331,-4.2049,-3.9737,-3.7879,-3.6485,-3.6078,-3.5782,-3.5602,-3.5774,-3.5795,-3.5681,-3.5339,0.0,0.0,-3.3209,-3.2787,-3.2483,0.0,0.0,0.0,0.0,0.0,0.0,0.0,0.0,0.0,0.0,0.0,0.0,0.0,0.0,0.0,0.0,-2.9365,-2.9407,-2.9407,-2.9407,-2.9451,-2.9589,-2.9716,-2.9851,-3.0007,-3.0106,-2.9805,-2.9074,-2.8772,-2.8003,-2.6815,-2.6399,-2.6,-2.5659,-2.5641,-2.5369,-2.4859,-2.4735,-2.3949,-2.2819,-2.3602,-2.3529,-2.2857,-2.2443,-2.2564,-2.2991,-2.3079,-2.2968,-2.2717,0.0,0.0,0.0,0.0,0.0,0.0,0.0,0.0,-4.4658,0.0,-4.5182,-4.5044,-4.5683,-4.6166,-4.6088,-4.5166,-4.4938,-4.4777,-4.4627,-4.4552,-4.4477,-4.4383,-4.4383,-4.3989,-4.3163,0.0,0.0,0.0,0.0,0.0,0.0,0.0,0.0,0.0,0.0,0.0,0.0,0.0,0.0,-3.946,-4.1102,-4.252,0.0,0.0,-4.522,-4.5964,-4.5771,-4.57,-4.5517,-4.4384,-4.2488,0.0,0.0,0.0,0.0,0.0,-3.6027,-3.5443,-3.563,-3.5679,-3.5509,-3.4805,-3.456,0.0,-3.2305,-3.2251,-3.2314,0.0,0.0,0.0,0.0,0.0,0.0,0.0,0.0,0.0,0.0,0.0,0.0,0.0,0.0,0.0,-2.9108,-2.9262,-2.9386,-2.9407,-2.9407,-2.9451,-2.957,-2.957,-2.9662,-2.9869,-2.9992,-2.9723,-2.9044,-2.9038,-2.8289,-2.6837,-2.6773,-2.6341,-2.5609,-2.566,-2.5636,-2.552,-2.5507,-2.4451,-2.2784,-2.3544,-2.3138,-2.1976,-2.1179,-2.1306,-2.197,-2.2168,-2.2282,-2.2331,-4.2595,0.0,0.0,0.0,0.0,0.0,0.0,0.0,0.0,-4.5285,-4.5724,-4.6355,-4.7174,-4.661,-4.6347,-4.6765,-4.5429,-4.4842,-4.5435,-4.4871,-4.4214,-4.3557,-4.3538,-4.3125,-4.228,-4.2085,0.0,0.0,0.0,0.0,0.0,0.0,0.0,0.0,0.0,0.0,0.0,0.0,0.0,-3.7599,-3.8637,0.0,-4.4481,-4.3957,-4.4652,-4.5887,-4.5761,-4.5635,-4.5378,-4.4345,-4.3252,-4.2049,0.0,0.0,0.0,-3.6769,0.0,0.0,0.0,0.0,0.0,0.0,-3.4944,0.0,-3.2346,-3.1857,-3.1303,0.0,-2.9131,0.0,0.0,0.0,0.0,0.0,0.0,0.0,0.0,0.0,0.0,0.0,0.0,0.0,-2.9067,-2.9152,-2.9218,-2.9386,-2.9407,-2.9427,-2.945,-2.945,-2.9492,-2.9662,-2.968,-2.9739,-2.986,-2.861,-2.7903,-2.7727,-2.646,-2.5749,-2.5598,-2.5675,-2.5663,-2.5586,-2.5526,-2.4503,-2.2879,-2.2936,-2.2253,-2.1207,-2.1718,-2.2253,-2.274,-2.2564,-2.2812,-2.315,-4.2737,0.0,0.0,0.0,0.0,0.0,0.0,0.0,0.0,-4.5734,-4.6786,-4.7514,-4.7514,-4.7288,-4.6976,-4.6542,-4.565,-4.5097,-4.5097,-4.4721,-4.4327,-4.3933,-4.3895,-4.3633,-4.3072,-4.235,-4.1758,0.0,0.0,0.0,0.0,0.0,0.0,0.0,0.0,0.0,0.0,0.0,-3.7624,-3.7811,-3.9509,0.0,-4.3443,-4.385,-4.4479,-4.5119,-4.4996,-4.4879,-4.4595,-4.3712,-4.3138,0.0,-4.0826,-3.9319,-3.8004,0.0,-3.6485,-3.5706,0.0,0.0,0.0,-3.5087,0.0,0.0,0.0,-3.115,-3.0407,-3.0403,-2.9149,-2.8536,-3.0123,0.0,0.0,0.0,0.0,0.0,0.0,0.0,0.0,0.0,0.0,0.0,-2.891,-2.9044,-2.9152,-2.924,-2.924,-2.924,-2.924,-2.924,-2.9286,-2.9353,-2.9513,-2.9625,-2.9691,-2.8703,-2.8058,-2.7802,-2.6637,-2.5912,-2.5542,-2.564,-2.5664,-2.5592,-2.5564,-2.4763,-2.3466,-2.2998,-2.2304,-2.1521,-2.1108,-2.1324,-2.1871,-2.1971,-2.2347,-2.2807,-4.316,0.0,0.0,0.0,0.0,0.0,0.0,0.0,0.0,-4.6378,-4.7688,-4.8369,-4.7991,-4.8248,-4.8101,-4.7218,-4.6261,0.0,-4.5472,-4.4871,-4.4439,-4.4289,-4.4421,-4.4261,-4.3703,-4.2707,-4.1912,0.0,0.0,0.0,0.0,0.0,0.0,0.0,0.0,0.0,0.0,0.0,0.0,-3.8423,0.0,-4.1892,-4.2144,-4.3498,-4.4061,-4.411,-4.3995,-4.3848,-4.3654,-4.2832,-4.2545,-4.2297,-4.0788,-3.9508,0.0,0.0,0.0,0.0,0.0,0.0,0.0,0.0,0.0,-3.3161,0.0,0.0,0.0,0.0,0.0,0.0,0.0,0.0,0.0,0.0,0.0,0.0,0.0,0.0,0.0,0.0,0.0,0.0,0.0,-2.8764,-2.8879,-2.9026,-2.8897,-2.8879,-2.9026,-2.9044,-2.9044,-2.9044,-2.9334,-2.9456,-2.9302,-2.87,-2.8131,-2.758,-2.6737,-2.6037,-2.5504,-2.5636,-2.5661,-2.5615,-2.5611,-2.4947,-2.3817,-2.3172,-2.2546,-2.1862,-2.0483,-2.0392,-2.1097,-2.1424,-2.1888,-2.2392,-4.2882,-4.3142,0.0,0.0,0.0,0.0,0.0,0.0,0.0,0.0,0.0,-4.8781,-5.0172,-4.9746,-5.0166,-5.2156,-4.8269,-4.6617,-4.8795,-4.6148,-4.4177,-4.3463,-4.412,-4.3792,-4.2265,-4.2614,-4.2062,-4.0533,0.0,0.0,0.0,0.0,0.0,0.0,-3.7591,0.0,0.0,0.0,-3.7839,0.0,-4.0023,-4.1274,0.0,-4.2221,-4.2657,-4.315,-4.3006,-4.2947,-4.2794,0.0,-4.1648,-4.1495,0.0,-3.9508,-3.8452,-3.7658,0.0,0.0,0.0,0.0,0.0,0.0,-3.4324,0.0,0.0,0.0,-3.1786,-2.8933,0.0,0.0,0.0,0.0,0.0,0.0,0.0,0.0,0.0,0.0,0.0,0.0,0.0,0.0,0.0,-2.8064,-2.8054,-2.8785,-2.8164,-2.8072,-2.8803,-2.8821,-2.8821,-2.8821,-2.9048,-2.9188,-2.9282,-2.7959,-2.7387,-2.758,-2.6069,-2.541,-2.5504,-2.5585,-2.5642,-2.5683,-2.5636,-2.4615,-2.3036,-2.2951,-2.2249,-2.1204,-2.0884,-2.1433,-2.2366,-2.2174,-2.2486,-2.293,-4.2199,-4.2808,0.0,0.0,0.0,0.0,0.0,0.0,0.0,0.0,0.0,0.0,-5.1273,-5.0904,-5.1009,-5.2071,-4.9623,-4.7884,-4.7564,-4.5778,-4.4383,-4.3583,-4.3862,-4.3429,-4.2088,-4.2001,-4.1311,-3.9995,-3.9682,0.0,0.0,0.0,0.0,0.0,-3.7052,0.0,-3.6824,0.0,-3.7877,0.0,0.0,0.0,0.0,-4.1559,-4.1918,-4.2125,-4.2068,-4.2049,-4.1991,0.0,-4.1495,0.0,0.0,0.0,0.0,-3.6864,0.0,0.0,0.0,0.0,0.0,0.0,0.0,0.0,-3.3249,0.0,-3.1527,0.0,0.0,0.0,0.0,0.0,0.0,0.0,-2.665,0.0,0.0,0.0,0.0,0.0,0.0,0.0,0.0,0.0,0.0,0.0,-2.6921,-2.7084,-2.7901,-2.7937,-2.8154,-2.8601,-2.891,-2.9071,-2.8997,-2.8142,-2.7599,-2.7405,-2.6307,-2.5678,-2.5504,-2.5561,-2.564,-2.5664,-2.5149,-2.443,-2.3581,-2.2559,-2.201,-2.1771,-2.1642,-2.2057,-2.268,-2.2499,-2.2705,-2.3049,-4.1153,-4.2016,-4.25,0.0,0.0,0.0,-4.4327,-4.6109,-4.7402,-4.735,0.0,0.0,-5.1948,-5.1819,-5.1992,-5.2884,-5.1156,-4.9307,-4.7554,-4.6041,-4.4657,-4.342,-4.3568,-4.3023,-4.1574,-4.1319,-4.0588,-3.9388,0.0,0.0,0.0,0.0,0.0,0.0,0.0,-3.636,-3.6519,0.0,-3.7737,-3.784,-3.9394,-4.0091,-4.0234,-4.0921,-4.117,-4.117,-4.117,-4.117,-4.117,-4.117,-4.1112,0.0,-3.9464,0.0,0.0,0.0,0.0,0.0,-3.4223,0.0,0.0,0.0,0.0,0.0,0.0,0.0,0.0,0.0,0.0,0.0,0.0,0.0,0.0,0.0,0.0,-2.5758,0.0,0.0,0.0,0.0,0.0,0.0,0.0,0.0,0.0,-2.6711,-2.6093,-2.6165,-2.7173,-2.7227,-2.7497,-2.8072,-2.8634,-2.8887,-2.8797,-2.8286,-2.7755,-2.7239,-2.6512,-2.5924,-2.5454,-2.5502,-2.5597,-2.5663,-2.5017,-2.4544,-2.4107,-2.2579,-2.2115,-2.2331,-2.1918,-2.2017,-2.2428,-2.2705,-2.2896,-2.288,-3.9606,-4.0539,-4.1268,0.0,0.0,0.0,-4.504,-4.5339,-4.6047,-4.792,0.0,0.0,0.0,0.0,-5.3444,-5.6639,-5.3201,-5.0855,-5.0858,-4.7831,-4.5007,-4.2627,-4.3273,-4.259,-4.0228,-4.0653,-4.0134,-3.8546,0.0,0.0,0.0,0.0,0.0,0.0,-3.7131,-3.6986,-3.7354,-3.7393,-3.7412,-3.7508,-3.848,-3.9356,-4.0117,0.0,-4.0233,-4.0348,-4.0348,0.0,0.0,-4.0348,-4.0175,0.0,0.0,0.0,0.0,0.0,0.0,0.0,0.0,0.0,0.0,-3.2205,0.0,0.0,0.0,0.0,-3.37,0.0,0.0,0.0,0.0,0.0,0.0,-2.6373,0.0,0.0,0.0,0.0,0.0,0.0,0.0,0.0,0.0,0.0,0.0,-2.7959,-2.6032,-2.5415,-2.6933,-2.7022,-2.7022,-2.7058,-2.8018,-2.8619,-2.8797,-2.8136,-2.7561,-2.7112,-2.6408,-2.5817,-2.5318,-2.5376,-2.5515,-2.5689,-2.5604,-2.5072,-2.4216,-2.3256,-2.2717,-2.2391,-2.135,-2.1102,-2.1492,-2.2873,-2.3058,-2.2426,-3.8102,-3.9503,-4.0955,0.0,0.0,-4.3433,-4.4577,-4.587,-4.7284,0.0,-5.0324,0.0,0.0,-5.4417,-5.4924,0.0,0.0,-5.185,-4.976,-4.8083,0.0,-4.2886,-4.3543,-4.3087,-4.1192,-4.1341,-4.0906,-3.9833,0.0,0.0,0.0,0.0,0.0,0.0,0.0,-3.5525,0.0,0.0,0.0,0.0,0.0,-3.9317,-4.0117,0.0,0.0,-4.031,-4.031,-4.0176,0.0,-3.941,-3.9056,-3.8606,-3.7338,-3.6603,-3.6029,-3.5069,-3.4512,0.0,0.0,0.0,-3.2493,-3.1716,0.0,0.0,0.0,0.0,0.0,0.0,0.0,0.0,0.0,0.0,-2.5587,-2.6083,-2.5766,0.0,0.0,0.0,0.0,0.0,0.0,0.0,0.0,0.0,0.0,-2.5093,-2.4855,-2.4926,0.0,-2.5943,-2.6211,-2.6211,-2.7184,-2.747,-2.7024,-2.7537,-2.752,-2.6953,-2.6378,-2.6104,-2.6075,-2.5619,-2.551,-2.5629,-2.441,-2.4061,-2.4193,-2.2067,-2.1416,-2.1713,-2.0984,-2.0736,-2.0824,-2.139,-2.1324,-2.078,-3.7815,-3.8963,0.0,0.0,0.0,-4.3703,-4.4803,-4.6746,0.0,0.0,-5.1517,0.0,-5.5367,0.0,-5.5184,0.0,-5.4724,-5.2462,-4.9528,-4.8315,0.0,-4.3444,-4.3534,-4.3045,-4.1741,-4.1723,-4.1198,-4.0111,0.0,-3.9242,0.0,0.0,0.0,0.0,0.0,-3.473,-3.5118,-3.576,-3.6056,0.0,0.0,-3.9235,0.0,0.0,-4.0253,-4.0253,0.0,-3.9621,-3.9323,-3.8407,-3.7928,-3.7499,-3.6267,-3.5577,-3.5114,-3.443,-3.3825,-3.323,-3.261,-3.2083,0.0,-3.082,-3.0713,0.0,-3.0311,0.0,0.0,0.0,0.0,0.0,0.0,0.0,0.0,-2.611,-2.5356,-2.4733,0.0,-2.5402,0.0,0.0,0.0,0.0,0.0,0.0,-2.485,-2.4518,-2.4354,-2.4409,0.0,0.0,-2.5408,-2.5408,-2.6283,-2.6543,-2.6092,-2.7173,-2.7267,-2.6377,-2.6481,-2.6339,-2.5938,-2.556,-2.5473,-2.5598,-2.4404,-2.4082,-2.422,-2.2092,-2.1321,-2.1374,-2.0502,-2.0107,-2.0051,-2.0368,-1.9947,-1.9023,-3.8601,-3.8888,0.0,0.0,-4.2739,0.0,0.0,0.0,-4.9695,0.0,-5.2155,-5.3533,-5.5158,-5.4389,-5.4345,-5.5812,-5.449,-5.257,-5.018,-4.8532,0.0,0.0,-4.3335,-4.2574,-4.1796,-4.1778,-4.1035,-3.9514,0.0,0.0,0.0,0.0,0.0,0.0,-3.5198,0.0,-3.4325,-3.5231,-3.5754,-3.6126,-3.7785,-3.9028,-3.9911,-3.9979,-4.0099,-4.0063,-3.9067,-3.8662,-3.8431,-3.7307,-3.6788,-3.6619,-3.6582,-3.5816,-3.4917,-3.488,-3.378,-3.2499,-3.2183,-3.1537,-3.0695,-2.9526,0.0,0.0,0.0,0.0,-3.0159,0.0,0.0,0.0,0.0,0.0,0.0,-2.6417,-2.5299,-2.4512,0.0,0.0,-2.5084,0.0,0.0,0.0,-2.5866,-2.4891,-2.4838,-2.6161,-2.4662,-2.3981,0.0,0.0,-2.473,-2.4641,-2.5354,-2.5828,-2.5984,-2.7009,-2.6823,-2.5407,-2.6641,-2.646,-2.5046,-2.5224,-2.5403,-2.5582,-2.5478,-2.5057,-2.4376,-2.3281,-2.2361,-2.1506,-2.0,-1.9228,-1.9081,-1.9708,-1.8847,-1.7299,-3.8108,-4.0043,-4.1877,0.0,-4.3026,-4.3917,0.0,0.0,0.0,0.0,-5.2917,-5.4106,-5.5668,-5.5082,-5.4762,-5.516,-5.3186,0.0,0.0,0.0,0.0,-4.3299,-4.357,-4.3407,-4.2611,-4.2592,-4.2103,-4.1126,0.0,0.0,-3.8156,0.0,0.0,0.0,0.0,0.0,-3.3887,-3.4444,-3.5548,-3.6996,-3.7642,-3.8646,0.0,0.0,-3.8961,-3.8814,-3.8736,-3.8071,-3.7087,-3.6136,-3.5651,-3.5331,-3.475,-3.432,-3.399,-3.3403,-3.2926,-3.2261,-3.082,-3.0522,-3.0288,-2.8772,-2.8823,-2.9024,0.0,0.0,0.0,0.0,0.0,0.0,0.0,0.0,0.0,-2.6666,-2.6181,-2.5633,0.0,0.0,0.0,-2.6841,0.0,-2.5977,-2.5239,-2.534,-2.5521,-2.5707,-2.6089,0.0,0.0,0.0,0.0,-2.3856,-2.4569,-2.4718,-2.4175,-2.5869,-2.6228,-2.5246,-2.6045,-2.6227,-2.5874,-2.5482,-2.5403,-2.5563,-2.4845,-2.4814,-2.5119,-2.2929,-2.2165,-2.2219,-2.0243,-1.869,-1.7535,-1.7519,-1.6955,-1.6102,-3.8802,0.0,0.0,-4.3212,0.0,0.0,-4.628,-4.7411,0.0,-5.1191,-5.2582,0.0,-5.4888,-5.3821,-5.3105,-5.3331,-5.0949,0.0,-4.7935,0.0,0.0,-4.3498,-4.3325,-4.3141,-4.29,-4.2212,0.0,-4.1198,0.0,0.0,-3.7631,0.0,0.0,0.0,0.0,-3.3633,-3.3744,-3.4419,-3.5608,-3.708,-3.7514,0.0,0.0,-3.8677,-3.8061,-3.7561,-3.7351,-3.6761,-3.6006,-3.5025,-3.4584,-3.4412,-3.3935,-3.3568,-3.3201,-3.2742,-3.2023,-3.1117,-2.9927,-2.9444,-2.903,-2.8,-2.7944,-2.8062,-2.7818,-2.7742,-2.7742,0.0,0.0,0.0,0.0,0.0,0.0,0.0,0.0,0.0,0.0,0.0,0.0,0.0,-2.6752,-2.6268,-2.5171,-2.5648,-2.5803,-2.5235,-2.6005,0.0,0.0,0.0,0.0,-2.3552,-2.4284,-2.4349,-2.3594,-2.5451,-2.5868,-2.4855,-2.57,-2.5961,-2.5715,-2.5457,-2.5418,-2.5532,-2.5038,-2.492,-2.4963,-2.3411,-2.2527,-2.1924,-1.9768,-1.8099,-1.6781,-1.6142,-1.5675,-1.5257,-3.9935,0.0,0.0,0.0,0.0,0.0,0.0,-4.7674,0.0,-5.0092,0.0,-5.2645,-5.3111,-5.1275,-5.0205,-5.0615,0.0,-4.6453,-4.6152,-4.485,-4.393,-4.371,-4.2633,-4.2221,-4.2574,-4.118,-4.042,0.0,0.0,0.0,0.0,0.0,0.0,0.0,0.0,0.0,0.0,-3.4631,-3.5655,-3.6738,-3.7349,-3.8155,-3.8923,-3.813,-3.7259,-3.6363,-3.5491,-3.5194,-3.5057,-3.4115,-3.3807,-3.377,-3.3678,-3.3164,-3.2533,-3.2305,-3.1089,-2.97,-2.9229,-2.8428,-2.7659,-2.7376,-2.7299,-2.7299,-2.7299,-2.7299,-2.7299,-2.7299,-2.7299,-2.7299,0.0,0.0,0.0,0.0,0.0,0.0,0.0,0.0,0.0,0.0,0.0,0.0,-2.5793,-2.6184,-2.614,-2.5253,0.0,0.0,0.0,0.0,0.0,-2.3603,-2.4354,0.0,-2.394,0.0,-2.6016,-2.4787,-2.5918,-2.6045,-2.5268,-2.5484,-2.5529,-2.549,-2.557,-2.5194,-2.4532,-2.4241,-2.3036,-2.1173,-1.8946,-1.7562,-1.6654,-1.5461,-1.476,-1.436,-3.9969,0.0,0.0,0.0,0.0,-4.5989,-4.602,-4.7819,-4.9521,-5.0488,-5.0277,-5.0101,-5.0344,-4.8417,-4.7108,-4.7156,-4.5488,0.0,0.0,0.0,0.0,-4.1529,-4.1364,-4.1163,-4.0944,-4.0381,-3.9931,0.0,0.0,0.0,0.0,0.0,0.0,0.0,0.0,0.0,-3.3716,-3.3952,0.0,-3.6634,-3.6932,-3.7415,-3.7905,-3.7188,-3.6247,-3.5193,-3.4365,-3.4071,-3.4052,-3.387,-3.3807,-3.3678,-3.3036,-3.2724,-3.2305,-3.0745,-3.0059,-2.9521,-2.8315,-2.7848,-2.7659,-2.7376,-2.7299,-2.7299,-2.7299,-2.7299,-2.7299,-2.7299,-2.7299,-2.7299,-2.7299,0.0,0.0,0.0,0.0,0.0,0.0,0.0,0.0,0.0,0.0,-2.7191,0.0,-2.7995,0.0,0.0,0.0,0.0,0.0,0.0,0.0,0.0,-2.4678,0.0,0.0,0.0,-2.7494,-2.6723,-2.7856,-2.7618,-2.6185,-2.6391,-2.611,-2.551,-2.5573,-2.5527,-2.5291,-2.4167,-2.2768,-2.1053,-1.8423,-1.7394,-1.7247,-1.5594,-1.3933,-1.2562,-4.0037,0.0,0.0,0.0,0.0,0.0,0.0,-4.6071,0.0,-4.809,-4.7698,-4.73,-4.7322,-4.5754,-4.4813,-4.5035,-4.301,-4.1799,-4.207,-4.0429,-3.9676,-4.0093,-3.9905,-3.9811,-3.9878,-3.8531,-3.8235,-3.9031,0.0,0.0,0.0,0.0,0.0,0.0,0.0,-3.3481,0.0,0.0,0.0,-3.6287,-3.6399,-3.6602,-3.6746,-3.5579,-3.4567,-3.3633,-3.2834,-3.2559,-3.2614,-3.3036,-3.3183,-3.301,-3.2072,-3.1427,-3.0838,-2.9837,-2.9124,-2.8507,-2.7877,-2.76,-2.7465,-2.7313,-2.7299,-2.7299,-2.7299,-2.7299,-2.725,-2.7023,-2.7137,-2.7299,-2.7299,-2.7299,0.0,0.0,0.0,0.0,0.0,0.0,-2.8329,0.0,0.0,0.0,0.0,0.0,0.0,0.0,0.0,0.0,0.0,0.0,0.0,0.0,0.0,0.0,0.0,0.0,0.0,-2.7305,-2.7861,-2.7548,-2.6507,-2.6674,-2.6281,-2.549,-2.5574,-2.5602,-2.5483,-2.4039,-2.2609,-2.109,-1.843,-1.7076,-1.6368,-1.4372,-1.3053,-1.2226,0.0,-4.1146,0.0,0.0,-4.2812,0.0,-4.4209,-4.4148,-4.4423,-4.5512,-4.5086,-4.4665,-4.4509,-4.319,-4.2452,-4.2818,-4.0718,-3.9485,-3.9826,-3.8822,-3.8434,-3.8863,-3.8565,-3.8495,-3.8784,-3.6913,-3.6629,0.0,0.0,0.0,0.0,0.0,0.0,0.0,0.0,0.0,0.0,0.0,-3.492,-3.572,-3.5526,-3.5403,-3.5198,-3.3908,-3.2993,-3.2265,-3.1623,-3.1359,-3.1382,-3.1858,-3.2159,-3.2133,-3.1056,-3.0197,-2.953,-2.9084,-2.8288,-2.7612,-2.763,-2.7465,-2.7299,-2.7299,-2.7161,-2.704,-2.704,-2.6871,-2.6625,-2.6283,-2.6599,-2.6928,-2.6928,-2.7066,0.0,0.0,0.0,0.0,0.0,0.0,0.0,0.0,0.0,0.0,-2.6767,0.0,0.0,0.0,0.0,0.0,0.0,0.0,0.0,0.0,0.0,-2.6823,-2.635,0.0,-2.8202,0.0,-2.7861,-2.7453,-2.6881,-2.6827,-2.6327,-2.5479,-2.5565,-2.5537,-2.5312,-2.3522,-2.2308,-2.1363,-1.8621,-1.6819,-1.5469,-1.3371,-1.197,-1.1062,0.0,0.0,0.0,0.0,0.0,0.0,-4.3289,-4.3334,-4.3642,-4.4626,-4.3365,-4.2453,-4.2547,-4.0696,-3.9391,-3.9423,-3.8594,-3.8102,-3.8133,-3.7373,-3.716,-3.7551,-3.7569,-3.7453,-3.7128,-3.6563,-3.618,0.0,0.0,0.0,0.0,0.0,0.0,0.0,0.0,0.0,0.0,-3.3484,-3.4014,-3.4757,-3.4047,-3.3386,-3.2828,-3.2655,-3.2159,-3.1494,-3.1421,-3.1258,-3.0939,-3.0277,-3.068,-3.1221,-3.0106,-2.971,-2.9422,-2.8147,-2.7724,-2.7642,-2.739,-2.7313,-2.7299,-2.7299,-2.6747,-2.6212,-2.6212,-2.548,-2.4737,-2.4706,-2.528,-2.5739,-2.5675,-2.625,-2.6979,0.0,0.0,0.0,0.0,0.0,-2.7585,-2.7787,0.0,0.0,0.0,-2.5726,0.0,0.0,-2.7647,0.0,0.0,0.0,0.0,-2.5799,0.0,-2.8474,-2.8414,-2.9387,-2.997,-3.0105,-2.9317,-2.8533,-2.7766,-2.7098,-2.6301,-2.5425,-2.5544,-2.5362,-2.4762,-2.2122,-2.1581,-2.207,-1.8712,-1.6716,-1.5488,-1.3906,-1.0584,-0.6917,0.0,0.0,0.0,0.0,0.0,0.0,0.0,-4.1285,-4.118,-4.115,-4.0998,-4.0728,-4.0358,-3.9123,-3.8345,-3.8345,-3.7669,-3.7229,-3.7229,-3.6079,-3.5474,-3.5633,-3.5249,-3.5164,-3.5452,-3.4856,-3.4868,0.0,0.0,0.0,0.0,0.0,0.0,0.0,0.0,-3.2766,-3.2816,-3.2894,-3.3118,-3.3396,-3.2911,-3.2144,-3.1217,-3.0975,-3.0232,-2.935,-2.9403,-2.935,-2.9206,-2.8883,-2.9368,-2.9917,-2.8806,-2.8443,-2.8293,-2.7613,-2.7386,-2.7251,-2.6726,-2.6575,-2.6471,-2.6023,-2.5678,-2.5377,-2.5193,-2.4815,-2.438,-2.3967,-2.443,-2.5027,-2.523,-2.5865,-2.645,0.0,0.0,0.0,0.0,0.0,0.0,-2.6813,0.0,-2.63,0.0,0.0,0.0,0.0,0.0,0.0,0.0,0.0,0.0,-2.7179,0.0,-2.8338,-2.8808,-2.9064,-2.9294,-2.95,-2.8619,-2.7812,-2.7112,-2.6904,-2.6335,-2.5514,-2.5586,-2.5496,-2.5153,-2.3086,-2.1664,-2.0467,-1.7563,-1.4221,-1.0897,-0.9796,-0.7115,-0.4055,-3.7496,0.0,-3.7703,0.0,-3.8238,-3.8293,-3.9411,-3.9295,-3.8975,-3.8623,-3.8924,-3.9022,-3.87,-3.8024,-3.7584,-3.7584,-3.6874,-3.6349,-3.6129,-3.5081,-3.4387,-3.4184,-3.3677,0.0,-3.4167,-3.388,-3.393,-3.4369,-3.4938,0.0,0.0,0.0,0.0,0.0,-3.1331,-3.1683,-3.1749,-3.183,-3.1895,-3.187,-3.1428,-3.0621,-2.9661,-2.9368,-2.8757,-2.8037,-2.8075,-2.8047,-2.7964,-2.7964,-2.8167,-2.8293,-2.7818,-2.7612,-2.7539,-2.7296,-2.7029,-2.6719,-2.6216,-2.5954,-2.5631,-2.5021,-2.47,-2.444,-2.412,-2.386,-2.3569,-2.3096,-2.363,-2.4281,-2.4541,-2.5351,-2.5908,-2.5908,0.0,0.0,0.0,-2.5602,0.0,-2.5801,-2.6016,-2.6384,-2.7034,-2.7643,0.0,0.0,0.0,0.0,0.0,0.0,0.0,0.0,0.0,0.0,0.0,-2.8862,-2.8747,-2.8624,-2.7762,-2.7097,-2.6632,-2.6428,-2.6028,-2.5527,-2.5251,-2.527,-2.5323,-2.2794,-2.0923,-1.9223,-1.5392,-1.1302,-0.736,-0.6042,-0.3569,-0.0843,-3.553,-3.5827,-3.6227,-3.6489,-3.6301,-3.6622,-3.8213,-3.7682,-3.7385,-3.8013,-3.7349,-3.7094,-3.7838,-3.7246,-3.6789,-3.6789,-3.6079,-3.5318,-3.4573,-3.4506,-3.4167,0.0,0.0,-3.3406,-3.3423,-3.4117,-3.3761,-3.2347,0.0,0.0,-3.0628,0.0,-2.9712,-2.8943,-2.9765,-3.0162,-3.0207,-3.018,-3.0211,-3.0229,-2.939,-2.8623,-2.8045,-2.8027,-2.8065,-2.8102,-2.8102,-2.7926,-2.7683,-2.7683,-2.7004,-2.6325,-2.7278,-2.7569,-2.7465,-2.7198,-2.6633,-2.6126,-2.6109,-2.5574,-2.4947,-2.4581,-2.396,-2.3329,-2.2998,-2.2358,-2.1814,-2.1814,-2.2719,-2.3481,-2.3428,-2.458,-2.5503,-2.5503,0.0,0.0,0.0,0.0,0.0,-2.4942,-2.5009,-2.5135,-2.5401,-2.6872,0.0,0.0,0.0,0.0,0.0,0.0,0.0,-2.7802,-2.8766,0.0,-2.909,-2.9234,-2.8873,-2.7997,-2.7127,-2.6702,-2.6663,-2.5677,-2.5294,-2.5348,-2.4421,-2.4505,-2.4933,-2.0264,-1.8851,-1.8914,-1.2069,-0.8252,-0.6286,-0.3762,-0.0328,0.3159,-3.4794,-3.4732,-3.4752,-3.5047,-3.5205,-3.5483,-3.6118,-3.6335,-3.632,-3.5942,-3.5807,-3.5745,-3.5771,-3.5883,-3.5994,0.0,-3.5301,-3.4742,0.0,-3.3541,-3.2882,-3.2645,-3.2171,-3.2138,-3.2628,-3.2865,-3.251,-3.1546,0.0,0.0,0.0,-2.9453,-2.9042,-2.8403,-2.9144,-2.9557,-2.9607,-2.8988,-2.8779,-2.8791,-2.8167,-2.7714,-2.7413,-2.7654,-2.7595,-2.7444,-2.7539,-2.7496,-2.7334,-2.6797,-2.6661,-2.6607,-2.6014,-2.5831,-2.5772,-2.5682,-2.551,-2.5229,-2.4666,-2.4339,-2.4046,-2.3429,-2.3093,-2.2784,-2.2278,-2.1595,-2.1103,-2.1103,-2.2175,-2.3096,-2.306,-2.4191,-2.5169,-2.5169,-2.5082,0.0,0.0,0.0,-2.4327,-2.47,-2.5352,-2.6184,0.0,-2.8188,0.0,0.0,0.0,0.0,0.0,0.0,0.0,0.0,-2.8934,0.0,-2.9222,-2.8145,-2.7466,-2.7166,-2.6155,-2.5677,-2.5668,-2.5351,-2.5312,-2.55,-2.5035,-2.2144,-1.787,-1.8808,-1.4429,-0.715,-0.7381,-0.3931,0.1184,0.1243,0.3367,0.6158,-3.3487,-3.3459,-3.3459,-3.3575,-3.3847,-3.4079,-3.4457,-3.4825,-3.4851,-3.4318,-3.432,-3.4299,-3.4119,-3.417,0.0,-3.5526,-3.5182,-3.4675,-3.4117,-3.322,-3.2459,-3.1901,-3.1444,-3.141,-3.1867,0.0,0.0,-3.119,-3.1376,-3.0463,-2.8552,-2.8571,-2.8235,-2.7589,-2.81,-2.8374,-2.8442,-2.7913,-2.7724,-2.7772,-2.7417,-2.7244,-2.7184,-2.7404,-2.7373,-2.7149,-2.6923,-2.6851,-2.673,-2.5954,-2.5725,-2.5647,-2.4792,-2.4367,-2.4264,-2.4833,-2.4798,-2.4453,-2.3926,-2.3598,-2.3271,-2.2664,-2.2436,-2.2215,-2.1738,-2.1198,-2.0827,-2.0958,-2.1813,-2.2517,-2.2517,-2.347,-2.4309,-2.4539,-2.4249,-2.3933,-2.3803,0.0,0.0,0.0,0.0,0.0,0.0,-2.8746,-2.9375,0.0,0.0,0.0,0.0,0.0,0.0,-3.0233,-2.8882,0.0,-2.8929,-2.7566,-2.67,-2.6348,-2.5638,-2.5288,-2.5234,-2.523,-2.5305,-2.5242,-2.2284,-1.8401,-1.412,-1.3129,-0.828,-0.152,-0.2073,0.0539,0.471,0.5139,0.6687,0.8504,-3.1835,-3.2139,0.0,0.0,-3.2195,0.0,-3.3167,-3.3154,-3.3019,-3.3066,-3.2942,-3.2854,-3.2854,-3.2303,-3.2872,-3.5155,0.0,0.0,0.0,-3.3288,-3.2628,-3.1258,-3.119,-3.1173,-3.1123,-3.1782,-3.1749,-3.0954,-3.0226,-2.9144,-2.7705,-2.774,-2.7368,-2.6742,-2.6876,-2.6926,-2.6926,-2.6975,-2.7055,-2.7103,-2.7103,-2.7184,-2.7282,-2.723,-2.7213,-2.7109,-2.6285,-2.5993,-2.5872,-2.5102,-2.4396,-2.3829,-2.368,-2.3244,-2.3003,-2.4436,-2.4287,-2.3674,-2.3674,-2.3175,-2.2561,-2.2237,-2.1969,-2.1678,-2.1371,-2.1055,-2.0893,-2.1183,-2.158,-2.19,-2.185,-2.2438,-2.3085,-2.3733,-2.3023,-2.267,-2.3572,0.0,0.0,0.0,0.0,0.0,0.0,-2.8673,-2.927,0.0,0.0,0.0,0.0,0.0,-3.0333,-2.9611,-2.8688,-2.8222,-2.8286,-2.7368,-2.6454,-2.557,-2.5521,-2.5421,-2.5298,-2.5253,-2.4904,-2.3966,-1.6989,-1.3387,-1.1869,-0.437,-0.1016,-0.0216,0.3413,0.4763,0.5102,0.7849,0.9418,1.0145,0.0,0.0,-3.1313,-3.0876,-3.1305,-3.1674,-3.1844,-3.1411,-3.1254,-3.175,-3.1343,-3.1177,-3.1595,-3.15,-3.1775,-3.2777,-3.268,-3.2562,-3.2577,-3.2019,-3.1562,-3.1207,-3.119,-3.0937,-3.0378,-3.0531,-2.9973,-2.8619,-2.7875,-2.7317,-2.6962,-2.7131,-2.7112,-2.6942,-2.7122,-2.7203,-2.7186,-2.712,-2.7152,-2.725,-2.7072,-2.7137,-2.723,-2.6564,-2.6323,-2.6251,-2.5248,-2.4866,-2.4717,-2.3728,-2.3793,-2.4019,-2.2694,-2.2651,-2.3095,-2.3189,-2.2928,-2.2575,-2.2575,-2.2304,-2.1986,-2.1911,-2.1661,-2.1402,-2.1309,-2.1055,-2.0761,-2.0646,-2.1311,-2.1815,-2.1557,-2.2263,-2.2927,-2.3101,-2.3189,-2.3093,-2.2687,-2.2915,0.0,0.0,-2.5463,-2.6658,-2.8529,-2.9015,-2.9415,0.0,0.0,0.0,0.0,-3.107,-3.1133,-3.0447,-2.8976,-2.8216,-2.8222,-2.675,-2.5784,-2.5369,-2.5348,-2.5294,-2.5213,-2.4851,-2.1797,-1.6651,-1.4539,-0.7263,0.2856,-0.01,0.3433,1.0286,0.6321,0.6207,0.8363,0.941,0.9999,1.0302,-3.0158,-3.0547,-3.0738,-3.037,-3.0652,-3.0951,-3.0951,-3.0643,-3.0443,-3.0474,-3.0181,-3.0052,-3.0323,-3.0092,-3.0257,-3.1069,-3.1502,-3.1847,-3.1985,-3.1616,-3.1096,-3.0465,-3.0432,-3.0096,-2.9319,-2.9302,-2.8807,-2.7789,-2.7774,-2.7419,-2.6792,-2.7249,-2.7299,-2.7024,-2.7137,-2.7201,-2.7154,-2.7201,-2.7201,-2.7201,-2.7154,-2.6899,-2.6473,-2.5982,-2.5544,-2.5012,-2.4113,-2.3969,-2.4056,-2.2817,-2.295,-2.346,-2.2205,-2.2136,-2.2517,-2.2333,-2.2158,-2.2027,-2.2027,-2.1911,-2.1751,-2.1617,-2.1433,-2.1246,-2.1119,-2.0827,-2.0579,-2.0444,-2.0736,-2.1,-2.0969,-2.1279,-2.1744,-2.2307,-2.2226,-2.2143,-2.2263,-2.2636,0.0,-2.4718,-2.5639,-2.6856,-2.8714,-2.9056,-2.9355,-2.9855,0.0,0.0,-2.988,-3.0295,-3.0432,-3.0156,-2.8886,-2.8019,-2.7615,-2.6278,-2.5498,-2.529,-2.5277,-2.512,-2.4758,-2.1247,-1.7532,-1.3497,-0.6517,0.0867,0.7881,0.6963,0.9743,1.4082,0.9425,0.8692,1.0189,1.0183,1.0459,1.0916,-2.9687,-3.0042,-3.0176,-2.9965,-3.0094,-3.0274,-3.0274,-3.0181,-2.995,-2.9473,-2.9319,-2.9258,-2.9258,-2.875,-2.8805,-2.9784,-3.0831,-3.144,-3.1325,-3.1219,-3.0667,-2.9443,-2.9294,-2.888,-2.8136,-2.8097,-2.7918,-2.7638,-2.8315,-2.8029,-2.6893,-2.7555,-2.7555,-2.7007,-2.7087,-2.7087,-2.704,-2.7137,-2.712,-2.7038,-2.7105,-2.648,-2.5507,-2.5406,-2.4708,-2.3717,-2.294,-2.301,-2.3324,-2.2073,-2.2073,-2.2485,-2.1829,-2.1661,-2.1721,-2.1661,-2.1631,-2.1601,-2.1691,-2.1661,-2.154,-2.1277,-2.1183,-2.1119,-2.086,-2.0579,-2.0376,-2.0342,-2.015,-2.0061,-2.0239,-2.0115,-2.0349,-2.1412,-2.0902,-2.0749,-2.1922,0.0,-2.2718,-2.4418,-2.5425,-2.6632,-2.8221,-2.8507,-2.8857,-2.9391,-2.9339,-2.9181,0.0,-2.9003,-2.9038,-2.9119,-2.8382,-2.7557,-2.6668,-2.5863,-2.5402,-2.5249,-2.5139,-2.4896,-2.4308,-1.7873,-1.3808,-1.1112,0.1616,0.7889,0.9465,1.3983,1.5396,1.4435,1.2042,1.1123,1.1147,1.0723,1.1019,1.1715,-2.8541,-2.9131,-2.9396,-2.8762,-2.9196,-2.9566,-2.9566,-2.9089,-2.8889,-2.935,-2.8919,-2.8565,-2.8565,-2.8473,-2.8491,-2.8632,-2.8836,-2.9297,-3.0016,-2.9534,-2.9153,-2.8925,-2.838,-2.7711,-2.6883,-2.6603,-2.658,-2.686,-2.6996,-2.6962,-2.6742,-2.7011,-2.7094,-2.7024,-2.7186,-2.725,-2.7218,-2.6808,-2.6674,-2.6725,-2.6367,-2.5794,-2.5113,-2.4431,-2.3717,-2.2924,-2.1903,-2.1615,-2.1632,-2.1119,-2.1215,-2.1455,-2.1087,-2.1151,-2.1309,-2.1055,-2.0811,-2.073,-2.1246,-2.1007,-2.0663,-2.0811,-2.0712,-2.0579,-2.0761,-2.0579,-2.0357,-2.0096,-2.0041,-1.9919,-1.9675,-1.9833,-2.0142,-2.055,-2.0297,-2.03,-2.0936,0.0,-2.1633,-2.3031,-2.3807,-2.4644,-2.5826,-2.6522,-2.7017,-2.727,-2.7568,-2.7845,-2.8097,-2.8107,-2.7851,-2.7329,-2.7125,-2.6548,-2.557,-2.5408,-2.5248,-2.5045,-2.4686,-2.4577,-2.4572,-2.1306,-1.4074,-0.3914,-0.0275,0.7257,1.6862,1.5658,1.5136,1.487,1.2469,1.1599,1.1709,1.1656,1.1923,1.2354,-2.6956,-2.7745,-2.8273,-2.7955,-2.8446,-2.8873,-2.8873,-2.8611,-2.8519,-2.8827,-2.8596,-2.8411,-2.8411,-2.8411,-2.8258,-2.7888,-2.7857,-2.7876,-2.7971,-2.8236,-2.8265,-2.7881,-2.7192,-2.6591,-2.6021,-2.5868,-2.587,-2.6116,-2.5916,-2.5983,-2.6279,-2.6392,-2.6375,-2.6279,-2.677,-2.6432,-2.5492,-2.5682,-2.5547,-2.518,-2.5012,-2.4397,-2.3605,-2.3227,-2.2557,-2.1698,-2.1199,-2.1278,-2.1532,-2.0987,-2.1163,-2.1517,-2.0987,-2.0827,-2.0778,-2.0613,-2.0512,-2.0444,-2.0561,-2.0392,-2.022,-2.0323,-2.027,-2.022,-2.0323,-2.0135,-1.9889,-1.9762,-1.9617,-1.9508,-1.9479,-1.9508,-1.9654,-2.0115,-2.0061,0.0,0.0,-2.1392,-2.221,-2.2826,-2.3938,-2.4873,-2.5366,-2.5967,-2.6423,-2.6631,-2.7004,-2.7186,-2.7052,-2.7141,-2.6878,-2.6178,-2.6113,-2.5832,-2.5318,-2.5166,-2.4937,-2.4657,-2.3363,-2.2713,-2.2359,-1.3733,-0.6626,-0.0707,0.6446,1.2622,1.7545,1.6389,1.5758,1.5341,1.3655,1.3185,1.336,1.283,1.2877,1.3297,-2.5756,-2.6482,-2.7119,-2.7282,-2.7795,-2.8186,-2.8186,-2.8299,-2.8411,-2.8411,-2.8411,-2.835,-2.8181,-2.8165,-2.7904,-2.7226,-2.7165,-2.6949,-2.6426,-2.7076,-2.7233,-2.6713,-2.5979,-2.5536,-2.5368,-2.5351,-2.5383,-2.5379,-2.5095,-2.5113,-2.5418,-2.5465,-2.5385,-2.5223,-2.5798,-2.5263,-2.3967,-2.448,-2.433,-2.3803,-2.372,-2.3128,-2.2246,-2.2246,-2.1647,-2.0794,-2.0794,-2.1124,-2.1484,-2.0884,-2.1038,-2.1365,-2.0767,-2.0494,-2.0323,-2.0323,-2.0239,-2.017,-2.0025,-1.9919,-1.9919,-1.999,-1.999,-1.9955,-1.999,-1.9797,-1.953,-1.953,-1.9273,-1.9176,-1.9384,-1.925,-1.9288,-1.9812,0.0,0.0,0.0,-2.1361,-2.2188,-2.2408,-2.3567,-2.4411,-2.4559,-2.5095,-2.5507,-2.5634,-2.6191,-2.6359,-2.5958,-2.6113,-2.5976,-2.5445,-2.5449,-2.5365,-2.5168,-2.4936,-2.4416,-2.3601,-2.0891,-1.9194,-1.8002,-0.5963,0.036,0.2325,1.1617,1.6046,1.6697,1.6547,1.6219,1.5697,1.4715,1.453,1.4665,1.3834,1.3736,1.4146,-2.5568,-2.5879,-2.6097,-2.668,-2.7195,-2.7565,-2.7565,-2.8024,-2.8411,-2.8411,-2.8411,-2.8165,-2.7534,-2.7473,-2.7196,-2.6518,-2.6457,-2.6441,-2.638,-2.5854,-2.5484,-2.5438,-2.4791,-2.458,-2.4942,-2.4942,-2.4862,-2.4666,-2.4577,-2.4337,-2.3968,-2.3968,-2.3984,-2.405,-2.4148,-2.4115,-2.3983,-2.3567,-2.3481,-2.3499,-2.2976,-2.2386,-2.1856,-2.1856,-2.1395,-2.0794,-2.0794,-2.0693,-2.0522,-2.046,-2.0285,-2.0137,-2.0091,-2.0041,-2.0041,-2.0041,-1.9797,-1.9639,-1.9919,-1.9762,-1.9639,-1.9995,-1.9904,-1.9797,-2.0045,-1.9889,-1.9639,-1.953,-1.9273,-1.9101,-1.9139,-1.9101,-1.9213,-1.9493,0.0,0.0,-1.9955,-1.9873,-2.0066,-2.094,-2.115,-2.1439,-2.199,-2.279,-2.3193,-2.3087,-2.4192,-2.4862,-2.4823,-2.5006,-2.5152,-2.5225,-2.5288,-2.5129,-2.4752,-2.4598,-2.3467,-2.1284,-1.6718,-1.3293,-1.0759,-0.4077,0.1988,0.7299,0.8812,1.2196,1.6667,1.6099,1.5844,1.5726,1.5031,1.4741,1.4665,1.4288,1.4301,1.4596,-2.3529,-2.4233,-2.4955,-2.5531,-2.5763,-2.6129,-2.6872,-2.6579,-2.637,-2.6723,-2.6733,-2.6576,-2.6319,-2.6566,-2.6488,-2.578,-2.5718,-2.5549,-2.5118,-2.4841,-2.4687,-2.4687,-2.404,-2.3856,-2.427,-2.3631,-2.3291,-2.324,-2.3054,-2.3009,-2.3112,-2.3208,-2.3127,-2.2998,-2.3473,-2.3046,-2.1954,-2.23,-2.2099,-2.1516,-2.15,-2.1274,-2.0936,-2.1122,-2.0915,-2.0545,-2.0545,-2.0392,-2.015,-2.015,-2.0096,-2.0005,-2.0005,-1.9848,-1.9654,-1.9472,-1.9362,-1.9273,-1.9398,-1.9362,-1.9325,-1.9545,-1.9472,-1.9398,-1.9545,-1.9472,-1.9442,-1.9777,-1.9526,-1.9237,-1.9276,-1.9037,-1.8902,-1.8983,0.0,-1.9614,-1.9806,-2.0519,-2.0959,-2.061,-2.0976,-2.1339,-2.1493,-2.1922,-2.2346,-2.2651,-2.3343,-2.3933,-2.4298,-2.4801,-2.5056,-2.5013,-2.52,-2.5227,-2.5068,-2.0313,-1.7408,-1.6299,-0.8515,-0.4267,-0.3058,0.2943,0.7134,0.9797,1.2042,1.4648,1.7234,1.6144,1.595,1.6308,1.5654,1.5404,1.5374,1.524,1.5255,1.5359,-2.2264,-2.2986,-2.3724,-2.4337,-2.4532,-2.4933,-2.5747,-2.5292,-2.5097,-2.5668,-2.5649,-2.5526,-2.5317,-2.5606,-2.5528,-2.4841,-2.478,-2.4625,-2.4333,-2.4302,-2.4302,-2.4302,-2.3871,-2.3661,-2.37,-2.2979,-2.2446,-2.2144,-2.1927,-2.1917,-2.2086,-2.2182,-2.2118,-2.1907,-2.2439,-2.1933,-2.0791,-2.1298,-2.1083,-2.0357,-2.0595,-2.0512,-2.0273,-2.0494,-2.0426,-2.0289,-2.0289,-2.008,-1.9848,-1.9848,-1.9777,-1.9741,-1.9741,-1.9545,-1.9347,-1.9139,-1.9026,-1.8898,-1.8898,-1.8784,-1.8784,-1.9176,-1.9265,-1.9213,-1.9302,-1.9336,-1.9445,-1.9868,-1.968,-1.9433,-1.9475,-1.9208,-1.8952,-1.8952,-1.9405,-1.9653,-1.9415,-2.0298,-2.0641,-1.9818,-2.0279,-2.069,-2.0684,-2.1129,-2.1611,-2.2152,-2.2563,-2.3056,-2.3671,-2.419,-2.4549,-2.4774,-2.2521,-2.1473,-2.1839,-1.6478,-1.2177,-0.8904,-0.0849,0.3471,0.4502,0.9826,1.2579,1.3299,1.5337,1.6736,1.7543,1.635,1.6188,1.6621,1.5995,1.5741,1.5741,1.5741,1.5712,1.5668,-2.2183,-2.2291,-2.2495,-2.3067,-2.3668,-2.4098,-2.4112,-2.4546,-2.5018,-2.5493,-2.5555,-2.53,-2.4642,-2.4567,-2.4313,-2.3655,-2.3595,-2.3824,-2.4261,-2.4302,-2.4302,-2.4302,-2.4302,-2.3979,-2.3302,-2.3286,-2.2701,-2.1604,-2.145,-2.1183,-2.0794,-2.0711,-2.0744,-2.0794,-2.0794,-2.0794,-2.0794,-2.0794,-2.0646,-2.041,-2.041,-2.022,-2.0005,-2.0005,-2.0005,-2.0005,-2.0005,-1.9762,-1.9479,-1.9479,-1.931,-1.9101,-1.9101,-1.9101,-1.9101,-1.9101,-1.8822,-1.85,-1.85,-1.8147,-1.8028,-1.9026,-1.9339,-1.9391,-1.9376,-1.9595,-1.9767,-1.9632,-1.9641,-1.969,-1.969,-1.9574,-1.9472,-1.9472,-1.9472,-1.9314,-1.8762,-1.8681,-1.8549,-1.8252,-1.8598,-1.8991,-1.9273,-2.019,-2.091,-2.1256,-2.1653,-2.216,-2.2764,-2.2988,-2.3492,-2.4382,-1.6742,-1.3106,-1.4118,-1.3605,-0.8551,0.0917,0.5645,0.9205,1.1805,1.579,1.7907,1.8381,1.7829,1.7515,1.7375,1.6743,1.6541,1.6545,1.5862,1.561,1.561,1.561,1.5522,1.5389,-2.164,-2.1681,-2.1871,-2.2481,-2.2374,-2.2487,-2.3351,-2.2884,-2.2665,-2.3231,-2.3259,-2.3166,-2.2933,-2.3225,-2.3318,-2.3127,-2.3421,-2.3824,-2.4261,-2.3994,-2.3613,-2.3201,-2.3014,-2.2716,-2.2415,-2.167,-2.1013,-2.0562,-2.0771,-2.0746,-2.0441,-2.046,-2.0392,-2.0235,-2.0235,-2.0235,-2.0235,-2.0235,-2.0045,-1.9767,-2.001,-1.994,-1.969,-1.9919,-1.9848,-1.9639,-1.9639,-1.9258,-1.8846,-1.9124,-1.8974,-1.8745,-1.9026,-1.8898,-1.8669,-1.8669,-1.8344,-1.7988,-1.7988,-1.7908,-1.7868,-1.8305,-1.8733,-1.8943,-1.8584,-1.9195,-1.9737,-1.9337,-1.9235,-1.9125,-1.878,-1.8668,-1.8448,-1.8034,-1.8304,-1.8367,-1.7747,-1.7702,-1.7536,-1.6995,-1.7356,-1.7733,-1.8023,-1.8598,-1.9322,-2.019,-2.1047,-2.1599,-2.1666,-2.2905,-2.1183,-1.5956,-1.448,-0.8879,0.1393,0.165,0.3198,0.6216,1.2886,1.6483,1.7227,1.7954,1.8584,1.9059,1.8003,1.8081,1.8826,1.724,1.6886,1.7247,1.6174,1.5741,1.5741,1.5741,1.5668,1.5551,-2.1423,-2.1423,-2.1532,-2.1898,-2.1654,-2.1667,-2.2363,-2.1898,-2.1594,-2.2193,-2.2219,-2.2184,-2.2184,-2.2449,-2.2632,-2.2632,-2.2834,-2.3078,-2.339,-2.2882,-2.2443,-2.2084,-2.1644,-2.1416,-2.1377,-2.0868,-2.0426,-1.998,-2.0239,-2.0289,-2.0166,-2.022,-2.0166,-2.0005,-2.0005,-2.0005,-2.0005,-2.0005,-1.9797,-1.953,-1.9726,-1.9617,-1.9347,-1.9384,-1.9273,-1.9072,-1.8869,-1.8563,-1.8266,-1.85,-1.8422,-1.8266,-1.85,-1.8422,-1.8226,-1.8305,-1.7988,-1.7571,-1.7449,-1.7242,-1.7128,-1.7264,-1.8116,-1.8864,-1.8548,-1.9152,-1.9627,-1.9053,-1.8882,-1.8733,-1.8413,-1.8251,-1.8025,-1.7698,-1.7747,-1.7678,-1.7059,-1.6846,-1.6532,-1.5964,-1.6464,-1.6941,-1.7081,-1.7666,-1.8299,-1.8956,-2.0082,-2.0367,-1.952,-2.0656,-1.8179,-1.1303,-0.8804,-0.251,0.807,1.1149,1.2711,1.2877,1.7473,1.9647,1.9611,1.9194,1.9153,1.9369,1.8588,1.8741,1.9383,1.7899,1.74,1.748,1.6502,1.5994,1.5799,1.5799,1.5712,1.561,-2.1423,-2.1423,-2.1423,-2.1423,-2.1423,-2.1423,-2.1423,-2.1423,-2.1568,-2.2044,-2.2137,-2.2137,-2.2137,-2.2137,-2.2137,-2.2137,-2.2057,-2.2004,-2.1989,-2.1451,-2.1073,-2.0956,-2.0364,-2.0094,-2.0215,-2.0663,-2.0509,-1.9752,-1.9788,-1.9854,-1.9955,-1.9955,-1.9919,-1.9935,-1.9935,-1.9935,-1.9935,-1.9935,-1.9726,-1.9406,-1.9406,-1.9236,-1.8936,-1.8592,-1.8422,-1.8383,-1.7948,-1.7787,-1.776,-1.7747,-1.7787,-1.7828,-1.7841,-1.7801,-1.7787,-1.7868,-1.7571,-1.7105,-1.6744,-1.6312,-1.5989,-1.6162,-1.7467,-1.8803,-1.8811,-1.9175,-1.9387,-1.8722,-1.8518,-1.8401,-1.8282,-1.812,-1.7893,-1.7739,-1.7395,-1.6917,-1.6316,-1.5867,-1.5391,-1.4868,-1.5632,-1.6188,-1.6188,-1.6941,-1.7409,-1.7395,-1.8487,-1.8433,-1.6651,-1.6861,-1.4397,-0.8613,-0.1035,0.4908,0.9072,1.593,1.9465,1.9574,1.9617,1.9632,1.9574,1.9669,1.9581,1.9376,1.9413,1.9376,1.9258,1.8563,1.7983,1.7467,1.6882,1.6368,1.5888,1.5888,1.5757,1.561,-2.1423,-2.1423,-2.1423,-2.1423,-2.1423,-2.1423,-2.1423,-2.1423,-2.1423,-2.1568,-2.1568,-2.1568,-2.1568,-2.1568,-2.1568,-2.1568,-2.1918,-2.2126,-2.2018,-2.1527,-2.0841,-1.9874,-1.965,-1.9353,-1.891,-1.9515,-1.9752,-1.9551,-1.9833,-1.9833,-1.9603,-1.9603,-1.9493,-1.9288,-1.9288,-1.9288,-1.9288,-1.9288,-1.9049,-1.8731,-1.8731,-1.8461,-1.8068,-1.7988,-1.7948,-1.7948,-1.7828,-1.7598,-1.7352,-1.7407,-1.7652,-1.7948,-1.8055,-1.7855,-1.7503,-1.7175,-1.674,-1.6337,-1.5788,-1.5623,-1.5676,-1.6045,-1.6582,-1.7119,-1.7435,-1.8361,-1.883,-1.7728,-1.7791,-1.7717,-1.6677,-1.6666,-1.6417,-1.5096,-1.4836,-1.4518,-1.3674,-1.3163,-1.2812,-1.2686,-1.3205,-1.3601,-1.3601,-1.4098,-1.4362,-1.4227,-1.4809,-1.5064,-1.4876,-1.3556,-0.888,-0.0306,0.3061,0.8686,1.6853,1.8557,1.9413,1.9465,1.945,1.945,1.9465,1.945,1.9413,1.9339,1.9376,1.9376,1.9244,1.862,1.8352,1.8278,1.7626,1.7037,1.6502,1.6502,1.6114,1.561,-2.1423,-2.1423,-2.1423,-2.1423,-2.1423,-2.1423,-2.1423,-2.1423,-2.1423,-2.1423,-2.1423,-2.1423,-2.1423,-2.1423,-2.1423,-2.1423,-2.1389,-2.1254,-2.0908,-2.0424,-1.971,-1.8767,-1.8699,-1.8641,-1.8478,-1.8836,-1.9124,-1.931,-1.9472,-1.9472,-1.931,-1.931,-1.9236,-1.9101,-1.9101,-1.9101,-1.9101,-1.9101,-1.8988,-1.8784,-1.8592,-1.8344,-1.8068,-1.7679,-1.7516,-1.7475,-1.7256,-1.706,-1.6892,-1.6976,-1.7186,-1.7352,-1.7282,-1.7073,-1.6765,-1.6287,-1.5964,-1.5724,-1.5164,-1.5028,-1.5108,-1.5373,-1.5725,-1.6177,-1.6903,-1.7641,-1.7972,-1.6972,-1.6961,-1.6841,-1.596,-1.5708,-1.5297,-1.4086,-1.3597,-1.3047,-1.2262,-1.1703,-1.1416,-1.1416,-1.1868,-1.228,-1.2513,-1.2033,-1.173,-1.1694,-1.0886,-1.0131,-0.9454,-0.7378,-0.2501,0.5535,0.7569,1.1979,1.9184,1.9265,1.9265,1.9265,1.9413,1.9465,1.9413,1.9465,1.9465,1.9339,1.9339,1.9339,1.931,1.9179,1.8991,1.8759,1.8309,1.7746,1.7116,1.6635,1.6127,1.5712,-2.104,-2.1067,-2.1108,-2.1153,-2.1166,-2.1215,-2.1277,-2.1326,-2.1313,-2.1375,-2.1423,-2.1423,-2.1423,-2.1423,-2.1423,-2.1423,-2.0833,-2.0251,-1.9741,-1.916,-1.8506,-1.7855,-1.7842,-1.7989,-1.84,-1.8439,-1.8659,-1.9101,-1.9101,-1.9101,-1.9101,-1.9026,-1.9026,-1.9101,-1.9026,-1.8988,-1.8988,-1.8988,-1.8898,-1.8745,-1.8422,-1.8226,-1.8054,-1.7352,-1.7031,-1.6892,-1.6509,-1.6337,-1.6293,-1.6448,-1.6491,-1.6448,-1.6188,-1.6088,-1.6001,-1.549,-1.5242,-1.5107,-1.4709,-1.4422,-1.423,-1.4408,-1.4761,-1.5245,-1.6157,-1.6844,-1.7078,-1.6373,-1.6114,-1.5874,-1.5342,-1.4821,-1.4156,-1.3429,-1.2657,-1.1918,-1.1243,-1.0861,-1.0549,-1.0375,-1.0638,-1.0939,-1.1135,-0.9984,-0.9091,-0.8756,-0.6976,-0.5222,-0.3579,-0.0765,0.3403,0.9103,1.1568,1.4845,1.9049,1.9101,1.9101,1.9101,1.9413,1.9501,1.9376,1.9501,1.9501,1.9413,1.9376,1.9239,1.9101,1.9465,1.9208,1.862,1.846,1.7956,1.7205,1.6338,1.5855,1.5624,-1.9555,-1.9684,-1.9804,-2.0294,-2.0372,-2.0472,-2.0809,-2.0908,-2.1006,-2.1361,-2.1423,-2.1423,-2.1423,-2.1423,-2.1423,-2.1423,-2.0833,-2.0251,-1.9741,-1.916,-1.8409,-1.7515,-1.7516,-1.772,-1.8082,-1.8189,-1.8542,-1.9101,-1.9101,-1.9101,-1.9101,-1.8745,-1.8784,-1.9064,-1.8745,-1.8592,-1.8592,-1.8592,-1.8147,-1.7434,-1.7393,-1.7144,-1.6765,-1.6637,-1.6324,-1.5964,-1.592,-1.57,-1.549,-1.5567,-1.5668,-1.5724,-1.57,-1.5744,-1.5756,-1.5119,-1.4641,-1.4261,-1.414,-1.3552,-1.3112,-1.3481,-1.3542,-1.3551,-1.3763,-1.531,-1.6543,-1.6036,-1.5507,-1.4845,-1.4076,-1.3356,-1.2434,-1.1391,-1.0975,-1.0552,-0.995,-0.9781,-0.9484,-0.8718,-0.8364,-0.7923,-0.7094,-0.694,-0.5979,-0.3756,-0.3316,-0.2501,-0.1004,0.3285,0.6788,0.9217,1.3485,1.681,1.9101,1.9101,1.9101,1.9101,1.9265,1.9339,1.9339,1.9376,1.9413,1.9413,1.9501,1.9083,1.8263,1.832,1.7896,1.7187,1.7148,1.6523,1.5582,1.5337,1.5034,1.4923,-1.8918,-1.8935,-1.9025,-1.9269,-1.932,-1.9355,-1.9534,-1.9582,-1.9747,-2.0219,-2.0465,-2.0622,-2.0574,-2.0574,-2.0611,-2.0696,-2.0197,-1.9764,-1.9501,-1.8679,-1.8017,-1.7652,-1.7356,-1.738,-1.772,-1.7774,-1.8002,-1.8383,-1.863,-1.8745,-1.8745,-1.8305,-1.8187,-1.8383,-1.8187,-1.8108,-1.8108,-1.8108,-1.7868,-1.7516,-1.7282,-1.6934,-1.6497,-1.6194,-1.58,-1.5412,-1.5412,-1.5322,-1.5232,-1.5344,-1.5433,-1.5433,-1.5096,-1.505,-1.4915,-1.4097,-1.3663,-1.3474,-1.3392,-1.3152,-1.2842,-1.2667,-1.2841,-1.2909,-1.2387,-1.309,-1.3923,-1.4035,-1.3611,-1.2999,-1.2289,-1.1464,-1.0649,-0.9812,-0.9389,-0.8921,-0.8084,-0.7981,-0.7778,-0.7311,-0.6661,-0.6049,-0.5612,-0.4518,-0.3018,-0.1089,0.0326,0.184,0.3643,0.8006,1.0973,1.2108,1.5869,1.8268,1.9101,1.9101,1.9101,1.9101,1.9139,1.9265,1.9376,1.9376,1.9413,1.9383,1.8949,1.8473,1.7962,1.7797,1.75,1.7149,1.7013,1.6327,1.5398,1.5351,1.5137,1.5063]},{"header":{"parameterUnit":"m.s-1","parameterCategory":1,"la1":30.6,"la2":28.766,"lo1":-90.7593,"lo2":-88.6598,"dy":0.0162,"dx":0.0183,"nx":116,"ny":114,"refTime":"2023-08-17T06:00:00:Z","depth":0,"parameterNumber":3,"parameterNumberName":"V-component_of_WINDS"},"data":[0.0,0.0,0.0,0.0,0.0,0.0,0.0,0.0,0.0,0.0,0.0,0.0,0.0,0.0,0.0,0.0,0.0,0.0,0.0,0.0,0.0,0.0,0.0,0.0,0.0,0.0,0.0,0.0,0.0,0.0,0.0,0.0,0.0,0.0,0.0,0.0,0.0,0.0,0.0,0.0,0.0,0.0,0.0,0.0,0.0,0.0,0.0,0.0,0.0,0.0,0.0,0.0,0.0,0.0,0.0,0.0,0.0,0.0,0.0,0.0,0.0,0.0,0.0,0.0,0.0,0.0,0.0,0.0,0.0,0.0,0.0,0.0,0.0,0.0,0.0,0.0,0.0,0.0,0.0,0.0,0.0,0.0,0.0,0.0,0.0,0.0,0.0,0.0,0.0,0.0,0.0,0.0,0.0,0.0,0.0,0.0,0.0,0.0,0.0,0.0,0.0,0.0,0.0,0.0,0.0,0.0,0.0,0.0,0.0,0.0,0.0,0.0,0.0,0.0,0.0,0.0,0.0,0.0,0.0,0.0,0.0,0.0,0.0,0.0,0.0,0.0,0.0,0.0,0.0,0.0,0.0,0.0,0.0,0.0,0.0,0.0,0.0,0.0,0.0,0.0,0.0,0.0,0.0,0.0,0.0,0.0,0.0,0.0,0.0,0.0,0.0,0.0,0.0,0.0,0.0,0.0,0.0,0.0,0.0,0.0,0.0,0.0,0.0,0.0,0.0,0.0,0.0,0.0,0.0,0.0,0.0,0.0,0.0,0.0,0.0,0.0,0.0,0.0,0.0,0.0,0.0,0.0,0.0,0.0,0.0,0.0,0.0,0.0,0.0,0.0,0.0,0.0,0.0,0.0,0.0,0.0,0.0,0.0,0.0,0.0,0.0,0.0,0.0,0.0,0.0,0.0,0.0,0.0,0.0,0.0,0.0,0.0,0.0,0.0,0.0,0.0,0.0,0.0,0.0,0.0,0.0,0.0,0.0,0.0,0.0,0.0,0.0,0.0,0.0,0.0,0.0,0.0,0.0,0.0,0.0,0.0,0.0,0.0,0.0,0.0,0.0,0.0,0.0,0.0,0.0,0.0,0.0,0.0,0.0,0.0,0.0,0.0,0.0,0.0,0.0,0.0,0.0,0.0,0.0,0.0,0.0,0.0,0.0,0.0,0.0,0.0,0.0,0.0,0.0,0.0,0.0,0.0,0.0,0.0,0.0,0.0,0.0,0.0,0.0,0.0,0.0,0.0,0.0,0.0,0.0,0.0,0.0,0.0,0.0,0.0,0.0,0.0,0.0,0.0,0.0,0.0,0.0,0.0,0.0,0.0,0.0,0.0,0.0,0.0,0.0,0.0,0.0,0.0,0.0,0.0,0.0,0.0,0.0,0.0,0.0,0.0,0.0,0.0,0.0,0.0,0.0,0.0,0.0,0.0,0.0,0.0,0.0,0.0,0.0,0.0,0.0,0.0,0.0,0.0,0.0,0.0,0.0,0.0,0.0,0.0,0.0,0.0,0.0,0.0,0.0,0.0,0.0,0.0,0.0,0.0,0.0,0.0,0.0,0.0,0.0,0.0,0.0,0.0,0.0,0.0,0.0,0.0,0.0,0.0,0.0,0.0,0.0,0.0,0.0,0.0,0.0,0.0,0.0,0.0,0.0,0.0,0.0,0.0,0.0,0.0,0.0,0.0,0.0,0.0,0.0,0.0,0.0,0.0,0.0,0.0,0.0,0.0,0.0,0.0,0.0,0.0,0.0,0.0,0.0,0.0,0.0,0.0,0.0,0.0,0.0,0.0,0.0,0.0,0.0,0.0,0.0,0.0,0.0,0.0,0.0,0.0,0.0,0.0,0.0,0.0,0.0,0.0,0.0,0.0,0.0,0.0,0.0,0.0,0.0,0.0,0.0,0.0,0.0,0.0,0.0,0.0,0.0,0.0,0.0,0.0,0.0,0.0,0.0,0.0,0.0,0.0,0.0,0.0,0.0,0.0,0.0,0.0,0.0,0.0,0.0,0.0,0.0,0.0,0.0,0.0,0.0,0.0,0.0,0.0,0.0,0.0,0.0,0.0,0.0,0.0,0.0,0.0,0.0,0.0,0.0,0.0,0.0,0.0,0.0,0.0,0.0,0.0,0.0,0.0,0.0,0.0,0.0,0.0,0.0,0.0,0.0,0.0,0.0,0.0,0.0,0.0,0.0,0.0,0.0,0.0,0.0,0.0,0.0,0.0,0.0,0.0,0.0,0.0,0.0,0.0,0.0,0.0,0.0,0.0,0.0,0.0,0.0,0.0,0.0,0.0,0.0,0.0,0.0,0.0,0.0,0.0,0.0,0.0,0.0,0.0,0.0,0.0,0.0,0.0,0.0,0.0,0.0,0.0,0.0,0.0,0.0,0.0,0.0,0.0,0.0,0.0,0.0,0.0,0.0,0.0,0.0,0.0,0.0,0.0,0.0,0.0,0.0,0.0,0.0,0.0,0.0,0.0,0.0,0.0,0.0,0.0,0.0,0.0,0.0,0.0,0.0,0.0,0.0,0.0,0.0,0.0,0.0,0.0,0.0,0.0,0.0,0.0,0.0,0.0,0.0,0.0,0.0,0.0,0.0,0.0,0.0,0.0,0.0,0.0,0.0,0.0,0.0,0.0,0.0,0.0,0.0,0.0,0.0,0.0,0.0,0.0,0.0,0.0,0.0,0.0,0.0,0.0,0.0,0.0,0.0,0.0,0.0,0.0,0.0,0.0,0.0,0.0,0.0,0.0,0.0,0.0,0.0,0.0,0.0,0.0,0.0,0.0,0.0,0.0,0.0,0.0,0.0,0.0,0.0,0.0,0.0,0.0,0.0,0.0,0.0,0.0,0.0,0.0,0.0,0.0,0.0,0.0,0.0,0.0,0.0,0.0,0.0,0.0,0.0,0.0,0.0,0.0,0.0,0.0,0.0,0.0,0.0,0.0,0.0,0.0,0.0,0.0,0.0,0.0,0.0,0.0,0.0,0.0,0.0,0.0,0.0,0.0,0.0,0.0,0.0,0.0,0.0,0.0,0.0,0.0,0.0,0.0,0.0,0.0,0.0,0.0,0.0,0.0,0.0,0.0,0.0,0.0,0.0,0.0,0.0,0.0,0.0,0.0,0.0,0.0,0.0,0.0,0.0,0.0,0.0,0.0,0.0,0.0,0.0,0.0,0.0,0.0,0.0,0.0,0.0,0.0,0.0,0.0,0.0,0.0,0.0,0.0,0.0,0.0,0.0,0.0,0.0,0.0,0.0,0.0,0.0,0.0,0.0,0.0,0.0,0.0,0.0,0.0,0.0,0.0,0.0,0.0,0.0,0.0,0.0,0.0,0.0,0.0,0.0,0.0,0.0,0.0,0.0,0.0,0.0,0.0,0.0,0.0,0.0,0.0,0.0,0.0,0.0,0.0,0.0,0.0,0.0,0.0,0.0,0.0,0.0,0.0,0.0,0.0,0.0,0.0,0.0,0.0,0.0,0.0,0.0,0.0,0.0,0.0,0.0,0.0,0.0,0.0,0.0,0.0,0.0,0.0,0.0,0.0,0.0,0.0,0.0,0.0,0.0,0.0,0.0,0.0,0.0,0.0,0.0,0.0,0.0,0.0,0.0,0.0,0.0,0.0,0.0,0.0,0.0,0.0,0.0,0.0,0.0,0.0,0.0,0.0,0.0,0.0,0.0,0.0,0.0,0.0,0.0,0.0,0.0,0.0,0.0,0.0,0.0,0.0,0.0,0.0,0.0,0.0,0.0,0.0,0.0,0.0,0.0,0.0,0.0,0.0,0.0,0.0,0.0,0.0,0.0,0.0,0.0,0.0,0.0,0.0,0.0,0.0,0.0,0.0,0.0,0.0,0.0,0.0,0.0,0.0,0.0,0.0,0.0,0.0,0.0,0.0,0.0,0.0,0.0,0.0,0.0,0.0,0.0,0.0,0.0,0.0,0.0,0.0,0.0,0.0,0.0,0.0,0.0,0.0,0.0,0.0,0.0,0.0,0.0,0.0,0.0,0.0,0.0,0.0,0.0,0.0,0.0,0.0,0.0,0.0,0.0,0.0,0.0,0.0,0.0,0.0,0.0,0.0,0.0,0.0,0.0,0.0,0.0,0.0,0.0,0.0,0.0,0.0,0.0,0.0,0.0,0.0,0.0,0.0,0.0,0.0,0.0,0.0,0.0,0.0,0.0,0.0,0.0,0.0,0.0,0.0,0.0,0.0,0.0,0.0,0.0,0.0,0.0,0.0,0.0,0.0,0.0,0.0,0.0,0.0,0.0,0.0,0.0,0.0,0.0,0.0,0.0,0.0,0.0,0.0,0.0,0.0,0.0,0.0,0.0,0.0,0.0,0.0,0.0,0.0,0.0,0.0,0.0,0.0,0.0,0.0,0.0,0.0,0.0,0.0,0.0,0.0,0.0,0.0,0.0,0.0,0.0,0.0,0.0,0.0,0.0,0.0,0.0,0.0,0.0,0.0,0.0,0.0,0.0,0.0,0.0,0.0,0.0,0.0,0.0,0.0,0.0,0.0,0.0,0.0,0.0,0.0,0.0,0.0,0.0,0.0,0.0,0.0,0.0,0.0,0.0,0.0,0.0,0.0,0.0,0.0,0.0,0.0,0.0,0.0,0.0,0.0,0.0,0.0,0.0,0.0,0.0,0.0,0.0,0.0,0.0,0.0,0.0,0.0,0.0,0.0,0.0,0.0,0.0,0.0,0.0,0.0,0.0,0.0,0.0,0.0,0.0,0.0,0.0,0.0,0.0,0.0,0.0,0.0,0.0,0.0,0.0,0.0,0.0,0.0,0.0,0.0,0.0,0.0,0.0,0.0,0.0,0.0,0.0,0.0,0.0,0.0,0.0,0.0,0.0,0.0,0.0,0.0,0.0,0.0,0.0,0.0,0.0,0.0,0.0,0.0,0.0,0.0,0.0,0.0,0.0,0.0,0.0,0.0,0.0,0.0,0.0,0.0,0.0,0.0,0.0,0.0,0.0,0.0,0.0,0.0,0.0,0.0,0.0,0.0,0.0,0.0,0.0,0.0,0.0,0.0,0.0,0.0,0.0,0.0,0.0,0.0,0.0,0.0,0.0,0.0,0.0,0.0,0.0,0.0,0.0,0.0,0.0,0.0,0.0,0.0,0.0,0.0,0.0,0.0,0.0,0.0,0.0,0.0,0.0,0.0,0.0,0.0,0.0,0.0,0.0,0.0,0.0,0.0,0.0,0.0,0.0,0.0,0.0,0.0,0.0,0.0,0.0,0.0,0.0,0.0,0.0,0.0,0.0,0.0,0.0,0.0,0.0,0.0,0.0,0.0,0.0,0.0,0.0,0.0,0.0,0.0,0.0,0.0,0.0,0.0,0.0,0.0,0.0,0.0,0.0,0.0,0.0,0.0,0.0,0.0,0.0,0.0,0.0,0.0,0.0,0.0,0.0,0.0,0.0,0.0,0.0,0.0,0.0,0.0,0.0,0.0,0.0,0.0,0.0,0.0,0.0,0.0,0.0,0.0,0.0,0.0,0.0,0.0,0.0,0.0,0.0,0.0,0.0,0.0,0.0,0.0,0.0,0.0,0.0,0.0,0.0,0.0,0.0,0.0,0.0,0.0,0.0,0.0,0.0,0.0,0.0,0.0,0.0,0.0,0.0,0.0,0.0,0.0,0.0,0.0,0.0,0.0,0.0,0.0,0.0,0.0,0.0,0.0,0.0,0.0,0.0,0.0,0.0,0.0,0.0,0.0,0.0,0.0,0.0,0.0,0.0,0.0,0.0,0.0,0.0,0.0,0.0,0.0,0.0,0.0,0.0,0.0,0.0,0.0,0.0,0.0,0.0,0.0,0.0,0.0,0.0,0.0,0.0,0.0,0.0,0.0,0.0,0.0,0.0,0.0,0.0,0.0,0.0,0.0,0.0,0.0,0.0,0.0,0.0,0.0,0.0,0.0,0.0,0.0,0.0,0.0,0.0,0.0,0.0,0.0,0.0,0.0,0.0,0.0,0.0,0.0,0.0,0.0,0.0,0.0,0.0,0.0,0.0,0.0,0.0,0.0,0.0,0.0,0.0,0.0,0.0,0.0,0.0,0.0,0.0,0.0,-1.7395,0.0,0.0,0.0,0.0,0.0,0.0,0.0,0.0,0.0,0.0,0.0,0.0,0.0,0.0,0.0,0.0,0.0,0.0,0.0,0.0,0.0,0.0,0.0,0.0,0.0,0.0,0.0,0.0,0.0,0.0,0.0,0.0,0.0,0.0,0.0,0.0,0.0,0.0,0.0,0.0,0.0,0.0,0.0,0.0,0.0,0.0,0.0,0.0,0.0,0.0,0.0,0.0,0.0,0.0,0.0,0.0,0.0,0.0,0.0,0.0,0.0,0.0,0.0,0.0,0.0,0.0,0.0,0.0,0.0,0.0,0.0,0.0,0.0,0.0,0.0,0.0,0.0,0.0,0.0,0.0,0.0,0.0,0.0,0.0,0.0,0.0,0.0,0.0,0.0,0.0,0.0,0.0,0.0,0.0,0.0,0.0,0.0,0.0,0.0,0.0,0.0,0.0,0.0,0.0,0.0,0.0,0.0,0.0,0.0,0.0,0.0,0.0,0.0,0.0,0.0,0.0,-1.7609,0.0,0.0,0.0,0.0,0.0,0.0,0.0,0.0,0.0,0.0,0.0,0.0,0.0,0.0,0.0,0.0,0.0,0.0,0.0,0.0,0.0,0.0,0.0,0.0,0.0,0.0,0.0,0.0,0.0,0.0,0.0,0.0,0.0,0.0,0.0,0.0,0.0,0.0,0.0,0.0,0.0,0.0,0.0,0.0,0.0,0.0,0.0,0.0,0.0,0.0,0.0,0.0,0.0,0.0,0.0,0.0,0.0,0.0,0.0,0.0,0.0,0.0,0.0,0.0,0.0,0.0,0.0,0.0,0.0,0.0,0.0,0.0,0.0,0.0,0.0,0.0,0.0,0.0,0.0,0.0,0.0,0.0,0.0,0.0,0.0,0.0,0.0,0.0,0.0,0.0,0.0,0.0,0.0,0.0,0.0,0.0,0.0,0.0,0.0,0.0,0.0,0.0,0.0,0.0,0.0,0.0,0.0,0.0,-2.0147,-2.0334,-2.0341,-2.0581,-2.0535,-2.0234,-1.98,-1.9239,-1.8604,-1.8408,0.0,0.0,0.0,0.0,0.0,0.0,0.0,0.0,0.0,0.0,0.0,0.0,0.0,0.0,0.0,0.0,0.0,0.0,0.0,0.0,0.0,0.0,0.0,0.0,0.0,0.0,0.0,0.0,0.0,0.0,0.0,0.0,0.0,0.0,0.0,0.0,0.0,0.0,-0.4389,-0.558,-0.6924,-0.8496,-0.9616,0.0,0.0,0.0,0.0,0.0,0.0,0.0,0.0,0.0,0.0,0.0,0.0,0.0,0.0,0.0,0.0,0.0,0.0,0.0,0.0,0.0,0.0,0.0,0.0,0.0,0.0,0.0,0.0,0.0,0.0,0.0,0.0,0.0,0.0,0.0,0.0,0.0,0.0,0.0,0.0,0.0,0.0,0.0,-0.8024,-0.8526,0.0,0.0,0.0,0.0,0.0,0.0,0.0,0.0,0.0,0.0,0.0,0.0,0.0,-1.9535,-1.9967,-2.1002,-2.1436,-2.1276,-2.2078,-2.2458,-2.2458,-2.2498,-2.2352,-2.2084,-2.2265,0.0,-2.0176,-1.9562,0.0,0.0,0.0,0.0,0.0,0.0,0.0,0.0,0.0,0.0,0.0,0.0,0.0,0.0,0.0,0.0,0.0,0.0,0.0,0.0,0.0,0.0,0.0,0.0,0.0,0.0,0.0,0.0,0.0,0.0,0.0,0.0,0.0,0.0,0.0,0.0,-0.0975,-0.2511,-0.4095,-0.5489,-0.7203,-0.9181,-1.076,-1.1738,-1.2386,-1.5485,0.0,0.0,0.0,0.0,0.0,0.0,0.0,0.0,0.0,0.0,0.0,0.0,0.0,0.0,0.0,0.0,0.0,0.0,0.0,0.0,0.0,0.0,0.0,0.0,0.0,0.0,0.0,0.0,0.0,0.0,0.0,0.0,0.0,0.0,0.0,0.0,0.0,0.0,0.0,-0.7875,-0.8458,-0.8357,-0.9316,-0.9904,0.0,0.0,0.0,0.0,0.0,0.0,0.0,0.0,0.0,-1.9685,-2.0532,-2.1169,-2.1456,-2.2138,-2.2585,-2.2806,-2.3187,-2.346,-2.3607,-2.3447,-2.3213,-2.2933,-2.3066,-2.2804,-2.2479,-2.2212,-2.2475,-2.3079,0.0,0.0,0.0,0.0,-2.4068,-2.4621,0.0,0.0,0.0,0.0,0.0,0.0,0.0,0.0,0.0,0.0,0.0,0.0,0.0,0.0,0.0,0.725,0.0,0.0,0.0,0.0,0.0,0.0,0.0,0.0,0.0,0.0,0.0,0.0,-0.1325,-0.2344,-0.3734,-0.5191,-0.7359,-0.9957,-1.1612,-1.2344,-1.2637,-1.598,-1.6841,0.0,0.0,0.0,0.0,0.0,0.0,0.0,0.0,0.0,0.0,0.0,0.0,0.0,0.0,0.0,0.0,0.0,0.0,0.0,0.0,0.0,0.0,0.0,0.0,0.0,0.0,0.0,0.0,0.0,0.0,0.0,0.0,0.0,0.0,0.0,0.0,0.0,0.0,-0.8857,-0.9457,-0.8795,-1.0679,-1.1884,0.0,0.0,0.0,0.0,0.0,0.0,-1.8886,-2.0066,-2.1022,-2.1764,-2.2218,-2.2619,-2.2979,-2.3207,-2.3541,-2.3988,-2.3988,-2.4108,-2.4302,-2.4015,-2.3721,-2.3434,-2.3766,-2.4017,-2.4531,-2.428,-2.5082,-2.6502,-2.5729,-2.5408,-2.5321,-2.5006,-2.5239,-2.5794,0.0,0.0,0.0,0.0,0.0,0.0,0.0,0.0,0.0,0.0,0.0,0.0,0.0,0.0,1.0426,1.0454,0.9119,0.7411,0.0,0.0,0.0,0.0,0.0,0.0,0.0,0.0,0.0,-0.1424,-0.1521,-0.2324,-0.3809,-0.5214,-0.7601,-1.0578,-1.1016,-1.2146,-1.3791,-1.5711,-1.6484,-1.6409,0.0,0.0,0.0,0.0,0.0,0.0,0.0,0.0,0.0,0.0,0.0,0.0,0.0,0.0,0.0,0.0,0.0,0.0,0.0,0.0,0.0,0.0,0.0,0.0,0.0,0.0,0.0,0.0,0.0,0.0,0.0,0.0,0.0,0.0,0.0,0.0,0.0,0.0,0.0,-1.0691,-1.3022,0.0,0.0,0.0,0.0,-1.7577,-1.912,-2.0538,-2.179,-2.1877,-2.2432,-2.3601,-2.3667,-2.3955,-2.4516,-2.4536,-2.4563,-2.4596,-2.4596,-2.4603,-2.4603,-2.4315,-2.4022,-2.387,-2.4804,-2.5465,-2.5712,-2.4531,-2.5014,-2.6371,-2.5648,-2.5661,-2.6051,-2.629,-2.6361,-2.6545,0.0,0.0,0.0,0.0,0.0,0.0,0.0,0.0,0.0,0.0,0.0,0.0,0.0,1.3078,1.2304,1.1117,0.9973,0.8636,0.7076,0.0,0.0,0.0,0.0,0.0,0.0,0.0,-0.0177,-0.0748,-0.1231,-0.249,-0.4361,-0.4454,-0.6176,-0.9234,-1.0882,-1.2441,-1.3987,-1.6339,-1.7288,-1.7286,-1.8766,-1.9713,0.0,0.0,0.0,0.0,0.0,0.0,0.0,0.0,0.0,0.0,0.0,0.0,0.0,0.0,0.0,0.0,0.0,0.0,0.0,0.0,0.0,0.0,0.0,0.0,0.0,0.0,0.0,0.0,0.0,0.0,0.0,0.0,0.0,0.0,0.0,0.0,0.0,-1.317,-1.5253,0.0,-1.6453,-1.8078,-1.953,-2.04,-2.174,-2.2692,-2.3113,-2.3494,-2.3888,-2.4315,-2.4329,-2.4429,-2.4636,-2.4636,-2.4636,-2.4636,-2.4449,-2.4356,-2.4342,-2.3861,-2.3581,-2.3467,-2.3701,-2.4089,-2.4705,-2.5077,-2.6305,-2.8066,-2.7821,-2.7573,-2.7426,-2.7704,-2.7564,-2.7182,0.0,0.0,0.0,0.0,0.0,0.0,0.0,0.0,0.0,0.0,0.0,1.5329,1.448,1.4461,1.3842,1.2344,1.1301,1.0062,0.8463,0.0,0.0,0.0,0.0,0.0,0.0,0.077,0.0178,-0.0366,-0.1121,-0.2448,-0.4231,-0.4227,-0.5917,-0.8955,-1.0968,-1.2456,-1.3779,-1.6744,-1.7854,-1.7754,-1.9808,-2.0933,-2.1182,0.0,0.0,0.0,0.0,0.0,0.0,0.0,0.0,0.0,0.0,0.0,0.0,0.0,0.0,0.0,0.0,0.0,0.0,0.0,0.0,0.0,0.0,0.0,0.0,0.0,0.0,0.0,0.0,0.0,0.0,0.0,0.0,0.0,0.0,0.0,-1.6131,-1.5176,-1.7426,-1.8935,-1.8908,-2.0222,-2.1475,-2.2572,-2.3414,-2.3955,-2.4062,-2.4429,-2.4636,-2.4636,-2.4636,-2.4636,-2.4636,-2.4636,-2.4583,-2.4489,-2.4295,-2.4155,-2.4042,-2.3547,-2.3327,-2.33,-2.3434,-2.389,-2.469,-2.5969,-2.7378,-2.8764,-2.8797,-2.8686,-2.844,-2.8408,-2.7854,-2.7261,0.0,0.0,0.0,0.0,0.0,0.0,0.0,0.0,0.0,0.0,1.5321,1.5625,1.5977,1.5586,1.4985,1.4209,1.3204,1.171,0.95,0.8533,0.0,0.0,0.0,0.0,0.1624,0.1649,0.0986,-0.0358,-0.1003,-0.2113,-0.3489,-0.486,-0.7119,-0.9969,-1.1079,-1.2182,-1.3453,-1.6873,-1.8032,-1.7825,-1.9977,-2.1461,-2.2264,0.0,0.0,0.0,0.0,0.0,0.0,0.0,0.0,0.0,0.0,0.0,0.0,0.0,0.0,0.0,0.0,0.0,0.0,0.0,0.0,0.0,0.0,0.0,0.0,0.0,0.0,0.0,0.0,0.0,0.0,0.0,0.0,0.0,-1.3616,-1.6074,-1.764,-1.6686,-1.9527,-2.1273,-2.0755,-2.1588,-2.2621,-2.3774,-2.4068,-2.4349,-2.4623,-2.4643,-2.4649,-2.4636,-2.4636,-2.4636,-2.4636,-2.4636,-2.4489,-2.4202,-2.4195,-2.4035,-2.3748,-2.3447,-2.3307,-2.3267,-2.4153,-2.4998,-2.5921,-2.7085,-2.7859,-2.8263,-2.8388,-2.8667,-2.8862,-2.8118,-2.7401,-2.6738,0.0,0.0,0.0,0.0,0.0,0.0,0.0,0.0,0.0,0.0,1.7151,1.7049,1.67,1.684,1.6425,1.5076,1.3793,1.2514,1.1354,0.0,0.0,0.0,0.0,0.0,0.3238,0.2152,0.1227,0.0438,-0.0264,-0.175,-0.3875,-0.4653,-0.6452,-0.8945,-0.9852,-1.1736,-1.4357,-1.6513,-1.7662,-1.8423,-2.1184,-2.2433,-2.27,0.0,0.0,0.0,0.0,0.0,0.0,0.0,0.0,0.0,0.0,0.0,0.0,0.0,0.0,0.0,0.0,0.0,0.0,0.0,0.0,0.0,0.0,0.0,0.0,0.0,0.0,0.0,0.0,0.0,0.0,0.0,0.0,-1.6397,-1.6166,-1.847,-1.9876,-1.958,-2.1454,-2.2764,-2.2363,-2.2898,-2.3705,-2.4389,-2.4676,-2.4776,-2.4643,-2.4836,-2.4857,-2.4643,-2.4636,-2.4636,-2.4636,-2.4636,-2.4489,-2.4202,-2.3988,-2.3734,-2.344,-2.3133,-2.2873,-2.2665,-2.312,-2.3175,-2.2985,-2.4874,-2.5782,-2.615,-2.7732,-2.8339,-2.8026,-2.7632,-2.7446,-2.7371,0.0,0.0,0.0,0.0,0.0,0.0,0.0,0.0,0.0,0.0,1.7932,1.7979,1.7116,1.7877,1.7748,1.6121,1.505,1.4011,1.294,0.0,0.0,0.0,0.0,0.5388,0.4451,0.321,0.212,0.1166,0.0417,-0.0987,-0.313,-0.4017,-0.5394,-0.7198,-0.8905,-1.095,-1.3167,-1.5492,-1.7199,-1.87,-2.1272,-2.2505,-2.2892,-2.4296,-2.4975,-2.5149,-2.5537,-2.6101,-2.6569,-2.5932,0.0,0.0,0.0,0.0,0.0,0.0,0.0,0.0,0.0,0.0,0.0,0.0,0.0,0.0,0.0,0.0,0.0,0.0,0.0,0.0,0.0,0.0,0.0,0.0,-1.6918,-1.7787,-1.8427,-1.9783,-2.0883,-2.0868,-2.2005,-2.2705,-2.2946,-2.3254,-2.3754,-2.4475,-2.4796,-2.4816,-2.4643,-2.4796,-2.4816,-2.4643,-2.4636,-2.4636,-2.4636,-2.4636,-2.4429,-2.4022,-2.3848,-2.348,-2.2939,-2.2759,-2.2519,0.0,-2.2298,-2.2745,-2.3398,-2.4462,-2.5456,0.0,0.0,0.0,0.0,0.0,-2.706,-2.7342,0.0,0.0,0.0,0.0,0.0,0.0,0.0,0.0,0.0,0.0,0.0,1.8734,1.7639,1.8663,1.8789,1.7233,1.6634,1.5704,0.0,0.0,0.0,0.8991,0.818,0.7003,0.5331,0.4415,0.3246,0.171,0.1168,0.0,-0.1801,-0.3076,-0.4251,-0.5428,-0.8263,-1.0121,-1.127,-1.4251,-1.6683,-1.8646,-2.051,-2.1946,-2.3134,-2.4809,-2.5569,-2.593,-2.6687,-2.7109,-2.7277,-2.7598,0.0,0.0,0.0,0.0,0.0,0.0,0.0,0.0,0.0,0.0,0.0,0.0,0.0,0.0,0.0,0.0,0.0,0.0,0.0,0.0,0.0,0.0,0.0,0.0,-1.796,-1.8781,-2.0078,-2.0533,-2.0702,-2.1163,-2.146,-2.2023,-2.2854,-2.3031,-2.3439,-2.4468,-2.4636,-2.4636,-2.4636,0.0,0.0,0.0,0.0,-2.4636,-2.4636,-2.4603,-2.4309,-2.3774,-2.3734,-2.326,-2.2418,-2.2418,-2.2245,-2.1924,-2.184,-2.295,-2.4961,-2.5035,-2.6143,-2.76,-2.7391,-2.741,-2.7558,-2.65,-2.6539,-2.6807,0.0,0.0,0.0,0.0,0.0,0.0,0.0,0.0,0.0,1.9976,2.0654,2.0694,1.9573,1.9631,1.932,1.8205,1.7145,1.6032,0.0,0.0,1.2307,1.1255,0.9164,0.7513,0.6415,0.5156,0.3791,0.2358,0.1768,0.0367,-0.1684,-0.2928,-0.4393,-0.5937,-0.7789,-0.9979,-1.2386,-1.3696,-1.5891,-1.8643,-1.9696,-2.1474,-2.3615,-2.5371,-2.6511,-2.7277,-2.7911,-2.8844,-2.9638,-2.8498,-2.8214,-2.8197,-2.73,0.0,0.0,0.0,0.0,0.0,0.0,0.0,0.0,0.0,0.0,0.0,0.0,0.0,0.0,0.0,0.0,0.0,0.0,0.0,0.0,-1.7083,-1.7851,-1.8583,-1.9559,-1.9972,-2.0297,-2.0814,-2.1144,-2.1703,-2.2537,-2.2873,-2.3439,-2.4468,-2.4636,-2.4636,-2.4636,-2.4636,-2.4636,-2.4636,-2.4636,-2.4636,-2.4636,-2.4409,-2.4115,-2.3768,0.0,0.0,-2.2418,-2.2418,-2.2131,-2.165,-2.1824,-2.193,-2.2192,-2.4751,-2.6222,-2.6811,-2.6738,-2.6829,-2.6774,-2.6793,-2.6816,-2.6807,0.0,0.0,0.0,0.0,0.0,0.0,0.0,0.0,0.0,0.0,2.117,2.1341,2.0885,2.0975,2.0545,1.9334,1.8319,0.0,0.0,1.5181,1.4479,1.372,1.1224,0.9443,0.8499,0.663,0.5093,0.3973,0.2699,0.1342,0.0,-0.1675,-0.3229,-0.4827,-0.7012,-0.9411,-1.1988,-1.3871,-1.62,-1.8773,-1.9892,-2.1481,-2.3458,-2.509,-2.6064,-2.6695,-2.8318,-2.9158,-2.943,-2.9233,-2.917,-2.903,-2.8468,-2.7762,-2.6841,0.0,0.0,0.0,0.0,0.0,0.0,0.0,0.0,0.0,0.0,0.0,0.0,0.0,0.0,-1.463,0.0,0.0,-1.6867,-1.7787,-1.7743,-1.7833,-1.8336,-1.8095,-1.8569,-2.0467,-2.0635,-2.1211,-2.2771,-2.2079,-2.2391,-2.4449,-2.4561,-2.4568,-2.4636,-2.4636,-2.4636,-2.4636,-2.4342,-2.4263,-2.4263,-2.4128,-2.3841,-2.3547,-2.324,-2.2779,-2.2198,-2.2051,-2.1744,-2.1329,-2.1323,-2.1468,-2.2053,-2.4633,-2.6101,-2.6582,-2.6646,-2.6591,-2.6626,-2.6443,-2.6418,-2.639,0.0,0.0,0.0,0.0,0.0,0.0,0.0,0.0,0.0,0.0,0.0,2.1909,2.1865,2.212,2.162,0.0,0.0,0.0,0.0,1.7277,1.6729,1.571,1.3469,1.1661,1.0562,0.8368,0.6733,0.577,0.3995,0.2666,0.1743,-0.0201,-0.1831,-0.3326,-0.6037,-0.8697,-1.1172,-1.3885,-1.6532,-1.8955,-2.0167,-2.1685,-2.3308,-2.4612,-2.5227,-2.5716,-2.7947,-2.8426,-2.8182,-2.9258,-2.9448,-2.9341,-2.9274,-2.8905,-2.8114,-2.6276,-2.4963,0.0,0.0,0.0,0.0,0.0,0.0,0.0,0.0,0.0,-1.65,-1.5952,-1.5419,-1.5469,-1.6544,-1.6809,-1.7172,-1.8027,-1.7228,-1.6555,-1.6844,-1.6067,-1.652,-1.9281,-1.9385,-1.9969,-2.166,-2.0647,-2.074,-2.3305,-2.3961,-2.4324,-2.4535,-2.4649,-2.4636,-2.4636,-2.419,-2.3879,-2.372,-2.3698,-2.3567,-2.3327,-2.2953,-2.2498,-2.1977,-2.1683,-2.139,-2.1096,-2.0664,-2.1435,-2.2841,-2.4416,-2.5605,-2.6598,-2.6573,-2.6536,-2.638,-2.5962,-2.5994,-2.6068,0.0,0.0,0.0,0.0,0.0,0.0,0.0,0.0,0.0,0.0,0.0,0.0,0.0,0.0,0.0,0.0,0.0,0.0,1.9482,1.9211,1.8321,1.665,1.4999,1.3365,1.1714,1.0078,0.8506,0.7158,0.5858,0.4212,0.2281,0.0468,-0.1138,-0.2621,-0.5292,-0.8037,-1.0712,-1.285,-1.5824,-1.9208,-1.9918,-2.1449,-2.345,-2.4385,-2.5057,-2.5618,-2.6438,-2.6624,-2.6654,-2.7311,-2.7869,-2.8337,-2.8707,-2.851,-2.767,-2.5794,0.0,-2.257,-2.0787,-1.9583,-1.9024,-1.9469,-1.934,-1.9157,0.0,0.0,-1.7668,-1.7009,-1.6693,-1.6513,-1.6634,-1.6149,-1.5937,-1.6445,-1.5452,-1.4745,-1.5149,-1.4928,-1.5101,-1.5776,-1.6157,-1.6475,-1.654,-1.7523,-1.8613,-1.9604,-2.1347,-2.3048,-2.4525,-2.4561,-2.4636,-2.4636,-2.4037,-2.3549,-2.3056,-2.3182,-2.336,-2.332,-2.2746,-2.2298,-2.1977,-2.1683,-2.139,-2.1096,-2.0802,-2.1683,-2.3362,-2.3522,-2.4791,-2.6637,-2.66,-2.6362,-2.6083,-2.605,-2.6088,-2.6068,0.0,0.0,0.0,0.0,0.0,0.0,0.0,0.0,0.0,0.0,0.0,0.0,0.0,0.0,0.0,0.0,0.0,0.0,2.267,2.1377,2.0283,1.9722,1.7601,1.5802,1.4455,1.2837,1.147,1.022,0.8116,0.6319,0.4763,0.2398,0.0135,-0.2048,-0.5086,-0.8098,-1.1109,-1.4629,-1.7412,-1.9586,-2.1644,-2.3027,-2.3949,-2.4544,-2.4827,-2.4958,-2.5615,-2.6031,0.0,0.0,-2.7108,-2.7768,-2.8078,-2.7591,-2.6638,-2.5449,-2.3735,0.0,-2.0534,-1.9688,-1.9291,-1.9462,-1.9709,-1.9435,-1.8103,-1.7956,-1.7768,-1.6356,-1.5785,-1.5495,-1.5642,-1.513,-1.4595,0.0,-1.4052,-1.3378,-1.3539,-1.2851,-1.2306,-1.2358,-1.2668,-1.3878,-1.6477,-1.6434,-1.7121,-1.9057,-1.8239,-1.967,-2.4044,-2.4461,-2.4559,-2.4623,-2.4018,-2.3532,-2.2892,-2.2961,-2.2973,-2.2792,-2.2372,-2.2017,-2.1724,-2.143,-2.1042,-2.0581,-2.0294,-2.0977,-2.2169,-2.2169,-2.332,-2.5216,-2.5216,-2.5424,-2.5697,-2.5635,-2.5722,-2.5727,0.0,0.0,0.0,0.0,0.0,0.0,0.0,0.0,0.0,0.0,0.0,0.0,0.0,0.0,0.0,0.0,0.0,0.0,0.0,2.2783,2.1877,2.2318,2.0054,0.0,1.7531,1.5823,1.4428,1.3381,1.0739,0.888,0.7731,0.4689,0.208,-0.0272,-0.4508,-0.8423,-1.2199,-1.6033,-1.8612,-2.034,-2.2938,-2.4366,-2.4885,-2.5173,-2.5041,-2.4699,-2.459,-2.497,0.0,0.0,-2.6059,-2.6862,-2.7016,-2.6469,-2.5635,-2.4998,-2.3182,-2.1108,-1.9917,-1.9507,-1.9448,-1.9576,-1.9832,-1.9616,-1.7673,-1.7613,-1.7493,-1.5958,-1.499,-1.4631,-1.4825,-1.3938,-1.3232,-1.3428,-1.2645,-1.1978,-1.2024,-1.1099,-1.0395,-1.0293,-1.0432,-1.1935,-1.5592,-1.4991,-1.5221,-1.7424,-1.6145,-1.6937,-2.1059,-2.3222,-2.4262,-2.4147,-2.3816,-2.3333,-2.2861,-2.2868,-2.2712,-2.2412,-2.2124,-2.1837,-2.1543,-2.1162,-2.0668,-2.01,-1.9887,-2.0501,-2.1481,-2.1481,-2.2727,-2.448,-2.448,-2.4791,-2.5207,-2.5207,-2.5312,-2.5481,0.0,0.0,0.0,0.0,0.0,0.0,0.0,0.0,0.0,0.0,0.0,0.0,0.0,0.0,0.0,0.0,0.0,0.0,0.0,2.3009,2.2668,2.3349,2.1848,2.0938,2.0877,1.8598,1.7079,1.6396,1.4035,1.2114,1.0702,0.7081,0.4792,0.334,-0.3211,-0.9058,-1.4132,-1.6109,-1.8813,-2.1844,-2.302,-2.4736,-2.6504,-2.6391,-2.5998,-2.5191,-2.3216,0.0,0.0,0.0,-2.4141,-2.5345,-2.5314,-2.5227,0.0,-2.4434,-2.2372,-2.0031,-1.8385,-1.8469,-1.9021,-1.9592,-1.9802,-1.9607,-1.8814,-1.8101,-1.7194,-1.6137,-1.5047,-1.4395,-1.4548,-1.2796,-1.1511,-1.2045,-1.1051,-1.0462,-1.0603,-1.0371,-1.0287,-1.028,-1.0154,-1.0499,0.0,-1.238,-1.2875,-1.3468,-1.5354,-1.5935,-1.4725,-2.0289,-2.3334,-2.3001,-2.2923,-2.2861,-2.2861,-2.2868,-2.2712,-2.2412,-2.2124,-2.1837,-2.1537,-2.0955,-2.0368,-1.9813,-1.9806,-2.083,-2.234,-2.234,-2.356,-2.539,-2.539,-2.5152,-2.4803,-2.4803,-2.508,-2.5481,0.0,0.0,0.0,0.0,0.0,0.0,0.0,0.0,0.0,0.0,0.0,0.0,0.0,0.0,0.0,0.0,0.0,0.0,0.0,2.4941,2.4721,2.563,2.4721,2.3829,2.3023,2.2017,2.0992,2.0006,1.8001,1.6528,1.5409,1.2837,0.9879,0.6519,0.2189,-0.5618,-1.575,-1.9536,-2.2179,-2.3968,-2.6127,-2.7293,-2.7606,-2.7268,-2.6811,-2.6127,0.0,0.0,0.0,-2.3275,-2.3819,-2.4443,-2.4061,-2.3649,-2.287,-2.075,-1.9896,-1.9291,-1.8112,-1.8461,-1.9185,-1.8787,-1.8907,-1.8793,-1.738,-1.6988,-1.6467,-1.4856,-1.3663,-1.2586,-1.1968,-1.0601,-0.9735,-1.0215,-0.9394,-0.8808,-0.9027,-0.8234,-0.7894,-0.8626,-0.8849,0.0,0.0,0.0,0.0,-1.3408,-1.4089,-1.4727,-1.5435,-1.6586,-1.8338,-2.0868,-2.0962,-2.0859,-2.0859,-2.2004,-2.2418,-2.2124,-2.1443,-2.0962,-2.0661,-2.0274,-1.9987,-1.978,-1.9386,-1.9555,-2.0005,-1.9918,-2.0932,-2.2636,-2.2636,-2.3357,-2.4363,-2.4363,-2.4553,-2.4815,0.0,0.0,0.0,0.0,0.0,0.0,0.0,0.0,0.0,0.0,0.0,0.0,0.0,0.0,0.0,0.0,0.0,0.0,0.0,0.0,2.5221,2.6151,2.563,2.498,2.4202,2.3738,2.3177,2.2439,2.1268,2.0381,1.9806,1.8032,1.6014,1.3641,0.7583,-0.1932,-1.401,-2.1355,-2.5014,-2.6114,-2.8146,-2.863,-2.8104,-2.7686,-2.715,0.0,0.0,0.0,0.0,-2.2834,-2.2951,-2.2994,-2.2518,-2.2008,-2.1176,-1.8643,-1.8596,-1.9123,-1.8275,-1.8521,-1.8904,-1.8667,-1.8349,-1.7808,-1.6661,-1.6231,-1.5583,-1.4025,-1.2677,-1.1306,-0.9929,-0.882,-0.8078,-0.8033,-0.7614,-0.7313,-0.7539,-0.6702,-0.6432,-0.7103,-0.7894,-0.9042,0.0,0.0,0.0,-1.3267,-1.3461,-1.398,-1.5193,-1.4938,-1.5826,-1.8455,-1.9652,-2.0125,-2.0036,-2.1539,-2.2171,-2.1663,-2.0995,-2.0468,-2.0067,-1.9887,-1.9686,-1.9466,-1.9085,-1.9023,-1.9244,-1.9372,-2.0369,-2.1737,-2.215,-2.3138,-2.4152,-2.4152,-2.4258,-2.444,0.0,0.0,0.0,0.0,0.0,0.0,0.0,0.0,0.0,0.0,0.0,0.0,0.0,0.0,0.0,0.0,0.0,0.0,0.0,0.0,0.0,2.5164,2.4846,2.4674,2.4674,2.4057,2.3782,2.3816,2.3746,2.3722,2.3722,2.2571,2.2879,2.3921,1.3288,0.2153,-0.9384,-2.0925,-2.6669,-2.8105,-2.9041,-2.8903,-2.8088,-2.7793,0.0,0.0,0.0,0.0,0.0,-2.2059,-2.1627,-2.1034,-2.065,-2.0403,-1.996,-1.8065,-1.8368,-1.9273,-1.8626,-1.8287,-1.83,-1.8988,-1.7947,-1.6718,-1.6524,-1.5671,-1.4545,-1.3315,-1.2037,-1.058,0.0,0.0,-0.6428,-0.5829,-0.5808,-0.5952,-0.6016,-0.6,-0.5837,0.0,0.0,0.0,0.0,0.0,0.0,-1.2945,0.0,-1.3628,-1.3656,-1.507,-1.6009,-1.5999,-1.8793,-2.0203,-2.0083,-2.1565,-2.1937,-2.1062,-2.0782,-2.0334,-1.9753,-1.9753,-1.9439,-1.8905,-1.8885,-1.9099,-1.9711,-2.0747,-2.1593,-2.2526,-2.3646,-2.4053,-2.4152,-2.4152,-2.4189,-2.4286,0.0,0.0,0.0,0.0,0.0,0.0,0.0,0.0,0.0,0.0,0.0,0.0,0.0,0.0,0.0,0.0,0.0,0.0,0.0,0.0,0.0,0.0,0.0,0.0,0.0,0.0,0.0,0.0,0.0,2.6543,2.677,2.6401,2.6916,0.0,2.4285,1.1309,-0.8116,-1.4059,-2.1065,-2.832,0.0,-3.0601,-2.9823,0.0,0.0,0.0,0.0,0.0,0.0,-2.2629,-2.1445,-1.9918,-1.9348,-1.8564,-1.7595,-1.6364,-1.633,-1.6576,-1.5945,-1.6126,-1.6461,-1.6166,-1.5782,-1.5304,-1.4475,-1.3724,-1.2831,-1.1511,-0.9974,-0.8417,0.0,0.0,0.0,-0.5382,-0.4763,0.0,-0.4759,-0.3836,0.0,-0.4522,0.0,-0.6035,-0.7344,-0.9377,0.0,0.0,-1.2429,-1.3409,-1.3815,-1.4298,-1.4403,-1.4267,-1.6058,-1.7464,-1.8322,-2.068,-2.1329,-2.0454,-2.0381,-1.9927,-1.9145,-1.9145,-1.8945,-1.8591,-1.8364,-1.8285,-1.8447,-1.8519,-1.9621,-2.1293,-2.1599,-2.2719,-2.4152,-2.4152,-2.3993,-2.3758,0.0,0.0,0.0,0.0,0.0,0.0,0.0,0.0,0.0,0.0,0.0,0.0,0.0,0.0,0.0,0.0,0.0,0.0,0.0,0.0,0.0,0.0,0.0,0.0,0.0,0.0,0.0,0.0,0.0,0.0,0.0,2.9232,2.9978,3.0164,2.9264,1.6717,-0.4143,0.0,0.0,0.0,0.0,0.0,0.0,0.0,0.0,0.0,0.0,0.0,0.0,0.0,-1.9303,-1.8725,-1.7882,-1.711,-1.6404,-1.5508,-1.5593,-1.5866,-1.5508,-1.5447,-1.5448,-1.5224,-1.476,-1.4206,-1.3629,-1.2841,-1.1911,-1.0663,-0.9133,-0.7541,-0.5846,-0.5153,-0.4608,0.0,0.0,0.0,-0.3275,-0.2631,-0.2433,0.0,-0.4028,0.0,-0.5992,-0.8038,-0.9803,0.0,-1.2384,-1.3547,-1.3778,-1.3786,-1.3746,-1.3644,-1.5072,-1.6692,-1.8466,-1.9678,-2.0209,-2.0234,-2.01,-1.9646,-1.8925,-1.8925,-1.8691,-1.829,0.0,-1.7969,-1.7829,-1.817,-1.9339,-2.0987,-2.1395,-2.2619,-2.4152,-2.4152,-2.3883,-2.35,0.0,0.0,0.0,0.0,0.0,0.0,0.0,0.0,0.0,0.0,0.0,0.0,0.0,0.0,0.0,0.0,0.0,0.0,0.0,0.0,0.0,0.0,0.0,0.0,0.0,0.0,0.0,0.0,0.0,0.0,0.0,0.0,0.0,0.0,0.0,0.0,0.0,0.0,0.0,0.0,0.0,0.0,0.0,0.0,0.0,0.0,0.0,0.0,0.0,0.0,-1.5936,-1.7122,-1.5954,-1.5573,-1.5339,-1.4687,-1.4977,-1.546,-1.5514,-1.5082,-1.4624,-1.4682,-1.4066,-1.3278,-1.2936,-1.2137,-1.1166,-0.9989,-0.8532,-0.6955,-0.5181,-0.4524,-0.3812,-0.2638,0.0,-0.2396,-0.2169,-0.2166,-0.2133,-0.2336,-0.3519,-0.4424,-0.4849,-0.6695,-0.8573,-1.0227,-1.2248,-1.3487,-1.3648,-1.362,-1.3587,-1.3539,-1.4846,-1.6507,-1.8759,-1.8692,-1.8958,-1.9925,-1.9794,-1.9472,-1.8865,-1.8865,-1.8544,-1.7989,-1.7989,0.0,-1.7687,-1.861,-1.9746,-2.0987,-2.1912,-2.3038,-2.4143,-2.4088,-2.3699,-2.3279,0.0,0.0,0.0,0.0,0.0,0.0,0.0,0.0,0.0,0.0,2.3198,2.3441,0.0,0.0,0.0,0.0,0.0,0.0,0.0,0.0,0.0,0.0,0.0,0.0,0.0,0.0,0.0,0.0,0.0,0.0,0.0,0.0,0.0,0.0,0.0,0.0,0.0,0.0,0.0,0.0,0.0,0.0,0.0,0.0,0.0,0.0,0.0,0.0,0.0,0.0,-1.223,-1.4057,-1.2767,-1.2355,-1.2207,-1.175,-1.1702,-1.1796,-1.1509,-1.1925,-1.2221,-1.1431,-1.2031,-1.241,-1.0578,-0.9928,0.0,-0.7135,-0.5894,-0.4722,-0.357,-0.286,-0.2536,-0.2874,-0.2431,-0.2382,-0.3464,-0.2709,-0.2408,0.0,-0.2834,-0.2719,-0.2861,-0.4567,0.0,0.0,0.0,-1.1959,-1.3496,-1.3502,-1.3283,-1.2986,-1.4088,-1.4909,-1.5332,-1.736,-1.8301,-1.828,-1.9331,-1.9366,-1.8564,-1.8564,-1.8237,-1.7662,-1.7662,0.0,-1.7582,-1.7786,-1.9027,-2.0885,-2.1089,-2.2417,-2.4115,-2.3776,-2.3354,-2.2914,0.0,0.0,0.0,0.0,0.0,0.0,0.0,0.0,2.1775,2.2948,2.386,2.4395,2.4488,2.5415,0.0,0.0,0.0,0.0,0.0,0.0,0.0,0.0,0.0,0.0,0.0,0.0,0.0,0.0,0.0,0.0,0.0,0.0,0.0,0.0,0.0,0.0,0.0,0.0,0.0,0.0,0.0,0.0,0.0,0.0,0.0,0.0,0.0,0.0,0.0,0.0,-0.6032,-0.676,-0.8169,-0.8661,-0.8756,-0.9163,-0.9587,-1.0012,-1.0441,-1.0904,-1.1155,-1.0579,-1.086,-1.0958,-0.9771,-0.8899,-0.8053,-0.681,-0.5129,-0.3793,-0.3252,-0.2194,-0.153,-0.1719,-0.185,-0.211,-0.2288,-0.2408,-0.2524,-0.265,-0.2399,-0.2273,-0.229,-0.3551,-0.4648,-0.559,0.0,-0.9915,-1.2512,-1.297,-1.2929,-1.2572,-1.3106,-1.3766,-1.4418,-1.614,-1.7173,-1.776,-1.8816,-1.8965,-1.8263,-1.8263,-1.8009,-1.7582,-1.7582,0.0,-1.7582,-1.7582,-1.8923,-2.0869,-2.0678,-2.1911,-2.3785,-2.3382,-2.2884,-2.2602,0.0,0.0,0.0,0.0,0.0,0.0,0.0,2.1406,2.2018,2.3545,2.4831,2.5805,2.6302,2.6822,2.7327,0.0,0.0,0.0,0.0,0.0,0.0,0.0,0.0,0.0,0.0,0.0,0.0,0.0,0.0,0.0,0.0,0.0,0.0,0.0,0.0,0.0,0.0,0.0,0.0,0.0,0.0,0.0,0.0,0.0,0.0,0.0,0.0,0.0,0.0,0.0,0.0588,0.0898,-0.2285,-0.4034,-0.523,-0.6234,-0.7202,-0.8041,-0.8973,-0.9631,-1.001,-0.9724,-0.9813,-0.9737,-0.9119,-0.8269,-0.7343,-0.6678,-0.4886,-0.3359,-0.3041,-0.1856,-0.0798,0.0,-0.1285,-0.1501,-0.1164,-0.1847,-0.2343,-0.221,-0.2232,0.0,-0.226,-0.2799,0.0,-0.4537,0.0,0.0,-1.1365,-1.2344,-1.2576,-1.2259,-1.2247,-1.2724,-1.3793,-1.4791,-1.5904,-1.7014,-1.7919,-1.8328,-1.805,-1.805,-1.7876,-1.7582,-1.7582,0.0,0.0,-1.7488,-1.8683,-2.0327,-2.0237,-2.1318,-2.3066,-2.2866,-2.2612,-2.23,0.0,0.0,0.0,0.0,0.0,0.0,0.0,2.2125,2.3178,2.4346,2.5869,2.7232,2.8297,2.8753,2.861,0.0,0.0,0.0,0.0,0.0,0.0,0.0,0.0,0.0,0.0,0.0,0.0,2.9124,2.9402,0.0,0.0,0.0,0.0,0.0,0.0,0.0,0.0,0.0,0.0,0.0,0.0,0.0,0.0,0.0,0.0,0.0,0.0,0.0,0.0,0.0,0.6337,0.628,0.559,0.2182,-0.1637,-0.2651,-0.3487,-0.4091,-0.4264,-0.6304,-0.795,-0.6843,-0.8264,-0.9434,-0.7536,-0.7172,-0.6749,-0.498,-0.3993,-0.3199,-0.219,-0.1287,-0.0842,-0.1368,-0.0568,-0.0304,-0.1732,-0.1316,-0.1246,-0.2142,0.0,0.0,-0.217,-0.23,0.0,-0.3253,0.0,0.0,-1.0724,-1.1857,-1.2264,-1.206,-1.2056,-1.1979,-1.2068,-1.3045,-1.4209,-1.5362,-1.638,-1.7344,-1.805,-1.805,-1.7876,-1.7582,-1.7582,0.0,0.0,-1.7188,-1.7834,-1.8662,-1.9493,-2.0644,-2.1778,-2.2158,-2.2355,-2.2217,0.0,0.0,0.0,0.0,0.0,0.0,0.0,2.2039,2.293,2.4828,2.6235,2.7471,2.8602,2.9636,3.0211,0.0,0.0,0.0,0.0,0.0,0.0,0.0,0.0,0.0,0.0,0.0,0.0,2.9658,3.0667,0.0,0.0,0.0,0.0,0.0,0.0,2.9844,0.0,0.0,0.0,0.0,0.0,0.0,0.0,0.0,0.0,0.0,0.0,0.0,0.7697,0.9904,1.0842,1.0868,0.9422,0.7052,0.0,0.0593,-0.1258,-0.228,-0.3394,-0.4944,-0.6176,-0.6093,-0.6684,-0.7035,-0.6223,-0.5909,-0.5379,-0.3893,-0.2685,-0.1672,-0.1169,0.0162,0.1095,0.0707,0.0,0.0,0.0216,-0.0559,-0.1176,-0.141,-0.1822,0.0,0.0,0.0,-0.2356,0.0,0.0,0.0,-0.8879,-1.0397,-1.1433,-1.1882,-1.1878,-1.1792,-1.1614,-1.2818,-1.3461,-1.3665,-1.5578,-1.6611,-1.6788,-1.7443,-1.7602,-1.7321,-1.7321,0.0,0.0,-1.6881,-1.7503,-1.8459,-1.9205,-2.0186,-2.1199,-2.1744,-2.1814,-2.1548,0.0,0.0,0.0,0.0,0.0,2.1697,2.2206,2.237,2.3065,2.4958,2.6349,2.7434,2.8216,2.9734,3.09,3.1404,0.0,0.0,0.0,0.0,0.0,0.0,0.0,0.0,0.0,0.0,0.0,3.0579,3.1672,3.2231,0.0,0.0,3.2119,3.1183,0.0,0.0,0.0,0.0,0.0,0.0,0.0,0.0,0.0,0.0,0.0,0.0,0.0,0.0,0.0,0.0,0.0,1.386,0.0,0.0,0.0,0.0,0.131,-0.0186,-0.1703,-0.31,-0.4317,-0.4935,-0.5056,-0.5074,-0.505,-0.4788,-0.4211,-0.3276,-0.1852,-0.069,-0.0624,0.0977,0.2202,0.0,0.0,0.1554,0.1749,0.0534,-0.0564,-0.0735,0.0,-0.2147,0.0,-0.2462,-0.241,0.0,0.0,0.0,-0.7159,-0.8787,-1.0365,-1.178,-1.1723,-1.163,-1.15,-1.232,-1.2808,-1.3179,-1.4861,-1.5929,-1.6399,-1.7167,-1.7341,-1.7148,-1.7061,0.0,0.0,-1.658,-1.7211,-1.8171,-1.8776,-1.9723,-2.081,-2.1338,-2.1365,-2.1071,0.0,0.0,0.0,0.0,0.0,0.0,0.0,2.3432,2.4025,2.4746,2.6245,2.7319,2.7334,2.8936,3.0352,3.1227,0.0,0.0,0.0,0.0,0.0,0.0,0.0,0.0,0.0,0.0,3.0107,3.2187,3.1871,3.1725,3.1808,3.1792,3.1563,3.1108,0.0,0.0,0.0,0.0,0.0,0.0,0.0,0.0,0.0,0.0,0.0,0.0,0.0,0.0,0.0,0.0,0.0,0.0,0.0,0.0,0.0,0.0,0.4655,0.2683,0.1966,-0.0184,-0.2271,-0.2786,-0.3578,-0.4216,-0.4044,-0.3883,-0.3675,-0.3209,-0.1954,-0.086,-0.0627,0.0814,0.1863,0.1472,0.2106,0.0,0.2161,0.1711,0.1002,0.0,0.0,-0.2547,-0.3819,-0.3286,0.0,0.0,0.0,0.0,-0.5985,-0.7138,-0.8935,-1.1768,-1.1598,-1.15,-1.15,-1.1151,-1.219,-1.4388,-1.4256,-1.5322,-1.7575,-1.7288,-1.7154,0.0,0.0,0.0,0.0,-1.6279,-1.6677,-1.7434,-1.8434,-1.9438,-2.0395,-2.0905,-2.1108,-2.0998,0.0,0.0,0.0,0.0,0.0,0.0,0.0,2.2888,2.3413,2.4418,2.5439,2.6329,2.7075,2.8132,2.9434,3.1036,0.0,0.0,0.0,0.0,0.0,0.0,0.0,0.0,0.0,0.0,2.9881,2.9671,2.985,2.9698,2.9175,2.8631,2.7649,2.6432,2.7667,0.0,0.0,0.0,0.0,0.0,0.0,0.0,0.0,0.0,0.0,0.0,0.0,0.0,0.0,0.0,0.0,0.0,0.0,0.0,0.0,0.0,0.0,0.4855,0.2954,0.1236,-0.0445,-0.1861,-0.2654,-0.2974,-0.2625,-0.2398,-0.1955,-0.0784,0.0079,0.0559,0.0472,0.1339,0.2028,0.1686,0.2176,0.0,0.0,0.0,0.0,0.0782,-0.0945,-0.2199,0.0,0.0,0.0,0.0,0.0,0.0,-0.581,-0.6296,-0.7948,-1.1043,-1.1225,-1.1256,-1.1139,-1.1025,-1.1346,-1.1867,-1.3418,-1.4371,-1.4949,-1.6555,-1.6927,0.0,0.0,0.0,0.0,-1.5885,-1.5866,-1.5889,-1.7076,-1.7772,-1.8218,-1.9058,-1.9442,-1.9439,0.0,0.0,0.0,0.0,0.0,0.0,0.0,2.2814,2.3038,2.3747,2.4247,2.4803,2.5502,2.654,2.7794,2.9219,0.0,0.0,0.0,0.0,0.0,0.0,0.0,0.0,0.0,2.8642,2.8843,2.8181,2.8028,2.723,2.5864,2.5319,2.3992,2.215,2.4,0.0,0.0,0.0,0.0,0.0,0.0,0.0,1.9684,0.0,0.0,0.0,0.0,0.0,0.0,0.0,0.0,0.0,0.0,0.0,0.0,0.0,0.9294,0.7537,0.4511,0.2715,0.1283,-0.0171,-0.0916,-0.1297,-0.0972,-0.0796,-0.0548,0.0314,0.0953,0.1201,0.0876,0.1523,0.2045,0.1703,0.2099,0.2491,0.0,0.0,0.0,0.0889,0.0,0.0,0.0,0.0,0.0,0.0,0.0,0.0,-0.4868,-0.5571,-0.7014,-0.9586,-1.0385,-1.086,-1.0755,-1.0733,-1.082,-1.1125,-1.2602,-1.3588,-1.428,-1.563,-1.6314,0.0,0.0,0.0,0.0,-1.5471,-1.549,-1.5504,-1.6212,-1.6914,-1.7581,-1.804,-1.8426,-1.8687,0.0,0.0,0.0,0.0,0.0,0.0,0.0,0.0,0.0,2.2752,2.281,2.2855,2.2883,2.4347,2.5546,2.6136,0.0,0.0,0.0,0.0,0.0,0.0,0.0,0.0,0.0,2.6993,2.7066,2.7297,2.6229,2.4452,2.2031,2.1714,2.0253,1.7944,1.9832,2.0435,2.0201,2.2066,2.2163,2.0878,2.0206,1.8107,0.0,0.0,0.0,0.0,0.0,0.0,0.0,0.0,0.0,0.0,0.0,0.0,0.0,0.0,0.0,0.0,0.0,0.4333,0.2914,0.2085,0.1233,0.0648,0.0649,0.0638,0.0,0.0472,0.0946,0.1192,0.0813,0.1527,0.1938,0.1437,0.2086,0.2478,0.0,0.2298,0.0,0.0,-0.1975,0.0,-0.2689,0.0,0.0,0.0,0.0,0.0,-0.3402,-0.4698,-0.6129,-0.7614,-0.9255,-1.0085,-1.0327,-1.0221,-1.0776,-1.1798,-1.1887,-1.3002,-1.5022,-1.4751,-1.5199,0.0,0.0,0.0,0.0,-1.503,-1.5332,-1.5767,-1.5811,-1.668,-1.7834,-1.757,-1.7896,-1.8455,0.0,0.0,0.0,0.0,0.0,0.0,0.0,0.0,0.0,0.0,2.1454,2.1713,2.1776,2.2501,2.3232,0.0,0.0,0.0,0.0,0.0,0.0,0.0,0.0,0.0,0.0,2.4841,2.4682,2.3651,2.2237,2.0543,1.8571,1.6142,1.3539,1.1002,1.2825,1.4484,1.5956,1.6607,1.6741,1.6633,1.6127,1.5188,0.0,0.0,0.0,0.0,1.2917,1.2785,0.0,0.0,0.0,0.0,0.0,0.0,0.0,0.0,1.0657,0.983,0.8282,0.0,0.442,0.2939,0.1587,0.0716,0.0,0.1277,0.1263,0.1767,0.1799,0.1742,0.15,0.1689,0.1871,0.1504,0.1779,0.1951,0.206,0.0,0.0,0.0787,-0.0229,-0.1251,-0.1863,0.0,0.0,0.0,0.0,-0.2628,-0.3271,-0.3649,-0.4827,-0.6855,-0.7334,-0.845,-1.018,-1.0205,-1.0369,-1.0568,-1.1341,-1.2179,-1.3274,-1.3903,-1.4415,0.0,0.0,0.0,-1.4082,-1.4469,-1.4352,-1.3871,-1.4337,-1.4681,-1.495,-1.5479,-1.6028,-1.6589,0.0,0.0,0.0,0.0,0.0,0.0,0.0,0.0,0.0,0.0,0.0,0.0,0.0,0.0,0.0,0.0,0.0,0.0,0.0,0.0,0.0,0.0,0.0,0.0,2.2633,2.2591,2.2043,2.098,1.9036,1.6863,1.4401,1.2204,0.9181,0.5759,0.7011,0.9019,1.1458,1.2291,1.264,1.2712,1.3499,0.0,0.0,0.0,0.0,0.0,1.1822,1.1835,0.0,1.2659,1.2666,1.2305,0.0,0.0,0.0,0.0,1.1323,1.0749,0.9658,0.7647,0.5547,0.4261,0.3071,0.22,0.2169,0.1978,0.1866,0.2112,0.2002,0.1793,0.1622,0.1636,0.1722,0.1545,0.17,0.0,0.0,0.0,0.1871,0.1343,0.0449,-0.0444,0.0,0.0,0.0,0.0,0.0,-0.2482,-0.2494,-0.3039,-0.3854,-0.5176,-0.5711,-0.7174,-0.9509,-0.955,-0.9569,-0.9673,-1.0258,-1.0913,-1.1731,-1.2642,-1.3387,0.0,0.0,0.0,-1.3661,-1.3841,-1.3554,-1.3026,-1.3347,-1.3783,-1.4301,-1.4741,-1.5496,-1.6315,0.0,0.0,0.0,0.0,0.0,0.0,0.0,0.0,0.0,0.0,0.0,0.0,0.0,0.0,0.0,0.0,0.0,0.0,0.0,0.0,0.0,0.0,0.0,2.1451,2.1346,2.0056,1.9149,1.8646,1.6153,1.3412,1.0424,0.8895,0.5905,0.1728,0.2359,0.4163,0.6823,0.8538,0.9264,0.9335,1.1278,0.0,0.0,0.0,0.0,0.0,0.0,0.0,0.0,1.1981,1.2264,1.2305,1.2157,0.0,0.0,0.0,0.0,0.0,1.0589,0.867,0.6756,0.5693,0.488,0.4157,0.3488,0.0,0.0,0.0,0.0,0.1739,0.1483,0.1555,0.0,0.1566,0.0,0.0,0.2023,0.195,0.1757,0.1778,0.0879,0.0,0.0,0.0,0.0,0.0,0.0,-0.2374,-0.1772,-0.2489,-0.3061,-0.3428,-0.4261,-0.5952,-0.843,-0.8463,-0.8711,-0.9003,-0.9043,-0.9561,-1.0548,-1.1292,-1.2026,0.0,0.0,0.0,-1.342,-1.322,-1.2953,-1.2761,-1.2802,-1.3376,-1.4243,-1.4474,-1.5309,-1.6399,0.0,0.0,0.0,0.0,0.0,0.0,0.0,0.0,0.0,0.0,0.0,0.0,0.0,0.0,0.0,0.0,0.0,0.0,0.0,0.0,0.0,0.0,1.8802,1.929,1.8926,1.6878,1.5804,1.5809,1.2775,1.0533,0.9004,0.5354,0.2098,-0.0699,-0.0954,0.0168,0.2334,0.4192,0.587,0.723,0.8387,0.0,0.0,0.0,0.0,0.0,0.0,0.0,0.0,1.1746,1.1897,1.215,1.1484,0.0,0.0,0.0,0.0,0.0,1.0484,0.9717,0.8901,0.7158,0.6105,0.5561,0.57,0.437,0.0,0.0,0.0,0.0,0.0,0.2098,0.2445,0.0,0.0,0.1809,0.0,0.0,0.1742,0.172,0.0,0.0,0.0,0.0,0.0,0.0,0.0,-0.2772,-0.2257,-0.1968,-0.2242,-0.314,-0.3183,-0.4368,-0.6629,-0.7256,-0.7951,-0.88,-0.8697,-0.9173,-1.0027,-0.9832,-1.0529,0.0,0.0,-1.2158,-1.2525,-1.2732,-1.2639,-1.2392,-1.2721,-1.2716,-1.2778,-1.3721,-1.4242,-1.4566,0.0,0.0,0.0,0.0,0.0,0.0,0.0,0.0,0.0,0.0,0.0,0.0,0.0,0.0,0.0,0.0,0.0,0.0,0.0,0.0,0.0,1.6527,1.628,1.6193,1.6398,1.426,1.2811,1.2343,0.9947,0.7978,0.6299,0.232,-0.0274,-0.1675,-0.2029,-0.1386,0.0168,0.2313,0.369,0.4664,0.0,0.0,0.0,0.0,0.0,0.0,0.0,0.0,0.0,0.0,1.1683,1.2287,1.1378,0.0,0.0,0.0,0.0,0.0,1.0916,1.0594,1.0057,0.8886,0.7807,0.6777,0.6153,0.5264,0.0,0.0,0.0,0.0,0.0,0.0,0.3575,0.2612,0.0,0.1709,0.1723,0.1712,0.1697,0.0,0.0,0.0,0.0,0.0,0.0,0.0,0.0,0.0,-0.2285,-0.2093,-0.198,-0.2213,-0.2079,-0.2858,-0.4368,-0.5333,-0.6602,-0.8298,-0.8233,-0.8447,-0.8843,-0.9234,-0.9912,-1.0795,0.0,-1.1671,-1.2298,-1.2278,-1.2285,-1.2318,-1.2452,-1.2716,-1.3063,-1.4228,-1.4731,-1.4944,0.0,0.0,0.0,0.0,0.0,0.0,0.0,0.0,0.0,0.0,0.0,0.0,0.0,0.0,0.0,0.0,0.0,0.0,0.0,0.0,1.5292,1.5779,1.4049,1.351,1.4476,1.2182,1.0427,0.9407,0.7599,0.5376,0.2837,-0.0093,-0.1835,-0.2597,-0.2702,-0.2306,-0.138,0.0706,0.1941,0.2513,0.0,0.0,0.0,0.0,0.0,0.0,0.0,0.0,0.0,0.0,0.0,0.0,0.0,0.0,0.0,1.1941,1.1802,1.1476,1.1443,1.1284,1.0879,1.0102,0.0,0.7825,0.6991,0.6294,0.0,0.0,0.0,0.0,0.0,0.4636,0.0,0.3784,0.2841,0.2142,0.2142,0.1895,0.1662,0.0,0.0,0.0,0.0,0.0,0.0,0.0,0.0,0.0,-0.2026,-0.2114,-0.1912,-0.1425,-0.1396,-0.181,-0.2755,-0.3634,-0.5147,-0.7462,-0.7678,-0.784,-0.7951,-0.8626,-0.9291,-0.9776,-1.0426,-1.1126,-1.186,-1.1859,-1.1997,-1.2204,-1.2204,-1.269,-1.3512,-1.4494,-1.5103,-1.5368,0.0,0.0,0.0,0.0,0.0,0.0,0.0,0.0,0.0,0.0,0.0,0.0,0.0,0.0,0.0,0.0,0.0,0.0,0.0,0.0,1.3374,1.3886,1.2334,1.2304,1.3975,1.0873,0.8845,0.7967,0.582,0.2791,-0.1046,-0.133,-0.2418,-0.4123,-0.3751,-0.3393,-0.3039,-0.1497,0.0088,0.1729,0.2339,0.0,0.0,0.0,0.0,0.0,0.0,0.0,0.0,0.0,0.0,0.0,0.0,0.0,1.1498,1.1473,1.2011,1.2483,1.1646,1.1828,1.1912,1.0212,0.9246,0.8846,0.9195,0.7986,0.0,0.6989,0.0,0.0,0.0,0.4728,0.472,0.4718,0.4001,0.3375,0.3375,0.0,0.0,0.0,0.0,0.0,0.0,0.0,0.0,0.0,0.0,0.0,-0.162,-0.1978,-0.1959,-0.1394,-0.1366,-0.177,-0.2776,-0.2856,-0.4024,-0.6201,-0.7049,-0.7541,-0.7772,-0.7676,-0.7947,-0.8567,-0.9285,-0.995,-1.0596,-1.1545,-1.1877,-1.1904,-1.1904,-1.2377,-1.3083,-1.3763,-1.4232,-1.4588,0.0,0.0,0.0,0.0,0.0,0.0,0.0,0.0,0.0,0.0,0.0,0.0,0.0,0.0,0.0,0.0,0.0,0.0,0.0,0.0,1.285,1.2693,1.166,1.1133,1.1289,0.8819,0.6751,0.5177,0.349,0.1587,-0.0476,-0.1222,-0.2223,-0.338,-0.3869,-0.3897,-0.3418,-0.2403,-0.098,0.0618,0.1149,0.2751,0.0,0.0,0.0,0.0,0.0,0.0,0.0,0.0,0.8885,0.9653,0.0,0.8959,0.9823,1.0755,1.1047,1.1224,1.1828,1.1629,1.1193,1.0374,0.9306,0.0,0.0,0.8587,0.8041,0.7899,0.7766,0.0,0.0,0.0,0.5864,0.5734,0.5006,0.4184,0.3436,0.0,0.0,0.0,0.0,0.0,0.0,0.0,0.0,0.0,0.0,0.0,-0.138,-0.1616,-0.1599,-0.1336,-0.1307,-0.1452,-0.1853,-0.2345,-0.2999,-0.3991,-0.5559,-0.6542,-0.7112,-0.7188,-0.7702,-0.8561,-0.8679,-0.9488,-1.083,-1.1002,-1.1273,-1.159,-1.159,-1.2337,-1.3501,-1.338,-1.3973,-1.4845,0.0,0.0,0.0,0.0,0.0,0.0,0.0,0.0,0.0,0.0,0.0,0.0,0.0,0.0,0.0,0.0,0.0,0.0,0.0,1.1635,1.1799,1.1368,1.0838,1.0091,0.9048,0.6996,0.5255,0.3928,0.2273,0.1005,0.0093,-0.074,-0.1756,-0.2866,-0.3603,-0.3837,-0.3764,-0.3114,-0.195,-0.0443,0.0089,0.161,0.0,0.0,0.0,0.0,0.0,0.0,0.0,0.0,0.8009,0.0,0.0,0.0,0.8581,0.9802,1.0015,1.0068,1.1218,1.0986,1.0403,1.0064,0.0,0.0,0.8682,0.8678,0.8628,0.8525,0.833,0.8133,0.7923,0.0,0.0,0.0,0.5985,0.5139,0.0,0.0,0.0,0.0,0.0,0.0,0.0,0.0,0.0,0.0,0.0,0.0,0.0,-0.1203,-0.1352,-0.1115,-0.1244,-0.1305,-0.1305,-0.178,-0.2174,-0.2584,-0.4158,-0.5433,-0.638,-0.6809,-0.7425,-0.8069,-0.8298,-0.9096,-1.0294,-1.0625,-1.0956,-1.1289,-1.1748,-1.2491,-1.3429,-1.3416,-1.4082,-1.4873,0.0,0.0,0.0,0.0,0.0,0.0,0.0,0.0,0.0,0.0,0.0,0.0,0.0,0.0,0.0,0.0,0.0,0.0,0.9047,0.9556,0.9832,0.9942,0.9733,0.9048,0.7815,0.5675,0.455,0.4556,0.2454,0.0955,0.0,-0.0091,-0.1109,-0.2958,-0.2866,-0.3381,-0.4293,-0.3767,-0.2777,-0.165,-0.08,0.0895,0.2861,0.0,0.0,0.0,0.0,0.0,0.0,0.0,0.6847,0.7313,0.0,0.0,0.0,0.846,0.8992,0.9508,0.9646,0.9781,0.9722,0.9143,0.0,0.0,0.8689,0.8546,0.8509,0.8808,0.8455,0.8038,0.8038,0.7916,0.0,0.8011,0.7143,0.6425,0.0,0.0,0.0,0.0,0.0,0.0,0.0,0.0,0.0,0.0,0.0,0.0,0.0,-0.0681,-0.1136,-0.0681,-0.1034,-0.1166,-0.1166,-0.1166,-0.1509,-0.2167,-0.3074,-0.4245,-0.5646,-0.6587,-0.6855,-0.6761,-0.8175,-0.865,-0.8635,-1.0339,-1.0989,-1.112,-1.2459,-1.2759,-1.2696,-1.401,-1.4506,-1.4515,0.0,0.0,0.0,0.0,0.0,0.0,0.0,0.0,0.0,0.0,0.0,0.0,0.0,0.0,0.0,0.0,0.0,0.0,0.9135,0.9537,0.9322,0.8316,0.8155,0.7285,0.5617,0.4174,0.3071,0.2315,0.1729,0.1226,0.0978,0.0278,-0.0749,-0.194,-0.2623,-0.3422,-0.4297,-0.4094,-0.3371,-0.2221,-0.1995,-0.0725,0.1166,0.0,0.0,0.0,0.0,0.0,0.0,0.0,0.0,0.0,0.0,0.0,0.0,0.8019,0.8521,0.9051,0.9463,0.9294,0.9135,0.9597,0.0,0.0,0.0,0.8862,0.0,0.0,0.8238,0.8038,0.8038,0.0,0.0,0.774,0.739,0.0,0.0,0.0,0.0,0.0,0.0,0.0,0.0,0.0,0.0,0.0,0.0,0.0,0.0,0.0379,-0.0076,-0.0606,-0.0517,-0.0729,-0.1166,-0.1124,-0.1235,-0.1429,-0.2904,-0.4158,-0.507,-0.6026,-0.6479,-0.6497,-0.6928,-0.7821,-0.9116,-1.0271,-1.0688,-1.0752,-1.1192,-1.2024,-1.3014,-1.3086,-1.3692,-1.4515,0.0,0.0,0.0,0.0,0.0,0.0,0.0,0.0,0.0,0.0,0.0,0.0,0.0,0.0,0.0,0.0,0.0,0.0,0.0,0.0,0.7464,0.6201,0.6265,0.5589,0.3985,0.3238,0.2381,0.1365,0.1382,0.1394,0.1315,0.0368,-0.0558,-0.1552,-0.2515,-0.3432,-0.4349,-0.4279,-0.3735,-0.296,-0.2632,-0.1822,-0.0637,0.0,0.0,0.0,0.0,0.0,0.0,0.0,0.0,0.0,0.5022,0.0,0.0,0.7256,0.7667,0.7967,0.8393,0.8218,0.8151,0.9392,0.8927,0.8634,1.0061,0.0,0.0,0.0,0.8099,0.7946,0.7946,0.7777,0.0,0.7522,0.0,0.0,0.0,0.0,0.0,0.0,0.0,0.0,0.0,0.0,0.0,0.0,0.0,0.0,0.0,0.0821,0.0522,0.0,0.0,-0.0219,-0.0802,-0.0777,-0.0829,-0.1094,-0.2495,-0.3487,-0.4281,-0.5716,-0.6384,-0.6455,-0.7092,-0.8108,-0.9361,-1.0244,-1.0624,-1.0624,-1.1178,-1.2079,-1.3149,-1.3266,-1.3917,-1.4726,0.0,0.0,0.0,0.0,0.0,0.0,0.0,0.0,0.0,0.0,0.0,0.0,0.0,0.0,0.0,0.0,0.0,0.0,0.0,0.0,0.4839,0.3948,0.4194,0.3875,0.2781,0.2815,0.2315,0.1398,0.1393,0.1291,0.1184,0.027,-0.0641,-0.1792,-0.2472,-0.3413,-0.44,-0.4236,-0.3953,-0.3578,-0.2955,-0.2546,-0.2224,-0.1539,0.0,0.0,0.0,0.0,0.0,0.0,0.0,0.0,0.4636,0.5126,0.5471,0.6303,0.6629,0.6732,0.6888,0.6901,0.726,0.8881,0.9469,0.9888,1.1021,1.01,0.8776,0.8473,0.0,0.7904,0.7794,0.756,0.7366,0.7353,0.0,0.0,0.0,0.0,0.0,0.0,0.0,0.0,0.0,0.0,0.0,0.0,0.0,0.0,0.0,0.0873,0.0729,0.0875,0.0582,0.029,-0.0145,-0.0217,-0.05,0.0,-0.1812,-0.2575,-0.3283,-0.5428,-0.6386,-0.6495,-0.8028,-0.8958,-0.9382,-1.0249,-1.0571,-1.0669,-1.1843,-1.2585,-1.3066,-1.402,-1.462,-1.4946,0.0,0.0,0.0,0.0,0.0,0.0,0.0,0.0,0.0,0.0,0.0,0.0,0.0,0.0,0.0,0.0,0.0,0.0,0.0,0.0,0.395,0.3184,0.2524,0.2048,0.1799,0.1764,0.1651,0.1461,0.1413,0.104,0.0259,0.0,-0.102,-0.2601,-0.2746,-0.3359,-0.4226,-0.4072,-0.4072,-0.4031,-0.3916,-0.3416,-0.2714,-0.2651,-0.2153,0.0,0.0,0.0,0.0,0.0,0.0,0.0,0.2063,0.3738,0.5621,0.5698,0.6198,0.6732,0.6888,0.7399,0.8313,0.9874,1.1179,1.2102,1.1501,1.0902,1.0181,0.9236,0.9013,0.8726,0.7855,0.7495,0.7333,0.0,0.0,0.0,0.0,0.0,0.0,0.0,0.0,0.0,0.0,0.0,0.0,0.0,0.0,0.0,0.1976,0.1585,0.1093,0.0583,0.0857,0.0706,0.0141,-0.0138,-0.0341,0.0,-0.1693,-0.2327,-0.2444,-0.4348,-0.5561,-0.6318,-0.7469,-0.81,-0.8242,-0.9614,-1.008,-1.0012,-1.0883,-1.1516,-1.1969,-1.2881,-1.3602,-1.4176,0.0,0.0,0.0,0.0,0.0,0.0,0.0,0.0,0.0,0.0,0.0,0.0,0.0,0.0,0.0,0.0,0.0,0.0,0.0,0.0,0.0,0.154,0.1019,0.0568,0.0097,0.0474,0.0747,0.074,0.0717,0.0441,-0.0088,-0.0651,-0.1583,-0.296,-0.3422,-0.3832,-0.4173,-0.4195,-0.4183,-0.4243,-0.4259,-0.403,-0.3587,-0.3628,-0.3317,-0.2811,-0.2849,0.0,0.0,0.0,0.0,0.0,0.0,0.0,0.3851,0.5054,0.5702,0.6131,0.6692,0.7174,0.8094,1.0243,0.0,1.2689,1.2795,1.2459,1.1833,1.0654,1.003,0.9397,0.8223,0.7878,0.7625,0.0,0.0,0.0,0.0,0.0,0.0,0.0,0.0,0.0,0.0,0.0,0.0,0.0,0.0,0.2565,0.221,0.1951,0.1602,0.1021,0.1295,0.1214,0.0643,0.0563,0.0208,-0.0274,-0.1028,-0.1821,-0.2819,-0.4194,-0.5328,-0.6266,-0.7144,-0.7636,-0.7903,-0.8991,-0.9577,-0.9758,-1.0544,-1.1229,-1.1848,-1.2493,-1.3199,-1.3882,0.0,0.0,0.0,0.0,0.0,0.0,0.0,0.0,0.0,0.0,0.0,0.0,0.0,0.0,0.0,0.0,0.0,0.0,0.0,0.0,0.0,0.0,-0.0284,-0.0669,-0.1462,-0.0669,-0.0188,0.0,-0.0181,-0.036,-0.0547,-0.1502,-0.2426,-0.3249,-0.4202,-0.4408,-0.4177,-0.422,-0.4195,-0.4226,-0.4253,-0.43,-0.43,-0.43,-0.43,-0.43,-0.43,-0.3758,-0.313,-0.3133,0.0,0.0,0.0,0.0,0.18,0.3968,0.4861,0.5347,0.6236,0.6736,0.7699,1.0389,1.1655,0.0,1.3631,1.3692,1.3111,1.2165,1.1138,1.0093,0.8924,0.8648,0.0,0.0,0.0,0.0,0.0,0.0,0.0,0.0,0.0,0.0,0.0,0.0,0.0,0.0,0.0,0.3226,0.2582,0.2297,0.2011,0.1582,0.1655,0.1511,0.1222,0.1289,0.0847,-0.0138,-0.0342,-0.1407,-0.3253,-0.4119,-0.5099,-0.6158,-0.6762,-0.7235,-0.7597,-0.8399,-0.8978,-0.9411,-1.0265,-1.0967,-1.1621,-1.2189,-1.2873,-1.3523,0.0,0.0,0.0,0.0,0.0,0.0,0.0,0.0,0.0,0.0,0.0,0.0,0.0,0.0,0.0,0.0,0.0,0.0,0.0,0.0,0.0,-0.1204,-0.1205,-0.1216,-0.1337,-0.1217,-0.0834,0.0,-0.0814,-0.1472,-0.2031,-0.2677,-0.3384,-0.4235,-0.435,-0.4349,-0.4165,-0.4126,-0.4141,-0.4173,-0.4174,-0.4208,-0.43,-0.43,-0.43,-0.43,-0.43,-0.4208,-0.4119,-0.4119,-0.3492,0.0,0.0,0.0,0.135,0.1799,0.3379,0.5154,0.5544,0.0,0.8828,0.0,1.1426,1.2167,0.0,0.0,1.3075,0.0,1.2126,1.1154,0.996,0.0,0.0,0.0,0.0,0.0,0.0,0.0,0.0,0.0,0.0,0.0,0.0,0.0,0.0,0.0,0.4659,0.4131,0.3996,0.2779,0.2103,0.2036,0.1767,0.1564,0.1564,0.1394,0.1046,0.0455,-0.0433,-0.1305,-0.2239,-0.2963,-0.4213,-0.5715,-0.6146,-0.6373,-0.6524,-0.7891,-0.8232,-0.8033,-0.9555,-0.9818,-0.9475,-1.128,-1.2033,-1.2289,0.0,0.0,0.0,0.0,0.0,0.0,0.0,0.0,0.0,0.0,0.0,0.0,0.0,0.0,0.0,0.0619,0.0,0.0,0.0,0.0,0.0,-0.2307,-0.2309,-0.2504,-0.2993,-0.2505,-0.2112,-0.1815,-0.2247,-0.2677,-0.3325,-0.4075,-0.4772,-0.5221,-0.5113,-0.4862,-0.4587,-0.4515,-0.4378,-0.4181,-0.4265,-0.4297,-0.43,-0.43,-0.43,-0.43,-0.43,-0.43,-0.43,-0.43,-0.403,-0.3583,-0.3047,0.0,0.0,0.0,0.2367,0.3932,0.5615,0.6867,0.802,0.0,0.9844,1.0413,1.161,1.201,1.2273,1.2799,1.2533,1.1967,1.0901,0.0,0.0,0.0,0.0,0.0,0.0,0.0,0.0,0.0,0.0,0.0,0.0,0.0,0.0,0.0,0.5129,0.4755,0.4353,0.3685,0.3149,0.2748,0.2417,0.2217,0.2217,0.1896,0.1406,0.0818,-0.012,-0.0884,-0.1475,-0.2159,-0.3342,-0.4876,-0.5464,-0.5887,-0.6268,-0.7242,-0.7709,-0.7871,-0.8978,-0.9309,-0.9377,-1.0633,-1.1292,-1.1645,0.0,0.0,0.0,0.0,0.0,0.0,0.0,0.0,0.0,0.0,0.0,0.0,0.0,0.0,0.0,0.0,-0.109,0.0,0.0,0.0,0.0,-0.3299,-0.3484,-0.3943,-0.4676,-0.3941,-0.3547,-0.3486,-0.3576,-0.3784,-0.4204,-0.5162,-0.5785,-0.614,-0.5749,-0.5326,-0.4903,-0.4833,-0.4656,-0.424,-0.4259,-0.4279,-0.4297,-0.4275,-0.4279,-0.43,-0.43,-0.4389,-0.4567,-0.4567,-0.4654,-0.465,-0.3737,-0.3288,0.0,0.0,0.0,0.2746,0.5465,0.0,0.6759,0.7928,0.8315,0.8867,0.0,0.0,1.1398,0.0,1.2506,1.2247,0.0,0.0,0.0,0.0,0.0,0.0,0.0,0.0,0.0,0.0,0.0,0.0,0.0,0.0,0.0,0.0,0.5491,0.516,0.4622,0.442,0.4018,0.3482,0.3086,0.2809,0.2657,0.2119,0.1553,0.0965,0.0177,-0.0471,-0.1021,-0.1601,-0.2454,-0.3561,-0.4529,-0.53,-0.5894,-0.6696,-0.7365,-0.7905,-0.8567,-0.9061,-0.9458,-1.0167,-1.0685,-1.1158,0.0,0.0,0.0,0.0,0.0,0.0,0.0,0.0,0.0,0.0,0.0,0.0,0.0173,0.0,-0.0358,-0.1253,-0.1343,-0.1792,-0.2777,-0.3671,0.0,-0.4216,-0.4933,0.0,-0.5379,-0.5292,-0.4926,0.0,0.0,-0.4528,-0.4499,-0.5279,-0.6044,-0.6682,-0.6142,-0.5457,-0.4813,-0.4902,-0.4786,-0.4406,-0.4244,-0.4228,-0.4291,-0.421,-0.423,-0.43,-0.43,-0.4746,-0.5371,-0.5371,-0.5725,-0.6142,-0.5328,-0.4437,-0.3582,0.0,0.0,0.0,0.4586,0.5278,0.0,0.6519,0.7458,0.8357,0.0,0.0,0.0,1.1802,1.1962,1.1962,0.0,0.0,0.0,0.0,0.0,0.0,0.0,0.0,0.0,0.0,0.0,0.0,0.0,0.0,0.0,0.0,0.5752,0.5362,0.5362,0.4688,0.4287,0.422,0.3754,0.3113,0.2449,0.1524,0.099,0.0902,0.0281,-0.0338,-0.0902,-0.1342,-0.156,-0.1724,-0.3385,-0.4364,-0.4994,-0.6289,-0.7115,-0.7692,-0.8495,-0.8804,-0.8962,-1.0012,-1.0415,-1.0626,0.0,0.0,0.0,0.0,0.0,0.0,0.0,0.0,0.0,0.0,0.0,0.0,0.0,-0.1183,-0.2011,-0.2284,-0.2887,-0.3401,-0.3762,-0.4119,0.0,-0.5106,-0.5383,-0.5927,-0.6647,-0.6647,0.0,0.0,0.0,-0.5971,-0.609,-0.5947,-0.5965,-0.6233,-0.6218,-0.5909,-0.5368,-0.5272,-0.4893,-0.4424,-0.4304,-0.4271,-0.4295,-0.4265,-0.4273,-0.4387,-0.483,-0.527,-0.556,-0.6065,-0.6412,-0.6475,-0.6145,-0.5604,-0.4819,-0.2875,-0.0628,0.1643,0.3076,0.0,0.0,0.5627,0.6318,0.7331,0.8918,0.9526,1.0115,1.1564,1.224,1.2371,0.0,0.0,0.0,0.0,0.0,0.0,0.0,0.0,0.0,0.0,0.0,0.0,0.0,0.0,0.0,0.0,0.0,0.6474,0.6075,0.5807,0.5477,0.5024,0.4489,0.367,0.2563,0.1717,0.1184,0.0898,0.0393,-0.0224,-0.0898,-0.1064,-0.1364,-0.1827,-0.2727,-0.37,-0.4775,-0.522,-0.6115,-0.7336,-0.7887,-0.8579,-0.9413,-1.0115,-1.0635,-1.1108,0.0,0.0,0.0,0.0,0.0,0.0,0.0,0.0,0.0,0.0,0.0,0.0,0.0,0.0,-0.3544,-0.4193,-0.4693,-0.5292,-0.565,-0.574,-0.5957,-0.659,-0.6777,-0.7305,-0.7985,0.0,0.0,0.0,0.0,0.0,0.0,-0.6453,-0.6074,-0.5855,-0.6094,-0.5932,-0.5672,-0.5506,-0.5112,-0.4518,-0.4306,-0.4291,-0.434,-0.431,-0.4336,-0.448,-0.5294,-0.5747,-0.6136,-0.679,-0.7217,-0.7353,-0.6812,-0.6279,-0.5451,-0.3224,-0.148,0.0078,0.1639,0.0,0.0,0.0,0.5538,0.6362,0.816,0.0,0.9388,1.0878,1.167,0.0,0.0,0.0,0.0,0.0,0.0,0.0,0.0,0.0,0.0,0.0,0.0,0.0,0.0,0.0,0.0,0.0,0.0,0.0,0.6728,0.6531,0.6075,0.5428,0.4782,0.4068,0.3134,0.2196,0.148,0.1008,0.0392,-0.0224,-0.0898,-0.1066,-0.153,-0.2295,-0.2708,-0.3458,-0.4494,-0.4914,-0.5872,-0.705,-0.7674,-0.8486,-0.9413,-1.0167,-1.0635,-1.1099,0.0,0.0,0.0,0.0,0.0,0.0,0.0,0.0,0.0,-0.2679,0.0,0.0,0.0,0.0,0.0,-0.6829,-0.6823,-0.7192,-0.84,-0.8493,-0.8493,-0.8493,0.0,0.0,0.0,0.0,0.0,0.0,0.0,0.0,0.0,0.0,-0.6461,-0.5716,-0.5725,-0.561,-0.5542,0.0,-0.5263,-0.4791,0.0,-0.4279,-0.4428,-0.4338,-0.4414,-0.4666,-0.5514,-0.6267,-0.6907,-0.7608,-0.8291,-0.8653,-0.7521,-0.6411,-0.5315,-0.3906,-0.3437,-0.2733,0.0,0.0,0.0,0.0,0.0,0.0,0.6868,0.0,0.8849,0.9531,1.0214,0.0,0.0,0.0,0.0,0.0,0.0,0.0,0.0,0.0,0.0,0.0,0.0,0.0,0.0,0.0,0.0,0.0,0.7842,0.7451,0.7451,0.6793,0.6141,0.5425,0.4628,0.4242,0.4177,0.2866,0.1853,0.1175,0.0392,-0.028,-0.0898,-0.1291,-0.2015,-0.2956,-0.3287,-0.3626,-0.4084,-0.5513,-0.6347,-0.6923,-0.7955,-0.855,-0.8962,-1.0012,-1.0415,-1.0576,0.0,0.0,0.0,0.0,0.0,0.0,0.0,0.0,-0.4572,0.0,0.0,0.0,-0.3948,-0.5296,-0.6355,-0.6923,-0.757,-0.812,-0.8493,-0.8493,-0.8683,-0.9161,-0.944,-0.9815,0.0,0.0,0.0,0.0,0.0,0.0,0.0,0.0,0.0,0.0,-0.637,-0.6082,-0.5443,-0.5156,0.0,-0.4512,-0.4244,-0.4318,0.0,0.0,0.0,-0.4761,-0.6078,-0.6703,-0.7257,-0.8558,-0.9111,-0.9092,-0.8249,-0.7304,-0.6301,-0.5257,-0.4217,-0.3125,-0.18,0.0,0.0,0.0,0.0,0.0,0.0,0.0,0.0,0.9534,1.0569,0.0,0.0,0.0,0.0,0.0,0.0,0.0,0.0,0.0,0.0,0.0,0.0,0.0,0.0,0.0,0.0,0.0,0.9022,0.8694,0.8231,0.7512,0.6798,0.6141,0.536,0.4748,0.4184,0.2837,0.1916,0.1506,0.0793,0.0224,-0.028,-0.112,-0.1491,-0.1618,-0.323,-0.3858,-0.3811,-0.4869,-0.5894,-0.6821,-0.7127,-0.8107,-0.9413,-0.971,-1.0328,-1.1108,0.0,0.0,0.0,0.0,0.0,0.0,0.0,0.0,-0.6186,0.0,0.0,0.0,-0.5622,-0.7133,-0.8218,-0.8722,-0.9188,-0.9659,-1.0233,-1.0328,-1.0428,-1.082,-1.0915,-1.1106,-1.1543,0.0,0.0,0.0,0.0,0.0,0.0,0.0,0.0,0.0,0.0,0.0,0.0,0.0,0.0,0.0,-0.4383,0.0,0.0,-0.4555,-0.4604,0.0,0.0,0.0,-0.7403,-0.8895,-0.9206,-0.8938,-0.8446,-0.7793,-0.7092,-0.628,-0.5427,-0.445,-0.3209,-0.1798,-0.0389,0.0925,0.0,0.0,0.4667,0.6151,0.7425,0.0,0.0,0.0,0.0,0.0,0.0,0.0,0.0,0.0,0.0,0.0,0.0,0.0,0.0,0.0,0.0,0.9612,0.9484,0.9484,0.9484,0.9215,0.8554,0.8102,0.7512,0.6859,0.6125,0.5524,0.5061,0.366,0.282,0.2523,0.1557,0.0908,0.0504,-0.0448,-0.1052,-0.1466,-0.2709,-0.3472,-0.387,-0.4481,-0.5486,-0.6662,-0.6755,-0.7659,-0.8941,-0.956,-1.0166,-1.0896,0.0,0.0,0.0,0.0,0.0,0.0,0.0,0.0,-0.7674,0.0,-0.6752,-0.7134,-0.8158,-0.9183,-1.0217,-1.1157,-1.11,-1.158,-1.2797,-1.2775,-1.2754,-1.2727,-1.2727,-1.2614,-1.2377,0.0,0.0,0.0,0.0,0.0,0.0,0.0,0.0,0.0,0.0,0.0,0.0,0.0,0.0,-0.4758,-0.4501,-0.4469,0.0,0.0,-0.4753,-0.5135,-0.6637,-0.7238,-0.7515,-0.8929,-0.9031,0.0,0.0,0.0,0.0,0.0,-0.6677,-0.617,-0.4217,-0.3593,-0.2873,0.0,0.083,0.0,0.2755,0.4461,0.5698,0.0,0.0,0.0,0.0,0.0,0.0,0.0,0.0,0.0,0.0,0.0,0.0,0.0,0.0,0.0,1.0308,0.9862,0.9548,0.9484,0.9484,0.9215,0.8619,0.8619,0.8296,0.7517,0.6924,0.6521,0.624,0.4925,0.4165,0.3831,0.2342,0.1553,0.1342,0.0448,-0.0671,-0.184,-0.2007,-0.2786,-0.4069,-0.4257,-0.5182,-0.6405,-0.6678,-0.7232,-0.8105,-0.941,-0.9979,-1.0295,-1.5398,0.0,0.0,0.0,0.0,0.0,0.0,0.0,0.0,-0.9008,-0.9199,-0.9431,-0.9812,-1.0654,-1.1341,-1.1768,-1.2173,-1.2541,-1.3028,-1.2867,-1.2678,-1.249,-1.2484,-1.2366,-1.2124,-1.2167,0.0,0.0,0.0,0.0,0.0,0.0,0.0,0.0,0.0,0.0,0.0,0.0,0.0,-0.4533,-0.4402,0.0,-0.4675,-0.462,-0.5087,-0.5939,-0.6839,-0.7637,-0.8308,-0.9123,-0.9194,-0.8938,0.0,0.0,0.0,-0.7064,0.0,0.0,0.0,0.0,0.0,0.0,-0.1602,0.0,0.1059,0.2717,0.4191,0.0,0.6659,0.0,0.0,0.0,0.0,0.0,0.0,0.0,0.0,0.0,0.0,0.0,0.0,0.0,1.0364,1.018,0.9989,0.9548,0.9484,0.942,0.9285,0.9285,0.9017,0.8296,0.8161,0.7553,0.6347,0.5432,0.4607,0.3958,0.2548,0.1914,0.1846,0.0672,-0.0224,-0.1005,-0.2009,-0.2846,-0.3624,-0.3993,-0.4933,-0.6181,-0.6382,-0.723,-0.8389,-0.9116,-0.9742,-1.0428,-1.6085,0.0,0.0,0.0,0.0,0.0,0.0,0.0,0.0,-0.9825,-1.0587,-1.1079,-1.1079,-1.201,-1.2587,-1.2471,-1.2767,-1.2931,-1.2931,-1.2824,-1.2711,-1.2597,-1.2587,-1.2718,-1.2963,-1.2444,-1.2171,0.0,0.0,0.0,0.0,0.0,0.0,0.0,0.0,0.0,0.0,0.0,-0.4953,-0.4726,-0.4676,0.0,-0.5334,-0.5384,-0.5856,-0.6642,-0.7429,-0.8217,-0.8972,-0.9192,-0.9169,0.0,-0.8678,-0.8717,-0.8687,0.0,-0.7589,-0.759,0.0,0.0,0.0,-0.4153,0.0,0.0,0.0,0.0408,0.1594,0.2526,0.4356,0.6,0.6609,0.0,0.0,0.0,0.0,0.0,0.0,0.0,0.0,0.0,0.0,0.0,1.0737,1.0428,1.018,0.9926,0.9926,0.9926,0.9926,0.9926,0.9728,0.9396,0.8812,0.8285,0.7817,0.6693,0.5708,0.4965,0.3566,0.2723,0.2291,0.1119,0.0056,-0.0838,-0.1452,-0.2439,-0.3664,-0.3745,-0.4792,-0.6222,-0.6103,-0.6672,-0.7691,-0.8599,-0.9486,-1.0334,-1.6567,0.0,0.0,0.0,0.0,0.0,0.0,0.0,0.0,-1.0707,-1.1779,-1.2509,-1.2411,-1.3267,-1.3793,-1.354,-1.3265,0.0,-1.3039,-1.2867,-1.2743,-1.27,-1.2737,-1.3006,-1.357,-1.2752,-1.2614,0.0,0.0,0.0,0.0,0.0,0.0,0.0,0.0,0.0,0.0,0.0,0.0,-0.5315,0.0,-0.5608,-0.5923,-0.6113,-0.6585,-0.7283,-0.8055,-0.8821,-0.9279,-0.9104,-0.9043,-0.8991,-0.867,-0.9121,0.0,0.0,0.0,0.0,0.0,0.0,0.0,0.0,0.0,-0.4439,0.0,0.0,0.0,0.0,0.0,0.0,0.0,0.0,0.0,0.0,0.0,0.0,0.0,0.0,0.0,0.0,0.0,0.0,0.0,1.0683,1.0368,1.0421,1.0375,1.0368,1.0421,1.0428,1.0428,1.0428,0.939,0.8935,0.9169,0.7892,0.6819,0.5988,0.4594,0.3486,0.2681,0.1568,0.0392,-0.0727,-0.0838,-0.1909,-0.356,-0.3515,-0.4587,-0.6166,-0.5873,-0.6381,-0.7419,-0.8547,-0.9517,-1.0442,-1.7326,-1.6669,0.0,0.0,0.0,0.0,0.0,0.0,0.0,0.0,0.0,-1.3758,-1.415,-1.4147,-1.4385,-1.4955,-1.3841,-1.3367,-1.3992,-1.3233,-1.2667,-1.2463,-1.2651,-1.2661,-1.2319,-1.2927,-1.3061,-1.278,0.0,0.0,0.0,0.0,0.0,0.0,-0.9722,0.0,0.0,0.0,-0.6417,0.0,-0.625,-0.6076,0.0,-0.5652,-0.647,-0.79,-0.875,-0.9031,-0.9096,0.0,-0.8852,-0.882,0.0,-0.9121,-0.9587,-0.9215,0.0,0.0,0.0,0.0,0.0,0.0,-0.7139,0.0,0.0,0.0,-0.3622,-0.2023,0.0,0.0,0.0,0.0,0.0,0.0,0.0,0.0,0.0,0.0,0.0,0.0,0.0,0.0,0.0,1.0984,1.0629,1.0905,1.067,1.0636,1.0912,1.0919,1.0919,1.0919,1.0358,0.9837,0.9233,0.8282,0.721,0.5988,0.489,0.3741,0.2681,0.2014,0.1064,-0.0112,-0.0671,-0.1613,-0.2777,-0.3277,-0.4274,-0.5533,-0.589,-0.7223,-0.898,-0.9642,-1.0426,-1.1308,-1.8349,-1.7404,0.0,0.0,0.0,0.0,0.0,0.0,0.0,0.0,0.0,0.0,-1.4702,-1.5199,-1.5595,-1.5796,-1.5646,-1.5443,-1.5225,-1.4654,-1.4207,-1.3951,-1.404,-1.4111,-1.4185,-1.3952,-1.3923,-1.3967,-1.3374,0.0,0.0,0.0,0.0,0.0,-0.9928,0.0,-0.8417,0.0,-0.6764,0.0,0.0,0.0,0.0,-0.7141,-0.758,-0.8475,-0.8846,-0.8938,-0.8926,0.0,-0.882,0.0,0.0,0.0,0.0,-0.9878,0.0,0.0,0.0,0.0,0.0,0.0,0.0,0.0,-0.7219,0.0,-0.6486,0.0,0.0,0.0,0.0,0.0,0.0,0.0,0.518,0.0,0.0,0.0,0.0,0.0,0.0,0.0,0.0,0.0,0.0,0.0,1.074,1.0805,1.1131,1.1146,1.1232,1.1483,1.0737,1.0295,1.0268,0.9144,0.7914,0.6579,0.5592,0.4297,0.2681,0.2068,0.1119,-0.0056,-0.0604,-0.1441,-0.2478,-0.312,-0.4278,-0.5681,-0.6155,-0.7327,-0.8877,-0.9377,-1.0228,-1.1242,-1.9519,-1.8378,-1.7279,0.0,0.0,0.0,-1.4189,-1.3987,-1.3817,-1.3577,0.0,0.0,-1.5388,-1.6214,-1.6893,-1.7183,-1.7365,-1.7098,-1.649,-1.5966,-1.5486,-1.5057,-1.5108,-1.513,-1.5234,-1.4733,-1.4573,-1.4726,0.0,0.0,0.0,0.0,0.0,0.0,0.0,-0.9488,-0.9021,0.0,-0.7506,-0.7785,-0.7479,-0.7884,-0.8736,-0.8512,-0.8563,-0.8751,-0.8751,-0.8751,-0.8751,-0.8751,-0.8926,0.0,-0.9475,0.0,0.0,0.0,0.0,0.0,-1.0708,0.0,0.0,0.0,0.0,0.0,0.0,0.0,0.0,0.0,0.0,0.0,0.0,0.0,0.0,0.0,0.0,0.2878,0.0,0.0,0.0,0.0,0.0,0.0,0.0,0.0,0.0,1.1201,1.1009,1.1039,1.1464,1.1487,1.1601,1.1844,1.1135,1.08,1.0982,0.9878,0.8618,0.7235,0.6365,0.4922,0.2956,0.2512,0.1566,0.0224,-0.0327,-0.1125,-0.2109,-0.2973,-0.4249,-0.562,-0.6182,-0.726,-0.8609,-0.9289,-1.0134,-1.1098,-2.0948,-1.9445,-1.7944,0.0,0.0,0.0,-1.4526,-1.4295,-1.4188,-1.3854,0.0,0.0,0.0,0.0,-1.8402,-1.9502,-1.8448,-1.7759,-1.7512,-1.6586,-1.5607,-1.4782,-1.5006,-1.4769,-1.395,-1.4796,-1.4906,-1.4412,0.0,0.0,0.0,0.0,0.0,0.0,-1.1618,-1.0606,-0.9227,-0.915,-0.9155,-0.9091,-0.8884,-0.8996,-0.9262,0.0,-0.9012,-0.8576,-0.8576,0.0,0.0,-0.8576,-0.9183,0.0,0.0,0.0,0.0,0.0,0.0,0.0,0.0,0.0,0.0,-1.0542,0.0,0.0,0.0,0.0,-0.9663,0.0,0.0,0.0,0.0,0.0,0.0,-0.2423,0.0,0.0,0.0,0.0,0.0,0.0,0.0,0.0,0.0,0.0,0.0,1.2448,1.159,1.1249,1.1921,1.196,1.196,1.1976,1.1821,1.149,1.0982,1.0241,0.9222,0.7838,0.7014,0.5546,0.3558,0.3566,0.2569,0.0841,0.0223,-0.0547,-0.1428,-0.2907,-0.4108,-0.5118,-0.5821,-0.7163,-0.8848,-0.9945,-1.063,-1.1181,-2.0366,-1.9695,-1.8881,0.0,0.0,-1.6672,-1.6005,-1.5682,-1.5706,0.0,-1.6716,0.0,0.0,-1.9404,-2.0127,0.0,0.0,-2.0033,-1.9101,-1.8457,0.0,-1.6462,-1.6714,-1.6539,-1.5915,-1.618,-1.6113,-1.5691,0.0,0.0,0.0,0.0,0.0,0.0,0.0,-1.0861,0.0,0.0,0.0,0.0,0.0,-0.9077,-0.9262,0.0,0.0,-0.8568,-0.8568,-0.8999,0.0,-0.928,-0.9828,-1.0616,-1.0795,-1.1278,-1.1793,-1.2075,-1.2306,0.0,0.0,0.0,-1.2473,-1.1309,0.0,0.0,0.0,0.0,0.0,0.0,0.0,0.0,0.0,0.0,-0.4916,-0.4482,-0.3736,0.0,0.0,0.0,0.0,0.0,0.0,0.0,0.0,0.0,0.0,1.1107,1.1066,1.1098,0.0,1.1551,1.167,1.167,1.1539,1.1308,1.085,1.0227,0.9342,0.8305,0.713,0.5608,0.3781,0.3658,0.2625,0.0895,0.0426,-0.0262,-0.1109,-0.2661,-0.3728,-0.4467,-0.5968,-0.7089,-0.8046,-0.958,-1.0807,-1.1937,-2.0853,-2.0283,0.0,0.0,0.0,-1.7325,-1.6863,-1.6899,0.0,0.0,-1.8117,0.0,-1.9879,0.0,-2.1321,0.0,-2.1694,-2.1196,-2.0011,-1.952,0.0,-1.7552,-1.7589,-1.7391,-1.6865,-1.6857,-1.6645,-1.6206,0.0,-1.5855,0.0,0.0,0.0,0.0,0.0,-1.1368,-1.0988,-0.9917,-0.9493,0.0,0.0,-0.951,0.0,0.0,-0.874,-0.8648,0.0,-0.9238,-0.9804,-0.9843,-1.0429,-1.1286,-1.1435,-1.1731,-1.2005,-1.2362,-1.2311,-1.2177,-1.2274,-1.2557,0.0,-1.214,-1.2409,0.0,-1.194,0.0,0.0,0.0,0.0,0.0,0.0,0.0,0.0,-0.6996,-0.6322,-0.5653,0.0,-0.2894,0.0,0.0,0.0,0.0,0.0,0.0,0.9045,1.0219,1.0653,1.0867,0.0,0.0,1.1312,1.1312,1.136,1.1199,1.0808,1.0363,0.9656,0.8634,0.7344,0.59,0.4399,0.4048,0.2959,0.1174,0.0692,0.0,-0.0952,-0.2615,-0.3472,-0.3961,-0.5879,-0.6874,-0.7497,-0.9606,-1.1228,-1.2591,-2.2399,-2.1334,0.0,0.0,-1.8031,0.0,0.0,0.0,-1.8333,0.0,-1.9112,-2.0282,-2.0898,-2.1425,-2.1957,-2.255,-2.2015,-2.124,-2.0274,-1.9608,0.0,0.0,-1.7508,-1.7201,-1.6887,-1.6879,-1.6579,-1.5965,0.0,0.0,0.0,0.0,0.0,0.0,-1.316,0.0,-1.0905,-1.0687,-1.0506,-1.0274,-1.0213,-1.0093,-0.9951,-0.9506,-0.9074,-0.879,-0.9289,-0.955,-0.9671,-1.0258,-1.1072,-1.181,-1.1798,-1.2245,-1.2795,-1.2782,-1.2378,-1.207,-1.2677,-1.2662,-1.2557,-1.2915,0.0,0.0,0.0,0.0,-1.327,0.0,0.0,0.0,0.0,0.0,0.0,-0.9877,-0.8835,-0.767,0.0,0.0,-0.3805,0.0,0.0,0.0,0.621,0.7432,0.8613,0.9781,1.0279,1.0677,0.0,0.0,1.101,1.0971,1.1289,1.123,1.0763,1.0571,0.9962,0.8997,0.7639,0.6414,0.5324,0.4732,0.3514,0.1789,0.1224,0.0273,-0.0958,-0.2704,-0.3392,-0.3551,-0.5499,-0.6668,-0.7516,-1.015,-1.1892,-1.3035,-2.2002,-2.1291,-2.0312,0.0,-1.8153,-1.7632,0.0,0.0,0.0,0.0,-2.0845,-2.145,-2.2069,-2.2115,-2.2125,-2.2286,-2.1489,0.0,0.0,0.0,0.0,-1.7494,-1.7604,-1.7538,-1.7216,-1.7208,-1.7011,-1.6616,0.0,0.0,-1.5416,0.0,0.0,0.0,0.0,0.0,-1.2083,-1.1109,-1.0445,-0.9913,-0.895,-0.9367,0.0,0.0,-0.9804,-1.0219,-0.9658,-1.0201,-1.1162,-1.1134,-1.1756,-1.2511,-1.222,-1.2322,-1.2371,-1.2158,-1.1984,-1.1982,-1.214,-1.2721,-1.317,-1.2735,-1.3288,-1.3688,0.0,0.0,0.0,0.0,0.0,0.0,0.0,0.0,0.0,-1.1457,-1.0644,-0.952,0.0,0.0,0.0,-0.4793,0.0,0.0,0.3267,0.5156,0.6779,0.8229,1.008,0.0,0.0,0.0,0.0,1.0621,1.0939,1.0941,1.0574,1.0321,0.9937,0.9439,0.7591,0.6297,0.5559,0.4838,0.3514,0.1788,0.1683,0.0704,-0.0932,-0.1905,-0.2967,-0.4118,-0.5424,-0.7599,-1.0175,-1.1214,-1.215,-1.2981,-2.2402,0.0,0.0,-2.096,0.0,0.0,-1.9884,-2.0615,0.0,-2.1861,-2.2184,0.0,-2.2176,-2.2156,-2.1997,-2.1547,-2.0974,0.0,-1.9367,0.0,0.0,-1.7574,-1.7946,-1.798,-1.7333,-1.7055,0.0,-1.6645,0.0,0.0,-1.5204,0.0,0.0,0.0,0.0,-1.2826,-1.2532,-1.1684,-1.1057,-1.0632,-1.0315,0.0,0.0,-1.0726,-1.0824,-1.1215,-1.0534,-1.0889,-1.1612,-1.1719,-1.2162,-1.2525,-1.2351,-1.2218,-1.2084,-1.1917,-1.1893,-1.2023,-1.232,-1.2956,-1.3537,-1.343,-1.3857,-1.4145,-1.3493,-1.3381,-1.3381,0.0,0.0,0.0,0.0,0.0,0.0,0.0,0.0,0.0,0.0,0.0,0.0,0.0,-0.5564,-0.3809,-0.0494,0.2413,0.4608,0.5826,0.8324,0.0,0.0,0.0,0.0,1.0486,1.0812,1.0714,1.0198,1.0154,0.9672,0.8741,0.7309,0.6233,0.5466,0.4546,0.3403,0.2178,0.1422,0.0326,-0.0926,-0.1997,-0.3066,-0.4311,-0.628,-0.8827,-1.148,-1.233,-1.2979,-1.3557,-2.3057,0.0,0.0,0.0,0.0,0.0,0.0,-2.2995,0.0,-2.3226,0.0,-2.3027,-2.2135,-2.2162,-2.183,-2.0965,0.0,-2.0319,-1.9235,-1.9501,-1.9216,-1.7882,-1.8427,-1.8249,-1.7201,-1.6742,-1.6433,0.0,0.0,0.0,0.0,0.0,0.0,0.0,0.0,0.0,0.0,-1.2263,-1.193,-1.176,-1.2406,-1.2582,-1.2366,-1.2022,-1.1927,-1.1903,-1.1617,-1.152,-1.156,-1.2081,-1.2305,-1.2291,-1.2258,-1.2071,-1.1921,-1.1918,-1.1934,-1.2151,-1.2861,-1.3256,-1.364,-1.4327,-1.4515,-1.4515,-1.4515,-1.4515,-1.4515,-1.4515,-1.4515,-1.4515,0.0,0.0,0.0,0.0,0.0,0.0,0.0,0.0,0.0,0.0,0.0,0.0,-0.4548,-0.0628,0.2172,0.3157,0.0,0.0,0.0,0.0,0.0,1.0324,1.0653,0.0,0.9672,0.0,0.9149,0.7637,0.6884,0.6133,0.5313,0.415,0.3304,0.2623,0.0893,-0.022,-0.0964,-0.2548,-0.3752,-0.4839,-0.7799,-1.0089,-1.1934,-1.3205,-1.4068,-1.4613,-2.3076,0.0,0.0,0.0,0.0,-2.4711,-2.4857,-2.4629,-2.4421,-2.4353,-2.4251,-2.4031,-2.361,-2.2706,-2.2092,-2.1989,-2.1453,0.0,0.0,0.0,0.0,-1.8273,-1.8308,-1.7792,-1.6543,-1.7037,-1.6847,0.0,0.0,0.0,0.0,0.0,0.0,0.0,0.0,0.0,-1.2606,-1.219,0.0,-1.208,-1.1468,-1.1887,-1.2775,-1.2083,-1.2128,-1.2549,-1.2254,-1.2149,-1.2142,-1.2244,-1.2305,-1.2258,-1.2024,-1.1911,-1.1918,-1.1956,-1.1992,-1.2228,-1.3129,-1.3432,-1.364,-1.4327,-1.4515,-1.4515,-1.4515,-1.4515,-1.4515,-1.4515,-1.4515,-1.4515,-1.4515,0.0,0.0,0.0,0.0,0.0,0.0,0.0,0.0,0.0,0.0,-0.8054,0.0,-0.3872,0.0,0.0,0.0,0.0,0.0,0.0,0.0,0.0,0.9721,0.0,0.0,0.0,0.8406,0.7348,0.6623,0.5996,0.5506,0.4298,0.338,0.2625,0.1284,0.0111,-0.1049,-0.3021,-0.5309,-0.7715,-0.9488,-1.0975,-1.2246,-1.3319,-1.4619,-1.5863,-2.3115,0.0,0.0,0.0,0.0,0.0,0.0,-2.5538,0.0,-2.5167,-2.4566,-2.3841,-2.2825,-2.2564,-2.2221,-2.1722,-2.1327,-2.0954,-2.0405,-2.0157,-1.9566,-1.8696,-1.9141,-1.8883,-1.7755,-1.756,-1.7123,-1.6568,0.0,0.0,0.0,0.0,0.0,0.0,0.0,-1.3273,0.0,0.0,0.0,-1.3028,-1.2533,-1.2782,-1.3193,-1.2512,-1.2326,-1.2325,-1.1951,-1.185,-1.187,-1.2024,-1.2078,-1.2096,-1.2151,-1.2142,-1.2147,-1.2435,-1.2663,-1.2992,-1.3371,-1.3761,-1.407,-1.4446,-1.4515,-1.4515,-1.4515,-1.4515,-1.4565,-1.4902,-1.4734,-1.4515,-1.4515,-1.4515,0.0,0.0,0.0,0.0,0.0,0.0,-1.0451,0.0,0.0,0.0,0.0,0.0,0.0,0.0,0.0,0.0,0.0,0.0,0.0,0.0,0.0,0.0,0.0,0.0,0.0,0.7061,0.6689,0.6044,0.5093,0.3868,0.3111,0.2623,0.0781,-0.0391,-0.1113,-0.3915,-0.6536,-0.8898,-1.0695,-1.235,-1.3856,-1.5145,-1.612,-1.6828,0.0,-2.4237,0.0,0.0,-2.5218,0.0,-2.5653,-2.5875,-2.5907,-2.5618,-2.4735,-2.3624,-2.2435,-2.2483,-2.2335,-2.1582,-2.1309,-2.0884,-2.0183,-2.0425,-2.0114,-1.9271,-1.9862,-1.9826,-1.8812,-1.8103,-1.7569,0.0,0.0,0.0,0.0,0.0,0.0,0.0,0.0,0.0,0.0,0.0,-1.3668,-1.3712,-1.3726,-1.3502,-1.316,-1.2762,-1.2254,-1.1744,-1.151,-1.1491,-1.1655,-1.1832,-1.1864,-1.1934,-1.2233,-1.2277,-1.2307,-1.2949,-1.3417,-1.3692,-1.37,-1.407,-1.4515,-1.4515,-1.4442,-1.4378,-1.4378,-1.4363,-1.4531,-1.5022,-1.482,-1.4545,-1.4545,-1.4619,0.0,0.0,0.0,0.0,0.0,0.0,0.0,0.0,0.0,0.0,-0.8375,0.0,0.0,0.0,0.0,0.0,0.0,0.0,0.0,0.0,0.0,0.8522,0.7868,0.0,0.8287,0.0,0.6432,0.5835,0.4679,0.3472,0.2883,0.2734,0.0223,-0.1227,-0.1992,-0.5161,-0.7681,-0.9736,-1.192,-1.3926,-1.5742,-1.7115,-1.7747,-1.8052,0.0,0.0,0.0,0.0,0.0,0.0,-2.5754,-2.5526,-2.5579,-2.5635,-2.5163,-2.4634,-2.4195,-2.3142,-2.2514,-2.2418,-2.2058,-2.1777,-2.1684,-2.1361,-2.0704,-1.9861,-1.9871,-1.929,-1.8108,-1.863,-1.8434,0.0,0.0,0.0,0.0,0.0,0.0,0.0,0.0,0.0,0.0,-1.3528,-1.357,-1.3604,-1.3326,-1.2816,-1.2192,-1.2209,-1.1864,-1.1463,-1.1436,-1.1765,-1.2265,-1.2079,-1.1854,-1.1751,-1.2087,-1.223,-1.2413,-1.335,-1.3597,-1.3631,-1.4258,-1.4446,-1.4515,-1.4515,-1.4222,-1.3937,-1.3937,-1.3979,-1.4067,-1.4121,-1.4376,-1.4637,-1.4749,-1.5079,-1.542,0.0,0.0,0.0,0.0,0.0,-1.0866,-1.0114,0.0,0.0,0.0,-0.8733,0.0,0.0,-0.3824,0.0,0.0,0.0,0.0,0.7459,0.0,0.7298,0.7216,0.6852,0.6302,0.5512,0.5368,0.5095,0.4833,0.3507,0.3113,0.3347,0.039,-0.233,-0.4757,-0.6869,-0.8939,-1.1064,-1.372,-1.5724,-1.7277,-1.796,-1.8898,-1.9948,0.0,0.0,0.0,0.0,0.0,0.0,0.0,-2.4806,-2.4257,-2.3998,-2.391,-2.3752,-2.3301,-2.2588,-2.2139,-2.2139,-2.1748,-2.1494,-2.1494,-2.083,-2.0275,-1.9955,-1.964,-1.9391,-1.9149,-1.9222,-1.8833,0.0,0.0,0.0,0.0,0.0,0.0,0.0,0.0,-1.476,-1.4697,-1.4474,-1.44,-1.4348,-1.3381,-1.2987,-1.293,-1.228,-1.2138,-1.2232,-1.2104,-1.2232,-1.2472,-1.2334,-1.239,-1.2545,-1.29,-1.3037,-1.3269,-1.3994,-1.4181,-1.4186,-1.4136,-1.413,-1.4075,-1.3837,-1.3653,-1.3636,-1.3893,-1.3968,-1.4218,-1.4903,-1.5414,-1.5639,-1.531,-1.5618,-1.5972,0.0,0.0,0.0,0.0,0.0,0.0,-1.0427,0.0,-0.9573,0.0,0.0,0.0,0.0,0.0,0.0,0.0,0.0,0.0,0.5221,0.0,0.6088,0.6585,0.6777,0.6561,0.5868,0.5693,0.5343,0.472,0.3482,0.2188,0.0835,0.0,-0.1615,-0.3871,-0.7058,-0.9589,-1.1816,-1.5133,-1.7562,-1.926,-1.9864,-2.0375,-2.086,-2.565,0.0,-2.6278,0.0,-2.5913,-2.5587,-2.5594,-2.4317,-2.3303,-2.3207,-2.2814,-2.2529,-2.2344,-2.1953,-2.1699,-2.1699,-2.1289,-2.0986,-2.0859,-2.0254,-1.9853,-1.9736,-1.9443,0.0,-1.9727,-1.9561,-1.9197,-1.8564,-1.8577,0.0,0.0,0.0,0.0,0.0,-1.5112,-1.5282,-1.5144,-1.4927,-1.4788,-1.4608,-1.3584,-1.3235,-1.3284,-1.2542,-1.2429,-1.2704,-1.2573,-1.2634,-1.2818,-1.2818,-1.2985,-1.3269,-1.3493,-1.3692,-1.3881,-1.4437,-1.4523,-1.4357,-1.4013,-1.38,-1.37,-1.3515,-1.3411,-1.3478,-1.3926,-1.3985,-1.4092,-1.4927,-1.5715,-1.6148,-1.5785,-1.615,-1.6585,-1.6585,0.0,0.0,0.0,-1.2556,0.0,-1.049,-1.0052,-0.9799,-0.984,-0.9586,0.0,0.0,0.0,0.0,0.0,0.0,0.0,0.0,0.0,0.0,0.0,0.5872,0.5849,0.5564,0.5396,0.5022,0.4397,0.3655,0.2106,-0.0056,0.0386,-0.0386,-0.2327,-0.7461,-1.0432,-1.2247,-1.6651,-1.9478,-2.1076,-2.1247,-2.1325,-2.1448,-2.5461,-2.615,-2.6563,-2.6268,-2.6495,-2.6485,-2.5775,-2.4238,-2.3247,-2.3753,-2.2331,-2.1416,-2.1846,-2.1504,-2.124,-2.124,-2.083,-2.0391,-1.9961,-1.9922,-1.9727,0.0,0.0,-1.9287,-1.9297,-1.9697,-1.9492,-1.8582,0.0,0.0,-1.62,0.0,-1.4332,-1.4038,-1.4357,-1.4387,-1.4247,-1.4395,-1.4329,-1.4016,-1.3783,-1.3347,-1.2781,-1.2773,-1.2642,-1.2512,-1.2512,-1.2948,-1.3502,-1.3502,-1.3685,-1.385,-1.3749,-1.3821,-1.407,-1.4538,-1.431,-1.3892,-1.3882,-1.3598,-1.3405,-1.3907,-1.3694,-1.3537,-1.4093,-1.3903,-1.3631,-1.3631,-1.4754,-1.5763,-1.5877,-1.6579,-1.7202,-1.7202,0.0,0.0,0.0,0.0,0.0,-1.0268,-1.0104,-0.9838,-0.9245,-0.9714,0.0,0.0,0.0,0.0,0.0,0.0,0.0,0.3045,0.3214,0.0,0.4218,0.3589,0.3481,0.3997,0.3873,0.3812,0.3807,0.4182,0.3442,0.1773,0.1868,0.1124,-0.0653,-0.8394,-1.1665,-1.2401,-1.8408,-2.1498,-2.2477,-2.1609,-2.1501,-2.1784,-2.6458,-2.6892,-2.7152,-2.6771,-2.6529,-2.6256,-2.5882,-2.4856,-2.4039,-2.3902,-2.3253,-2.2553,-2.192,-2.1242,-2.0781,0.0,-2.0381,-2.0059,0.0,-1.9365,-1.8984,-1.8848,-1.8574,-1.8555,-1.8838,-1.8975,-1.8769,-1.8213,0.0,0.0,0.0,-1.6075,-1.5605,-1.5102,-1.5496,-1.5551,-1.5413,-1.5332,-1.5142,-1.4908,-1.4197,-1.3969,-1.4043,-1.3563,-1.3683,-1.3983,-1.3881,-1.401,-1.4154,-1.3875,-1.4176,-1.4522,-1.3686,-1.3447,-1.3559,-1.3728,-1.3635,-1.3415,-1.3184,-1.3009,-1.2853,-1.2721,-1.2604,-1.2759,-1.3585,-1.4226,-1.464,-1.464,-1.5527,-1.6322,-1.6373,-1.7176,-1.7788,-1.7788,-1.6601,0.0,0.0,0.0,-1.1604,-1.074,-1.0501,-1.0051,0.0,-0.95,0.0,0.0,0.0,0.0,0.0,0.0,0.0,0.0,0.1706,0.0,0.3523,0.3145,0.3069,0.3275,0.3909,0.4182,0.4238,0.4356,0.2996,0.0612,0.1476,-0.0435,-0.4538,-0.9635,-1.3164,-1.578,-2.028,-2.2293,-2.2586,-2.1898,-2.1258,-2.0624,-2.6518,-2.6615,-2.6615,-2.6469,-2.6089,-2.5914,-2.5965,-2.507,-2.429,-2.403,-2.3477,-2.281,-2.2052,-2.1352,0.0,-2.0615,-2.0312,-2.0019,-1.9697,-1.918,-1.874,-1.8418,-1.8154,-1.8135,-1.8398,0.0,0.0,-1.8008,-1.8115,-1.7588,-1.6484,-1.6412,-1.6056,-1.553,-1.5737,-1.5809,-1.5685,-1.5472,-1.5289,-1.5079,-1.4501,-1.441,-1.4606,-1.4189,-1.4249,-1.4588,-1.439,-1.4277,-1.4212,-1.38,-1.3895,-1.3998,-1.3321,-1.2956,-1.2901,-1.3204,-1.3186,-1.3002,-1.2788,-1.2614,-1.2439,-1.237,-1.2501,-1.289,-1.3716,-1.4501,-1.5062,-1.488,-1.5631,-1.6359,-1.6359,-1.6974,-1.7581,-1.7829,-1.651,-1.5394,-1.5164,0.0,0.0,0.0,0.0,0.0,0.0,-0.9618,-0.9262,0.0,0.0,0.0,0.0,0.0,0.0,0.0264,0.0504,0.0,0.234,0.223,0.2277,0.2479,0.3375,0.3892,0.411,0.3883,0.2883,0.1268,0.0243,-0.2056,-0.5562,-1.1363,-1.4861,-1.6944,-2.105,-2.2474,-2.2161,-2.1403,-2.0581,-1.9793,-2.555,-2.5451,0.0,0.0,-2.538,0.0,-2.5913,-2.487,-2.41,-2.4135,-2.3066,-2.2265,-2.2265,-2.1789,-2.1246,-2.0708,0.0,0.0,0.0,-1.9219,-1.8838,-1.8047,-1.8008,-1.7998,-1.7969,-1.835,-1.833,-1.7871,-1.7451,-1.6826,-1.6076,-1.6016,-1.5801,-1.5362,-1.5205,-1.5156,-1.5156,-1.5029,-1.4843,-1.4715,-1.4715,-1.4606,-1.4506,-1.4478,-1.4469,-1.4414,-1.405,-1.3893,-1.3829,-1.3488,-1.3109,-1.2804,-1.2791,-1.2489,-1.236,-1.2993,-1.2982,-1.272,-1.272,-1.2452,-1.2314,-1.2774,-1.3266,-1.381,-1.428,-1.4743,-1.4971,-1.4558,-1.5251,-1.5911,-1.5948,-1.6302,-1.6773,-1.7243,-1.6121,-1.5148,-1.509,0.0,0.0,0.0,0.0,0.0,0.0,-1.0013,-0.9652,0.0,0.0,0.0,0.0,0.0,-0.2654,-0.1034,-0.0438,0.0185,0.0926,0.0896,0.1271,0.1956,0.2514,0.3065,0.3555,0.3157,0.2948,0.2731,-0.1449,-0.3618,-0.4826,-1.3449,-1.661,-1.6463,-2.0954,-2.217,-2.1252,-2.0314,-1.9635,-1.9181,0.0,0.0,-2.4796,-2.434,-2.4458,-2.4747,-2.4879,-2.4321,-2.3982,-2.4362,-2.3833,-2.3175,-2.2536,-2.2365,-2.2043,-2.1286,-2.042,-1.9565,-1.8809,-1.8486,-1.8223,-1.8018,-1.8008,-1.7861,-1.7539,-1.7627,-1.7305,-1.6523,-1.6094,-1.5771,-1.5566,-1.535,-1.5183,-1.5088,-1.4803,-1.4693,-1.4684,-1.4725,-1.4666,-1.4565,-1.4852,-1.4734,-1.4478,-1.4274,-1.4144,-1.4031,-1.3995,-1.3997,-1.3984,-1.3977,-1.3945,-1.3867,-1.3501,-1.3343,-1.32,-1.2591,-1.2579,-1.2772,-1.2772,-1.3008,-1.3276,-1.3362,-1.38,-1.4233,-1.4373,-1.4743,-1.5153,-1.5277,-1.5626,-1.5995,-1.6244,-1.6474,-1.6658,-1.6784,-1.6087,-1.543,-1.5159,-1.4042,0.0,0.0,-1.1806,-1.0974,-1.0243,-0.992,-0.9134,0.0,0.0,0.0,0.0,-0.4713,-0.3823,-0.1929,-0.1265,-0.0616,0.0123,0.0642,0.169,0.3171,0.3337,0.3442,0.36,0.5112,0.2773,-0.2489,-0.1432,-0.4739,-1.1144,-1.5293,-1.7459,-1.8461,-2.1512,-2.1647,-2.0065,-1.9618,-1.8905,-1.8116,-2.3989,-2.419,-2.4232,-2.3941,-2.4056,-2.4181,-2.4181,-2.3941,-2.3785,-2.3809,-2.358,-2.3269,-2.285,-2.2573,-2.2186,-2.1654,-2.095,-2.0094,-1.9123,-1.8903,-1.8592,-1.8125,-1.8105,-1.7905,-1.753,-1.752,-1.7053,-1.6125,-1.6035,-1.5751,-1.5313,-1.5338,-1.521,-1.498,-1.4734,-1.4616,-1.4743,-1.4616,-1.4616,-1.4616,-1.4743,-1.4681,-1.4524,-1.4402,-1.4305,-1.4295,-1.4133,-1.426,-1.4383,-1.4051,-1.4133,-1.4236,-1.3741,-1.3631,-1.353,-1.2959,-1.2987,-1.317,-1.317,-1.3362,-1.3658,-1.3905,-1.4186,-1.4466,-1.4651,-1.5062,-1.5367,-1.5546,-1.584,-1.6041,-1.6017,-1.6255,-1.6385,-1.6282,-1.5927,-1.5504,-1.5158,-1.456,0.0,-1.3212,-1.2436,-1.1608,-1.0593,-1.0218,-0.9326,-0.7652,0.0,0.0,-0.4866,-0.4866,-0.4074,-0.2175,-0.1514,-0.0673,0.0361,0.1262,0.2343,0.3611,0.3834,0.4316,0.4981,0.3556,0.0957,-0.2624,-0.5046,-0.8609,-1.2923,-1.6013,-1.7309,-1.7624,-1.987,-1.9754,-1.8381,-1.8562,-1.8115,-1.7384,-2.3827,-2.3789,-2.3682,-2.3729,-2.3724,-2.3652,-2.3652,-2.358,-2.34,-2.3027,-2.2907,-2.2859,-2.2859,-2.2462,-2.2103,-2.1939,-2.1688,-2.1007,-1.986,-1.9698,-1.9256,-1.8487,-1.8394,-1.8134,-1.7667,-1.7472,-1.6941,-1.5957,-1.6348,-1.6101,-1.5215,-1.5511,-1.5432,-1.497,-1.4784,-1.4784,-1.4911,-1.4734,-1.4725,-1.4834,-1.4793,-1.4754,-1.4727,-1.4668,-1.47,-1.4676,-1.4335,-1.4518,-1.4788,-1.4062,-1.4062,-1.4324,-1.3973,-1.38,-1.3705,-1.38,-1.3847,-1.3894,-1.3752,-1.38,-1.3988,-1.4419,-1.4558,-1.4651,-1.5017,-1.5367,-1.5635,-1.568,-1.5957,-1.61,-1.5812,-1.6001,-1.6114,-1.5916,-1.5751,-1.5564,-1.5137,0.0,-1.4613,-1.3396,-1.2955,-1.2207,-1.0904,-1.0588,-0.9655,-0.7807,-0.7999,-0.7208,0.0,-0.4659,-0.3887,-0.2164,-0.1425,-0.0301,0.1281,0.2206,0.3063,0.3886,0.4546,0.5462,0.64,0.2353,-0.009,-0.1488,-0.8122,-1.1641,-1.2968,-1.6157,-1.6728,-1.5754,-1.7603,-1.7715,-1.6841,-1.7412,-1.7296,-1.6809,-2.2601,-2.2862,-2.2967,-2.2573,-2.2811,-2.3099,-2.3099,-2.2727,-2.257,-2.2931,-2.2594,-2.2318,-2.2318,-2.2246,-2.2159,-2.2169,-2.2127,-2.1481,-2.0151,-1.9641,-1.9296,-1.9145,-1.8695,-1.8255,-1.7878,-1.6948,-1.6209,-1.5508,-1.5586,-1.5488,-1.5362,-1.5204,-1.5096,-1.498,-1.4684,-1.4565,-1.4625,-1.5167,-1.54,-1.5352,-1.5921,-1.5884,-1.5389,-1.5045,-1.4676,-1.4324,-1.4361,-1.4443,-1.4522,-1.4787,-1.4649,-1.4471,-1.4765,-1.4605,-1.4373,-1.4743,-1.5051,-1.513,-1.4466,-1.4777,-1.522,-1.5051,-1.5187,-1.5367,-1.5153,-1.5367,-1.5691,-1.6057,-1.6156,-1.6275,-1.6509,-1.6349,-1.6093,-1.5697,-1.5929,-1.586,-1.5211,0.0,-1.473,-1.4114,-1.3129,-1.2422,-1.2043,-1.0581,-0.9303,-0.8468,-0.7516,-0.6237,-0.4513,-0.4452,-0.3914,-0.2692,-0.1125,0.0869,0.314,0.2839,0.3492,0.5039,0.6499,0.6528,0.5391,0.8989,0.4778,-0.5194,-0.2465,-0.6563,-1.5249,-1.6428,-1.6303,-1.5534,-1.74,-1.7525,-1.6645,-1.6802,-1.6638,-1.6246,-2.272,-2.2871,-2.2997,-2.2739,-2.2627,-2.2558,-2.2558,-2.2354,-2.2282,-2.2522,-2.2342,-2.2197,-2.2197,-2.2197,-2.2077,-2.1789,-2.1765,-2.139,-2.0415,-2.0048,-1.97,-1.9432,-1.8952,-1.8275,-1.7551,-1.7041,-1.6244,-1.5078,-1.5342,-1.5229,-1.4792,-1.4629,-1.462,-1.4792,-1.4915,-1.4879,-1.4792,-1.5355,-1.5426,-1.5204,-1.5478,-1.5468,-1.5256,-1.5084,-1.486,-1.4704,-1.4775,-1.4968,-1.5218,-1.5108,-1.5165,-1.5206,-1.5108,-1.5062,-1.5096,-1.5322,-1.5457,-1.5546,-1.5424,-1.5647,-1.5869,-1.5736,-1.5836,-1.5869,-1.5736,-1.5944,-1.625,-1.6436,-1.6607,-1.6735,-1.671,-1.6735,-1.6565,-1.6001,-1.61,0.0,0.0,-1.5614,-1.5408,-1.4333,-1.389,-1.3295,-1.2372,-1.0956,-0.9748,-0.9105,-0.7999,-0.6652,-0.5258,-0.4664,-0.3957,-0.3156,-0.1426,0.062,0.3109,0.3369,0.4566,0.6607,0.8677,0.9524,0.9204,0.7035,0.2933,-0.2662,-0.6117,-1.0358,-1.4853,-1.5216,-1.4889,-1.4306,-1.5639,-1.5784,-1.5301,-1.5773,-1.576,-1.5432,-2.3089,-2.3122,-2.3162,-2.3301,-2.2811,-2.242,-2.242,-2.2309,-2.2197,-2.2197,-2.2197,-2.2149,-2.2017,-2.2005,-2.1801,-2.1272,-2.1223,-2.1055,-2.0646,-2.0311,-1.9968,-1.9587,-1.9136,-1.8383,-1.7435,-1.7424,-1.6642,-1.5099,-1.5529,-1.5314,-1.4528,-1.4407,-1.4508,-1.471,-1.512,-1.518,-1.4976,-1.5446,-1.55,-1.5164,-1.5257,-1.5236,-1.5218,-1.5218,-1.5157,-1.5108,-1.5108,-1.5418,-1.5753,-1.5383,-1.5568,-1.5881,-1.5507,-1.5513,-1.5736,-1.5736,-1.5812,-1.5901,-1.6144,-1.6275,-1.6275,-1.6188,-1.6188,-1.6231,-1.6188,-1.6392,-1.668,-1.668,-1.6976,-1.7115,-1.685,-1.7031,-1.6989,-1.6405,0.0,0.0,0.0,-1.6244,-1.6047,-1.4552,-1.4584,-1.4165,-1.2717,-1.1436,-1.0435,-0.9904,-0.851,-0.7124,-0.5993,-0.5076,-0.4289,-0.3633,-0.1724,0.0553,0.3202,0.4117,0.5975,0.8765,0.9356,1.0205,1.1032,0.3799,-0.0234,-0.1908,-0.924,-1.3052,-1.4072,-1.3946,-1.3609,-1.3288,-1.4087,-1.4278,-1.4224,-1.49,-1.499,-1.4713,-2.3122,-2.3098,-2.3293,-2.3813,-2.3433,-2.3027,-2.3027,-2.2592,-2.2197,-2.2197,-2.2197,-2.2005,-2.1512,-2.1464,-2.1247,-2.0718,-2.067,-2.0658,-2.061,-2.0109,-1.9821,-1.9785,-1.9282,-1.8691,-1.8038,-1.8038,-1.7409,-1.6095,-1.6267,-1.5956,-1.5196,-1.5123,-1.506,-1.4955,-1.487,-1.485,-1.4841,-1.5599,-1.5763,-1.5701,-1.6389,-1.6339,-1.5806,-1.5806,-1.5544,-1.5108,-1.5108,-1.5312,-1.5605,-1.5558,-1.5848,-1.6162,-1.6125,-1.6156,-1.6156,-1.6156,-1.6392,-1.6552,-1.6275,-1.6436,-1.6552,-1.612,-1.6262,-1.6392,-1.6088,-1.625,-1.6552,-1.668,-1.6976,-1.7199,-1.7157,-1.7199,-1.7073,-1.6723,0.0,0.0,-1.6231,-1.6455,-1.6249,-1.5006,-1.4878,-1.4529,-1.3608,-1.2054,-1.1124,-1.1074,-0.8626,-0.6895,-0.6362,-0.5773,-0.5003,-0.4165,-0.1491,0.1537,0.4811,0.5453,0.7852,1.192,0.6797,0.5103,0.6401,0.2962,-0.2179,-0.825,-0.5972,-0.8461,-1.4047,-1.3509,-1.3235,-1.3254,-1.3894,-1.4173,-1.4224,-1.4603,-1.4617,-1.4406,-2.3122,-2.3097,-2.327,-2.3912,-2.3197,-2.2814,-2.3566,-2.2801,-2.2324,-2.2723,-2.2135,-2.1617,-2.1408,-2.1131,-2.0694,-2.0141,-2.0093,-1.9961,-1.9624,-1.9408,-1.9287,-1.9287,-1.8782,-1.8223,-1.7634,-1.7646,-1.6922,-1.5455,-1.5697,-1.552,-1.4866,-1.4643,-1.4734,-1.5006,-1.5243,-1.5254,-1.5159,-1.5688,-1.5836,-1.5776,-1.5764,-1.5742,-1.5705,-1.5487,-1.5406,-1.5412,-1.5412,-1.5647,-1.5957,-1.5957,-1.6057,-1.62,-1.62,-1.6362,-1.6565,-1.6778,-1.6905,-1.6976,-1.6863,-1.6905,-1.6947,-1.6693,-1.6778,-1.6863,-1.6693,-1.6778,-1.705,-1.7497,-1.7893,-1.8175,-1.8133,-1.8384,-1.8495,-1.8412,0.0,-1.7738,-1.7523,-1.7447,-1.6822,-1.539,-1.5521,-1.5221,-1.4025,-1.3042,-1.226,-1.1729,-1.0089,-0.8711,-0.7953,-0.6126,-0.4984,-0.4692,-0.1652,0.0606,0.1863,0.0887,0.1791,0.452,0.2402,0.1691,0.2171,-0.1108,-0.4244,-0.7216,-0.9074,-1.1704,-1.4525,-1.3667,-1.3503,-1.3745,-1.3608,-1.3568,-1.3602,-1.3722,-1.3735,-1.3648,-2.3055,-2.3086,-2.3313,-2.3916,-2.3178,-2.2747,-2.3593,-2.2874,-2.2302,-2.251,-2.1906,-2.1325,-2.1149,-2.0828,-2.0397,-1.9848,-1.9799,-1.9587,-1.9011,-1.8987,-1.8987,-1.8987,-1.865,-1.8156,-1.7618,-1.7633,-1.6914,-1.5434,-1.564,-1.5418,-1.4757,-1.4612,-1.4709,-1.5056,-1.535,-1.5429,-1.5245,-1.5545,-1.5672,-1.5691,-1.5379,-1.5457,-1.5768,-1.5513,-1.5603,-1.578,-1.578,-1.6044,-1.6362,-1.6362,-1.6448,-1.6491,-1.6491,-1.6693,-1.6892,-1.7157,-1.7282,-1.7393,-1.7393,-1.7516,-1.7516,-1.7115,-1.7044,-1.7073,-1.7002,-1.7258,-1.7663,-1.8126,-1.8758,-1.9264,-1.9222,-1.9461,-1.9711,-1.9711,-1.9237,-1.8814,-1.8667,-1.8438,-1.7785,-1.6337,-1.6421,-1.6092,-1.5028,-1.4185,-1.3439,-1.2725,-1.1559,-1.0447,-0.9504,-0.7453,-0.6007,-0.5379,-0.387,-0.2684,-0.1815,-0.2023,-0.1468,-0.0194,-0.2037,-0.2663,-0.2306,-0.635,-0.8525,-0.9269,-1.2531,-1.4357,-1.4917,-1.4088,-1.3887,-1.4071,-1.3481,-1.3267,-1.3267,-1.3267,-1.3301,-1.3323,-2.2971,-2.3083,-2.3294,-2.3991,-2.3565,-2.3068,-2.3082,-2.2591,-2.2037,-2.1486,-2.1443,-2.123,-2.0677,-2.0614,-2.0401,-1.9849,-1.9798,-1.9552,-1.904,-1.8987,-1.8987,-1.8987,-1.8987,-1.8734,-1.8205,-1.8193,-1.7577,-1.628,-1.6385,-1.5962,-1.5108,-1.5255,-1.521,-1.5108,-1.5108,-1.5108,-1.5108,-1.5108,-1.5277,-1.5591,-1.5591,-1.5869,-1.62,-1.62,-1.62,-1.62,-1.62,-1.6436,-1.671,-1.671,-1.6934,-1.7199,-1.7199,-1.7199,-1.7199,-1.7199,-1.7475,-1.7787,-1.7787,-1.8147,-1.8266,-1.7282,-1.696,-1.6931,-1.6918,-1.7643,-1.8352,-1.8468,-1.947,-2.0301,-2.0301,-2.0358,-2.043,-2.043,-2.043,-2.0175,-1.9514,-1.9429,-1.9041,-1.8014,-1.7572,-1.7175,-1.6828,-1.5492,-1.4506,-1.4136,-1.2882,-1.1783,-1.098,-0.9876,-0.8319,-0.6192,-0.8485,-0.8471,-0.5776,-0.2124,-0.0261,-0.0274,-0.6297,-0.8398,-0.7164,-1.256,-1.5362,-1.5979,-1.5363,-1.5159,-1.5171,-1.4618,-1.4315,-1.4131,-1.3607,-1.3391,-1.3391,-1.3391,-1.3493,-1.3615,-2.2409,-2.2451,-2.2648,-2.328,-2.2867,-2.2783,-2.3659,-2.2884,-2.2273,-2.2532,-2.188,-2.1321,-2.1199,-2.082,-2.054,-2.0372,-2.0003,-1.9552,-1.904,-1.9344,-1.9379,-1.8956,-1.8224,-1.7908,-1.791,-1.6931,-1.6344,-1.6065,-1.5794,-1.5633,-1.5614,-1.5558,-1.5647,-1.5881,-1.5881,-1.5881,-1.5881,-1.5881,-1.6088,-1.6367,-1.6132,-1.6219,-1.6522,-1.6275,-1.6362,-1.6552,-1.6552,-1.6964,-1.7421,-1.7144,-1.731,-1.7557,-1.7282,-1.7393,-1.7639,-1.7639,-1.7948,-1.8305,-1.8305,-1.8383,-1.8422,-1.7988,-1.8249,-1.8453,-1.7869,-1.8699,-1.9651,-1.9936,-2.0358,-2.0781,-2.1041,-2.1193,-2.141,-2.1684,-2.1431,-2.1222,-2.1338,-2.0635,-1.9821,-1.9126,-1.8693,-1.8363,-1.8023,-1.7343,-1.6503,-1.5492,-1.4063,-1.3236,-1.3277,-1.0019,-0.8829,-1.0214,-0.8318,-0.8462,-1.0947,-0.9863,-0.9289,-0.9259,-1.2774,-1.4203,-1.3827,-1.5065,-1.6013,-1.6568,-1.5581,-1.558,-1.615,-1.479,-1.4422,-1.4601,-1.3632,-1.3267,-1.3267,-1.3267,-1.3323,-1.3459,-2.2184,-2.2184,-2.2297,-2.2676,-2.2423,-2.2437,-2.3259,-2.2676,-2.2264,-2.2387,-2.1835,-2.1423,-2.1423,-2.1118,-2.0921,-2.0921,-2.0202,-1.9623,-1.9281,-1.9371,-1.9253,-1.8862,-1.8081,-1.7654,-1.77,-1.6748,-1.6175,-1.6107,-1.5812,-1.578,-1.5969,-1.5869,-1.5969,-1.62,-1.62,-1.62,-1.62,-1.62,-1.6392,-1.668,-1.6479,-1.6607,-1.6892,-1.685,-1.6976,-1.7173,-1.7366,-1.7693,-1.8028,-1.7787,-1.7868,-1.8028,-1.7787,-1.7868,-1.8068,-1.7988,-1.8305,-1.8679,-1.8793,-1.8983,-1.9191,-1.9514,-1.9427,-1.9196,-1.9123,-2.0006,-2.0955,-2.1347,-2.1913,-2.2424,-2.2637,-2.2842,-2.3071,-2.3274,-2.2817,-2.2424,-2.2434,-2.1563,-2.0691,-2.007,-1.9534,-1.9148,-1.897,-1.8454,-1.7826,-1.7068,-1.5409,-1.4865,-1.5807,-1.316,-1.1919,-1.2609,-1.1683,-1.1807,-1.3105,-1.4142,-1.4622,-1.4555,-1.5941,-1.6633,-1.6675,-1.6321,-1.643,-1.6837,-1.6158,-1.622,-1.6701,-1.5491,-1.4993,-1.493,-1.397,-1.3421,-1.3198,-1.3198,-1.3301,-1.3391,-2.2184,-2.2184,-2.2184,-2.2184,-2.2184,-2.2184,-2.2184,-2.2184,-2.2044,-2.1568,-2.1471,-2.1471,-2.1471,-2.1471,-2.1471,-2.1471,-2.0478,-1.9812,-1.9712,-1.923,-1.8891,-1.8787,-1.8336,-1.7935,-1.765,-1.7185,-1.6757,-1.6355,-1.6312,-1.6293,-1.6231,-1.6231,-1.6275,-1.6287,-1.6287,-1.6287,-1.6287,-1.6287,-1.6479,-1.6795,-1.6795,-1.7018,-1.7352,-1.772,-1.7868,-1.7908,-1.8344,-1.85,-1.8553,-1.8539,-1.85,-1.8461,-1.8475,-1.8514,-1.85,-1.8422,-1.8679,-1.908,-1.9346,-1.9788,-2.0373,-2.135,-2.0451,-1.9556,-2.0619,-2.1578,-2.2302,-2.2712,-2.3702,-2.453,-2.4594,-2.4713,-2.4854,-2.4869,-2.4274,-2.3607,-2.298,-2.2245,-2.1577,-2.1038,-2.028,-1.9814,-1.9814,-1.9148,-1.875,-1.8736,-1.7089,-1.6743,-1.8412,-1.7845,-1.6417,-1.4124,-1.6921,-1.6838,-1.3387,-1.5723,-1.6846,-1.6718,-1.6607,-1.662,-1.6718,-1.6577,-1.665,-1.6918,-1.6876,-1.6918,-1.6964,-1.6423,-1.584,-1.5184,-1.4547,-1.3856,-1.3273,-1.3273,-1.3339,-1.3391,-2.2184,-2.2184,-2.2184,-2.2184,-2.2184,-2.2184,-2.2184,-2.2184,-2.2184,-2.2044,-2.2044,-2.2044,-2.2044,-2.2044,-2.2044,-2.2044,-2.1445,-2.0633,-1.9738,-1.9987,-1.9691,-1.8695,-1.8647,-1.8365,-1.7867,-1.7115,-1.6721,-1.6625,-1.6349,-1.6349,-1.6595,-1.6595,-1.6723,-1.6989,-1.6989,-1.6989,-1.6989,-1.6989,-1.7227,-1.7544,-1.7544,-1.7828,-1.8226,-1.8305,-1.8344,-1.8344,-1.8461,-1.8707,-1.8936,-1.8831,-1.8602,-1.8344,-1.8293,-1.8489,-1.8769,-1.8991,-1.9427,-1.9818,-2.0208,-2.0361,-2.0615,-2.1389,-2.1224,-2.1046,-2.1919,-2.298,-2.3779,-2.374,-2.3717,-2.3943,-2.4608,-2.4592,-2.4454,-2.4514,-2.4329,-2.4043,-2.3566,-2.2914,-2.2417,-2.2309,-2.1869,-2.1556,-2.1556,-2.1,-2.0606,-2.0604,-1.9923,-1.9632,-1.9922,-1.8153,-1.7242,-1.7517,-1.6516,-1.5997,-1.6063,-1.6636,-1.6876,-1.6846,-1.6833,-1.6833,-1.6846,-1.6833,-1.6876,-1.696,-1.6918,-1.6918,-1.6951,-1.6329,-1.5953,-1.568,-1.512,-1.4487,-1.3909,-1.3909,-1.3702,-1.3391,-2.2184,-2.2184,-2.2184,-2.2184,-2.2184,-2.2184,-2.2184,-2.2184,-2.2184,-2.2184,-2.2184,-2.2184,-2.2184,-2.2184,-2.2184,-2.2184,-2.1671,-2.0978,-2.0102,-1.9983,-1.9539,-1.8604,-1.8617,-1.8398,-1.7922,-1.7488,-1.7144,-1.6934,-1.6778,-1.6778,-1.6934,-1.6934,-1.7018,-1.7199,-1.7199,-1.7199,-1.7199,-1.7199,-1.7323,-1.7516,-1.772,-1.7948,-1.8226,-1.863,-1.8784,-1.8822,-1.8997,-1.9199,-1.9347,-1.9273,-1.9087,-1.8936,-1.9026,-1.9213,-1.9457,-1.9758,-2.007,-2.0308,-2.0681,-2.078,-2.0987,-2.1853,-2.225,-2.2575,-2.3159,-2.3732,-2.4288,-2.4927,-2.4911,-2.4968,-2.5541,-2.526,-2.4963,-2.5152,-2.453,-2.403,-2.3936,-2.3344,-2.2898,-2.2898,-2.2557,-2.2268,-2.2116,-2.2047,-2.1945,-2.1764,-2.1481,-2.1481,-2.1872,-1.9865,-1.8996,-1.9625,-1.7941,-1.7029,-1.7047,-1.7044,-1.7044,-1.7044,-1.6876,-1.6846,-1.6876,-1.6846,-1.6846,-1.696,-1.696,-1.696,-1.6934,-1.6309,-1.5865,-1.5533,-1.4694,-1.399,-1.3433,-1.3411,-1.3353,-1.3301,-2.2172,-2.22,-2.2243,-2.2388,-2.2402,-2.2356,-2.2324,-2.2278,-2.2263,-2.2231,-2.2184,-2.2184,-2.2184,-2.2184,-2.2184,-2.2184,-2.1668,-2.1062,-2.0442,-1.9754,-1.9164,-1.857,-1.8556,-1.8386,-1.8003,-1.7963,-1.7706,-1.7199,-1.7199,-1.7199,-1.7199,-1.7282,-1.7282,-1.7199,-1.7282,-1.7323,-1.7323,-1.7323,-1.7393,-1.7557,-1.7868,-1.8068,-1.8212,-1.8936,-1.925,-1.9347,-1.9675,-1.9818,-1.9854,-1.9777,-1.9741,-1.9777,-1.999,-2.0045,-2.0115,-2.0462,-2.0599,-2.0698,-2.1007,-2.1181,-2.1499,-2.2292,-2.2948,-2.3588,-2.4181,-2.428,-2.4617,-2.595,-2.6295,-2.6418,-2.6708,-2.633,-2.6073,-2.6214,-2.5247,-2.4436,-2.4389,-2.3833,-2.3417,-2.3302,-2.3076,-2.2805,-2.2579,-2.2962,-2.3079,-2.2811,-2.2641,-2.2848,-2.3597,-2.192,-2.0897,-2.0811,-1.9639,-1.8414,-1.7227,-1.7199,-1.7199,-1.7199,-1.6876,-1.6803,-1.6918,-1.6803,-1.6803,-1.6876,-1.6918,-1.6359,-1.533,-1.4801,-1.3701,-1.2208,-1.1257,-1.0577,-1.0236,-1.102,-1.1572,-1.2043,-2.2103,-2.2249,-2.2483,-2.304,-2.3127,-2.3038,-2.2709,-2.2618,-2.2526,-2.2217,-2.2184,-2.2184,-2.2184,-2.2184,-2.2184,-2.2184,-2.1668,-2.1062,-2.0442,-1.9754,-1.923,-1.8865,-1.8784,-1.8592,-1.824,-1.8189,-1.7828,-1.7199,-1.7199,-1.7199,-1.7199,-1.7557,-1.7516,-1.724,-1.7557,-1.772,-1.772,-1.772,-1.8147,-1.886,-1.8898,-1.9124,-1.9457,-1.9566,-1.9803,-2.007,-2.0104,-2.0277,-2.0462,-2.0379,-2.0326,-2.0308,-2.0277,-2.0243,-2.0258,-2.0714,-2.1007,-2.1243,-2.1464,-2.1794,-2.2039,-2.1999,-2.2099,-2.2664,-2.4326,-2.523,-2.5842,-2.6297,-2.659,-2.692,-2.733,-2.7537,-2.7602,-2.7331,-2.7164,-2.6617,-2.5259,-2.499,-2.4707,-2.4117,-2.4118,-2.4205,-2.4339,-2.4403,-2.4435,-2.44,-2.4365,-2.4305,-2.4198,-2.3009,-2.1861,-2.0825,-1.9621,-1.8425,-1.7199,-1.7199,-1.7199,-1.7199,-1.7044,-1.696,-1.696,-1.6918,-1.6876,-1.6876,-1.6803,-1.3675,-0.8711,-0.8591,-0.5259,-0.015,0.0,0.0108,-0.034,-0.4543,-0.642,-0.7319,-2.1571,-2.1686,-2.1789,-2.2069,-2.2127,-2.2071,-2.1886,-2.1844,-2.1931,-2.2162,-2.2042,-2.1922,-2.1967,-2.1967,-2.22,-2.2785,-2.2235,-2.1758,-2.1469,-2.0474,-1.9835,-1.9691,-1.9275,-1.8884,-1.8592,-1.8567,-1.8319,-1.7908,-1.7679,-1.7557,-1.7557,-1.7988,-1.8108,-1.7908,-1.8108,-1.8187,-1.8187,-1.8187,-1.8422,-1.8784,-1.9026,-1.931,-1.966,-1.9909,-2.0224,-2.0545,-2.0545,-2.0613,-2.0679,-2.0548,-2.0481,-2.0481,-2.0682,-2.0715,-2.0813,-2.1399,-2.1655,-2.1774,-2.1961,-2.2106,-2.2243,-2.2275,-2.2581,-2.317,-2.4311,-2.5553,-2.6463,-2.6536,-2.6713,-2.6951,-2.7282,-2.7173,-2.7209,-2.7708,-2.7463,-2.6858,-2.5835,-2.5703,-2.5439,-2.4682,-2.4643,-2.472,-2.4803,-2.4985,-2.5033,-2.4937,-2.492,-2.4756,-2.4378,-2.2609,-2.1305,-2.0658,-1.8912,-1.7718,-1.7199,-1.7199,-1.7199,-1.7199,-1.7157,-1.7044,-1.6918,-1.6918,-1.6876,-1.6701,-1.3084,-0.9978,-0.7212,-0.3218,0.0076,0.2716,0.3269,0.3508,0.3273,0.1107,0.0066,-0.102]}]]